<?xml version="1.0" encoding="UTF-8" standalone="no" ?>
<gpx xmlns="http://www.topografix.com/GPX/1/1" xmlns:xsi="http://www.w3.org/2001/XMLSchema-instance" xsi:schemaLocation="http://www.topografix.com/GPX/1/1 http://www.topografix.com/GPX/1/1/gpx.xsd" version="1.1" creator="VisuGPX - https://www.visugpx.com">
  <metadata>
    <name>Forest Track 39 km</name>
  </metadata>
  <wpt lat="50.52199" lon="1.59946">
    <ele>6</ele>
  </wpt>
  <wpt lat="50.53372" lon="1.64177">
    <ele>32.7</ele>
  </wpt>
  <trk>
    <name><![CDATA[Forest Track 39 km_1]]></name>
    <trkseg>
      <trkpt lat="50.52177" lon="1.59956">
        <ele>15.672412872314</ele>
        <time>2021-01-12T20:05:07.513Z</time>
      </trkpt>
      <trkpt lat="50.52141" lon="1.60026">
        <ele>16.868602752686</ele>
        <time>2021-01-12T20:05:10.138Z</time>
      </trkpt>
      <trkpt lat="50.52126" lon="1.60059">
        <ele>15.994557380676</ele>
        <time>2021-01-12T20:05:12.768Z</time>
      </trkpt>
      <trkpt lat="50.52107" lon="1.60101">
        <ele>14.893007278442</ele>
        <time>2021-01-12T20:05:15.405Z</time>
      </trkpt>
      <trkpt lat="50.52073" lon="1.60168">
        <ele>11.324676513672</ele>
        <time>2021-01-12T20:05:18.053Z</time>
      </trkpt>
      <trkpt lat="50.52035" lon="1.60241">
        <ele>13.76034450531</ele>
        <time>2021-01-12T20:05:20.713Z</time>
      </trkpt>
      <trkpt lat="50.51999" lon="1.60314">
        <ele>15</ele>
        <time>2021-01-12T20:05:23.385Z</time>
      </trkpt>
      <trkpt lat="50.51965" lon="1.60386">
        <ele>14</ele>
        <time>2021-01-12T20:05:26.068Z</time>
      </trkpt>
      <trkpt lat="50.51929" lon="1.60457">
        <ele>12.582482337952</ele>
        <time>2021-01-12T20:05:28.763Z</time>
      </trkpt>
      <trkpt lat="50.51899" lon="1.60515">
        <ele>12</ele>
        <time>2021-01-12T20:05:31.467Z</time>
      </trkpt>
      <trkpt lat="50.51876" lon="1.60559">
        <ele>12.550080299377</ele>
        <time>2021-01-12T20:05:34.178Z</time>
      </trkpt>
      <trkpt lat="50.51862" lon="1.6059">
        <ele>13.126931190491</ele>
        <time>2021-01-12T20:05:36.894Z</time>
      </trkpt>
      <trkpt lat="50.51859" lon="1.60597">
        <ele>13.400455474854</ele>
        <time>2021-01-12T20:05:39.611Z</time>
      </trkpt>
      <trkpt lat="50.51858" lon="1.60612">
        <ele>13.876623153687</ele>
        <time>2021-01-12T20:05:42.330Z</time>
      </trkpt>
      <trkpt lat="50.51868" lon="1.60641">
        <ele>14.429858207703</ele>
        <time>2021-01-12T20:05:45.053Z</time>
      </trkpt>
      <trkpt lat="50.51885" lon="1.60686">
        <ele>17.051452636719</ele>
        <time>2021-01-12T20:05:47.783Z</time>
      </trkpt>
      <trkpt lat="50.51894" lon="1.60698">
        <ele>18.516790390015</ele>
        <time>2021-01-12T20:05:50.515Z</time>
      </trkpt>
      <trkpt lat="50.51899" lon="1.60711">
        <ele>18.945125579834</ele>
        <time>2021-01-12T20:05:53.249Z</time>
      </trkpt>
      <trkpt lat="50.51906" lon="1.60724">
        <ele>19.398599624634</ele>
        <time>2021-01-12T20:05:55.986Z</time>
      </trkpt>
      <trkpt lat="50.51916" lon="1.60744">
        <ele>20.125598907471</ele>
        <time>2021-01-12T20:05:58.726Z</time>
      </trkpt>
      <trkpt lat="50.51924" lon="1.60753">
        <ele>20.719400405884</ele>
        <time>2021-01-12T20:06:01.468Z</time>
      </trkpt>
      <trkpt lat="50.51926" lon="1.60756">
        <ele>20.859760284424</ele>
        <time>2021-01-12T20:06:04.210Z</time>
      </trkpt>
      <trkpt lat="50.51933" lon="1.60763">
        <ele>21.316833496094</ele>
        <time>2021-01-12T20:06:06.954Z</time>
      </trkpt>
      <trkpt lat="50.51947" lon="1.60778">
        <ele>22.284965515137</ele>
        <time>2021-01-12T20:06:09.701Z</time>
      </trkpt>
      <trkpt lat="50.51949" lon="1.60821">
        <ele>23.379560470581</ele>
        <time>2021-01-12T20:06:12.454Z</time>
      </trkpt>
      <trkpt lat="50.51958" lon="1.60857">
        <ele>24.669513702393</ele>
        <time>2021-01-12T20:06:15.212Z</time>
      </trkpt>
      <trkpt lat="50.51995" lon="1.60856">
        <ele>25.281732559204</ele>
        <time>2021-01-12T20:06:17.977Z</time>
      </trkpt>
      <trkpt lat="50.52" lon="1.60859">
        <ele>25.202554702759</ele>
        <time>2021-01-12T20:06:20.743Z</time>
      </trkpt>
      <trkpt lat="50.5201" lon="1.60862">
        <ele>24.447164535522</ele>
        <time>2021-01-12T20:06:23.511Z</time>
      </trkpt>
      <trkpt lat="50.5202" lon="1.6086">
        <ele>23.748958587646</ele>
        <time>2021-01-12T20:06:26.281Z</time>
      </trkpt>
      <trkpt lat="50.52039" lon="1.60863">
        <ele>21.370952606201</ele>
        <time>2021-01-12T20:06:29.055Z</time>
      </trkpt>
      <trkpt lat="50.52069" lon="1.60901">
        <ele>16.239845275879</ele>
        <time>2021-01-12T20:06:31.837Z</time>
      </trkpt>
      <trkpt lat="50.52087" lon="1.60946">
        <ele>12.81676197052</ele>
        <time>2021-01-12T20:06:34.626Z</time>
      </trkpt>
      <trkpt lat="50.52067" lon="1.60969">
        <ele>13.092374801636</ele>
        <time>2021-01-12T20:06:37.420Z</time>
      </trkpt>
      <trkpt lat="50.52012" lon="1.60992">
        <ele>12.835767745972</ele>
        <time>2021-01-12T20:06:40.225Z</time>
      </trkpt>
      <trkpt lat="50.51996" lon="1.60994">
        <ele>12.934540748596</ele>
        <time>2021-01-12T20:06:43.033Z</time>
      </trkpt>
      <trkpt lat="50.51939" lon="1.61006">
        <ele>10.692885398865</ele>
        <time>2021-01-12T20:06:45.853Z</time>
      </trkpt>
      <trkpt lat="50.51888" lon="1.61021">
        <ele>8.7916250228882</ele>
        <time>2021-01-12T20:06:48.683Z</time>
      </trkpt>
      <trkpt lat="50.51878" lon="1.61023">
        <ele>8.9463815689087</ele>
        <time>2021-01-12T20:06:51.515Z</time>
      </trkpt>
      <trkpt lat="50.51868" lon="1.61027">
        <ele>9.0723466873169</ele>
        <time>2021-01-12T20:06:54.349Z</time>
      </trkpt>
      <trkpt lat="50.51859" lon="1.6103">
        <ele>9.2626266479492</ele>
        <time>2021-01-12T20:06:57.185Z</time>
      </trkpt>
      <trkpt lat="50.51849" lon="1.61033">
        <ele>9.8276700973511</ele>
        <time>2021-01-12T20:07:00.023Z</time>
      </trkpt>
      <trkpt lat="50.51835" lon="1.61038">
        <ele>10.486231803894</ele>
        <time>2021-01-12T20:07:02.864Z</time>
      </trkpt>
      <trkpt lat="50.5183" lon="1.61039">
        <ele>10.561810493469</ele>
        <time>2021-01-12T20:07:05.706Z</time>
      </trkpt>
      <trkpt lat="50.5182" lon="1.61041">
        <ele>10.784948348999</ele>
        <time>2021-01-12T20:07:08.550Z</time>
      </trkpt>
      <trkpt lat="50.51784" lon="1.61039">
        <ele>11.81183052063</ele>
        <time>2021-01-12T20:07:11.401Z</time>
      </trkpt>
      <trkpt lat="50.51779" lon="1.61036">
        <ele>11.96298789978</ele>
        <time>2021-01-12T20:07:14.253Z</time>
      </trkpt>
      <trkpt lat="50.51741" lon="1.61021">
        <ele>13</ele>
        <time>2021-01-12T20:07:17.113Z</time>
      </trkpt>
      <trkpt lat="50.51732" lon="1.61042">
        <ele>13</ele>
        <time>2021-01-12T20:07:19.976Z</time>
      </trkpt>
      <trkpt lat="50.51722" lon="1.61073">
        <ele>12.981983184814</ele>
        <time>2021-01-12T20:07:22.844Z</time>
      </trkpt>
      <trkpt lat="50.51702" lon="1.61154">
        <ele>10.301727294922</ele>
        <time>2021-01-12T20:07:25.723Z</time>
      </trkpt>
      <trkpt lat="50.5168" lon="1.61236">
        <ele>11.52959728241</ele>
        <time>2021-01-12T20:07:28.613Z</time>
      </trkpt>
      <trkpt lat="50.5166" lon="1.61321">
        <ele>14.052373886108</ele>
        <time>2021-01-12T20:07:31.515Z</time>
      </trkpt>
      <trkpt lat="50.51639" lon="1.61389">
        <ele>13.174218177795</ele>
        <time>2021-01-12T20:07:34.427Z</time>
      </trkpt>
      <trkpt lat="50.51616" lon="1.61423">
        <ele>12</ele>
        <time>2021-01-12T20:07:37.345Z</time>
      </trkpt>
      <trkpt lat="50.51572" lon="1.61462">
        <ele>13.351613044739</ele>
        <time>2021-01-12T20:07:40.273Z</time>
      </trkpt>
      <trkpt lat="50.51541" lon="1.6148">
        <ele>14.899183273315</ele>
        <time>2021-01-12T20:07:43.207Z</time>
      </trkpt>
      <trkpt lat="50.51519" lon="1.61489">
        <ele>15.014517784119</ele>
        <time>2021-01-12T20:07:46.146Z</time>
      </trkpt>
      <trkpt lat="50.51468" lon="1.61501">
        <ele>12.962488174438</ele>
        <time>2021-01-12T20:07:49.095Z</time>
      </trkpt>
      <trkpt lat="50.51411" lon="1.61519">
        <ele>13</ele>
        <time>2021-01-12T20:07:52.056Z</time>
      </trkpt>
      <trkpt lat="50.51382" lon="1.61526">
        <ele>13.075389862061</ele>
        <time>2021-01-12T20:07:55.023Z</time>
      </trkpt>
      <trkpt lat="50.51324" lon="1.61544">
        <ele>13.639966964722</ele>
        <time>2021-01-12T20:07:58.002Z</time>
      </trkpt>
      <trkpt lat="50.5127" lon="1.61569">
        <ele>13.379138946533</ele>
        <time>2021-01-12T20:08:00.992Z</time>
      </trkpt>
      <trkpt lat="50.51245" lon="1.61582">
        <ele>13</ele>
        <time>2021-01-12T20:08:03.987Z</time>
      </trkpt>
      <trkpt lat="50.51235" lon="1.61586">
        <ele>13</ele>
        <time>2021-01-12T20:08:06.984Z</time>
      </trkpt>
      <trkpt lat="50.51224" lon="1.61587">
        <ele>13</ele>
        <time>2021-01-12T20:08:09.984Z</time>
      </trkpt>
      <trkpt lat="50.51214" lon="1.61583">
        <ele>12.107980728149</ele>
        <time>2021-01-12T20:08:12.986Z</time>
      </trkpt>
      <trkpt lat="50.51201" lon="1.61575">
        <ele>10.682777404785</ele>
        <time>2021-01-12T20:08:15.990Z</time>
      </trkpt>
      <trkpt lat="50.51179" lon="1.6156">
        <ele>8.2642488479614</ele>
        <time>2021-01-12T20:08:18.999Z</time>
      </trkpt>
      <trkpt lat="50.51165" lon="1.61567">
        <ele>7.3644099235535</ele>
        <time>2021-01-12T20:08:22.011Z</time>
      </trkpt>
      <trkpt lat="50.51163" lon="1.61555">
        <ele>7.2683477401733</ele>
        <time>2021-01-12T20:08:25.025Z</time>
      </trkpt>
      <trkpt lat="50.5117" lon="1.61526">
        <ele>9.6398448944092</ele>
        <time>2021-01-12T20:08:28.043Z</time>
      </trkpt>
      <trkpt lat="50.51165" lon="1.61489">
        <ele>11.885621070862</ele>
        <time>2021-01-12T20:08:31.066Z</time>
      </trkpt>
      <trkpt lat="50.5115" lon="1.61431">
        <ele>13.393280029297</ele>
        <time>2021-01-12T20:08:34.097Z</time>
      </trkpt>
      <trkpt lat="50.51141" lon="1.61395">
        <ele>14.902626991272</ele>
        <time>2021-01-12T20:08:37.133Z</time>
      </trkpt>
      <trkpt lat="50.51129" lon="1.61362">
        <ele>16.803087234497</ele>
        <time>2021-01-12T20:08:40.173Z</time>
      </trkpt>
      <trkpt lat="50.5112" lon="1.61337">
        <ele>18.296672821045</ele>
        <time>2021-01-12T20:08:43.217Z</time>
      </trkpt>
      <trkpt lat="50.51106" lon="1.61305">
        <ele>19.602687835693</ele>
        <time>2021-01-12T20:08:46.266Z</time>
      </trkpt>
      <trkpt lat="50.51094" lon="1.61282">
        <ele>19.018795013428</ele>
        <time>2021-01-12T20:08:49.319Z</time>
      </trkpt>
      <trkpt lat="50.51086" lon="1.61274">
        <ele>18.500537872314</ele>
        <time>2021-01-12T20:08:52.374Z</time>
      </trkpt>
      <trkpt lat="50.51039" lon="1.61241">
        <ele>17.390014648438</ele>
        <time>2021-01-12T20:08:55.439Z</time>
      </trkpt>
      <trkpt lat="50.51035" lon="1.61179">
        <ele>18.242454528809</ele>
        <time>2021-01-12T20:08:58.512Z</time>
      </trkpt>
      <trkpt lat="50.51029" lon="1.61153">
        <ele>18.706914901733</ele>
        <time>2021-01-12T20:09:01.588Z</time>
      </trkpt>
      <trkpt lat="50.51021" lon="1.61133">
        <ele>19.065492630005</ele>
        <time>2021-01-12T20:09:04.667Z</time>
      </trkpt>
      <trkpt lat="50.50996" lon="1.61051">
        <ele>19.699283599854</ele>
        <time>2021-01-12T20:09:07.758Z</time>
      </trkpt>
      <trkpt lat="50.5099" lon="1.61032">
        <ele>19.245809555054</ele>
        <time>2021-01-12T20:09:10.852Z</time>
      </trkpt>
      <trkpt lat="50.50975" lon="1.6099">
        <ele>18.512136459351</ele>
        <time>2021-01-12T20:09:13.952Z</time>
      </trkpt>
      <trkpt lat="50.50971" lon="1.60989">
        <ele>18.444032669067</ele>
        <time>2021-01-12T20:09:17.053Z</time>
      </trkpt>
      <trkpt lat="50.50968" lon="1.60993">
        <ele>18.46922492981</ele>
        <time>2021-01-12T20:09:20.155Z</time>
      </trkpt>
      <trkpt lat="50.50951" lon="1.61008">
        <ele>17.289430618286</ele>
        <time>2021-01-12T20:09:23.260Z</time>
      </trkpt>
      <trkpt lat="50.50942" lon="1.61011">
        <ele>16.627458572388</ele>
        <time>2021-01-12T20:09:26.367Z</time>
      </trkpt>
      <trkpt lat="50.50935" lon="1.61016">
        <ele>16.181182861328</ele>
        <time>2021-01-12T20:09:29.476Z</time>
      </trkpt>
      <trkpt lat="50.50894" lon="1.61057">
        <ele>16</ele>
        <time>2021-01-12T20:09:32.595Z</time>
      </trkpt>
      <trkpt lat="50.50883" lon="1.61078">
        <ele>16</ele>
        <time>2021-01-12T20:09:35.717Z</time>
      </trkpt>
      <trkpt lat="50.50875" lon="1.61145">
        <ele>13.49125289917</ele>
        <time>2021-01-12T20:09:38.848Z</time>
      </trkpt>
      <trkpt lat="50.5087" lon="1.61205">
        <ele>13.307703018188</ele>
        <time>2021-01-12T20:09:41.986Z</time>
      </trkpt>
      <trkpt lat="50.50868" lon="1.61219">
        <ele>14.289963722229</ele>
        <time>2021-01-12T20:09:45.126Z</time>
      </trkpt>
      <trkpt lat="50.50879" lon="1.61263">
        <ele>15</ele>
        <time>2021-01-12T20:09:48.272Z</time>
      </trkpt>
      <trkpt lat="50.50885" lon="1.61316">
        <ele>16</ele>
        <time>2021-01-12T20:09:51.425Z</time>
      </trkpt>
      <trkpt lat="50.50901" lon="1.61343">
        <ele>16</ele>
        <time>2021-01-12T20:09:54.583Z</time>
      </trkpt>
      <trkpt lat="50.50906" lon="1.61361">
        <ele>16.253885269165</ele>
        <time>2021-01-12T20:09:57.743Z</time>
      </trkpt>
      <trkpt lat="50.50893" lon="1.61361">
        <ele>16.746948242188</ele>
        <time>2021-01-12T20:10:00.906Z</time>
      </trkpt>
      <trkpt lat="50.50892" lon="1.61367">
        <ele>16.89331817627</ele>
        <time>2021-01-12T20:10:04.070Z</time>
      </trkpt>
      <trkpt lat="50.50908" lon="1.61411">
        <ele>15.328275680542</ele>
        <time>2021-01-12T20:10:07.240Z</time>
      </trkpt>
      <trkpt lat="50.50915" lon="1.61437">
        <ele>14.45148563385</ele>
        <time>2021-01-12T20:10:10.414Z</time>
      </trkpt>
      <trkpt lat="50.50914" lon="1.61494">
        <ele>14.770630836487</ele>
        <time>2021-01-12T20:10:13.595Z</time>
      </trkpt>
      <trkpt lat="50.50941" lon="1.61541">
        <ele>15.038444519043</ele>
        <time>2021-01-12T20:10:16.784Z</time>
      </trkpt>
      <trkpt lat="50.50965" lon="1.61547">
        <ele>13.735607147217</ele>
        <time>2021-01-12T20:10:19.978Z</time>
      </trkpt>
      <trkpt lat="50.50974" lon="1.61556">
        <ele>13.742804527283</ele>
        <time>2021-01-12T20:10:23.174Z</time>
      </trkpt>
      <trkpt lat="50.50985" lon="1.61577">
        <ele>13.75595664978</ele>
        <time>2021-01-12T20:10:26.374Z</time>
      </trkpt>
      <trkpt lat="50.50994" lon="1.61599">
        <ele>13.917911529541</ele>
        <time>2021-01-12T20:10:29.577Z</time>
      </trkpt>
      <trkpt lat="50.51008" lon="1.61599">
        <ele>12.902993202209</ele>
        <time>2021-01-12T20:10:32.783Z</time>
      </trkpt>
      <trkpt lat="50.51022" lon="1.61583">
        <ele>12.101216316223</ele>
        <time>2021-01-12T20:10:35.992Z</time>
      </trkpt>
      <trkpt lat="50.51055" lon="1.61641">
        <ele>10.054862976074</ele>
        <time>2021-01-12T20:10:39.211Z</time>
      </trkpt>
      <trkpt lat="50.51059" lon="1.61645">
        <ele>9.7659759521484</ele>
        <time>2021-01-12T20:10:42.431Z</time>
      </trkpt>
      <trkpt lat="50.5107" lon="1.61651">
        <ele>8.974196434021</ele>
        <time>2021-01-12T20:10:45.654Z</time>
      </trkpt>
      <trkpt lat="50.51072" lon="1.61655">
        <ele>8.8446321487427</ele>
        <time>2021-01-12T20:10:48.877Z</time>
      </trkpt>
      <trkpt lat="50.51058" lon="1.61679">
        <ele>10.069780349731</ele>
        <time>2021-01-12T20:10:52.104Z</time>
      </trkpt>
      <trkpt lat="50.51057" lon="1.61683">
        <ele>10.314512252808</ele>
        <time>2021-01-12T20:10:55.332Z</time>
      </trkpt>
      <trkpt lat="50.51056" lon="1.61706">
        <ele>10.994467735291</ele>
        <time>2021-01-12T20:10:58.563Z</time>
      </trkpt>
      <trkpt lat="50.51053" lon="1.6171">
        <ele>11.233845710754</ele>
        <time>2021-01-12T20:11:01.795Z</time>
      </trkpt>
      <trkpt lat="50.51028" lon="1.6179">
        <ele>12.680144309998</ele>
        <time>2021-01-12T20:11:05.038Z</time>
      </trkpt>
      <trkpt lat="50.50998" lon="1.61867">
        <ele>9</ele>
        <time>2021-01-12T20:11:08.293Z</time>
      </trkpt>
      <trkpt lat="50.50987" lon="1.61897">
        <ele>9.1586666107178</ele>
        <time>2021-01-12T20:11:11.552Z</time>
      </trkpt>
      <trkpt lat="50.50969" lon="1.61961">
        <ele>12.699006080627</ele>
        <time>2021-01-12T20:11:14.820Z</time>
      </trkpt>
      <trkpt lat="50.50946" lon="1.62007">
        <ele>13.903781890869</ele>
        <time>2021-01-12T20:11:18.095Z</time>
      </trkpt>
      <trkpt lat="50.50939" lon="1.62031">
        <ele>13.202466011047</ele>
        <time>2021-01-12T20:11:21.374Z</time>
      </trkpt>
      <trkpt lat="50.50928" lon="1.62046">
        <ele>13.457228660583</ele>
        <time>2021-01-12T20:11:24.656Z</time>
      </trkpt>
      <trkpt lat="50.50924" lon="1.62041">
        <ele>13.644376754761</ele>
        <time>2021-01-12T20:11:27.939Z</time>
      </trkpt>
      <trkpt lat="50.50914" lon="1.61998">
        <ele>15.191946983337</ele>
        <time>2021-01-12T20:11:31.228Z</time>
      </trkpt>
      <trkpt lat="50.50914" lon="1.61981">
        <ele>15.810975074768</ele>
        <time>2021-01-12T20:11:34.519Z</time>
      </trkpt>
      <trkpt lat="50.50913" lon="1.61959">
        <ele>16.133930206299</ele>
        <time>2021-01-12T20:11:37.813Z</time>
      </trkpt>
      <trkpt lat="50.50915" lon="1.61945">
        <ele>16.065547943115</ele>
        <time>2021-01-12T20:11:41.108Z</time>
      </trkpt>
      <trkpt lat="50.50898" lon="1.61872">
        <ele>15.606475830078</ele>
        <time>2021-01-12T20:11:44.413Z</time>
      </trkpt>
      <trkpt lat="50.50883" lon="1.61835">
        <ele>16.228025436401</ele>
        <time>2021-01-12T20:11:47.724Z</time>
      </trkpt>
      <trkpt lat="50.50878" lon="1.61797">
        <ele>15.826714515686</ele>
        <time>2021-01-12T20:11:51.040Z</time>
      </trkpt>
      <trkpt lat="50.50864" lon="1.61742">
        <ele>17.411085128784</ele>
        <time>2021-01-12T20:11:54.364Z</time>
      </trkpt>
      <trkpt lat="50.50864" lon="1.61723">
        <ele>17</ele>
        <time>2021-01-12T20:11:57.690Z</time>
      </trkpt>
      <trkpt lat="50.50862" lon="1.61707">
        <ele>17</ele>
        <time>2021-01-12T20:12:01.018Z</time>
      </trkpt>
      <trkpt lat="50.50851" lon="1.6162">
        <ele>15</ele>
        <time>2021-01-12T20:12:04.357Z</time>
      </trkpt>
      <trkpt lat="50.50833" lon="1.61561">
        <ele>16</ele>
        <time>2021-01-12T20:12:07.705Z</time>
      </trkpt>
      <trkpt lat="50.50834" lon="1.61553">
        <ele>16</ele>
        <time>2021-01-12T20:12:11.054Z</time>
      </trkpt>
      <trkpt lat="50.50828" lon="1.61522">
        <ele>16.185882568359</ele>
        <time>2021-01-12T20:12:14.407Z</time>
      </trkpt>
      <trkpt lat="50.50826" lon="1.61507">
        <ele>16.265060424805</ele>
        <time>2021-01-12T20:12:17.762Z</time>
      </trkpt>
      <trkpt lat="50.50826" lon="1.61491">
        <ele>16.689540863037</ele>
        <time>2021-01-12T20:12:21.119Z</time>
      </trkpt>
      <trkpt lat="50.50824" lon="1.61474">
        <ele>17.34063911438</ele>
        <time>2021-01-12T20:12:24.478Z</time>
      </trkpt>
      <trkpt lat="50.50821" lon="1.61459">
        <ele>17.466604232788</ele>
        <time>2021-01-12T20:12:27.839Z</time>
      </trkpt>
      <trkpt lat="50.50796" lon="1.6138">
        <ele>16.217872619629</ele>
        <time>2021-01-12T20:12:31.211Z</time>
      </trkpt>
      <trkpt lat="50.5079" lon="1.61366">
        <ele>15.458483695984</ele>
        <time>2021-01-12T20:12:34.586Z</time>
      </trkpt>
      <trkpt lat="50.50778" lon="1.61343">
        <ele>15.014617919922</ele>
        <time>2021-01-12T20:12:37.964Z</time>
      </trkpt>
      <trkpt lat="50.5077" lon="1.61319">
        <ele>15</ele>
        <time>2021-01-12T20:12:41.346Z</time>
      </trkpt>
      <trkpt lat="50.50756" lon="1.61257">
        <ele>15.8533411026</ele>
        <time>2021-01-12T20:12:44.736Z</time>
      </trkpt>
      <trkpt lat="50.50749" lon="1.61242">
        <ele>16.353302001953</ele>
        <time>2021-01-12T20:12:48.128Z</time>
      </trkpt>
      <trkpt lat="50.50746" lon="1.61241">
        <ele>16.30291557312</ele>
        <time>2021-01-12T20:12:51.521Z</time>
      </trkpt>
      <trkpt lat="50.50696" lon="1.61249">
        <ele>15.152057647705</ele>
        <time>2021-01-12T20:12:54.924Z</time>
      </trkpt>
      <trkpt lat="50.50691" lon="1.61239">
        <ele>15.359456062317</ele>
        <time>2021-01-12T20:12:58.329Z</time>
      </trkpt>
      <trkpt lat="50.50698" lon="1.61186">
        <ele>19.290674209595</ele>
        <time>2021-01-12T20:13:01.741Z</time>
      </trkpt>
      <trkpt lat="50.50727" lon="1.61135">
        <ele>24.330707550049</ele>
        <time>2021-01-12T20:13:05.161Z</time>
      </trkpt>
      <trkpt lat="50.50754" lon="1.61098">
        <ele>25.08388710022</ele>
        <time>2021-01-12T20:13:08.589Z</time>
      </trkpt>
      <trkpt lat="50.50759" lon="1.61081">
        <ele>25.01837348938</ele>
        <time>2021-01-12T20:13:12.019Z</time>
      </trkpt>
      <trkpt lat="50.50771" lon="1.6103">
        <ele>24.458749771118</ele>
        <time>2021-01-12T20:13:15.456Z</time>
      </trkpt>
      <trkpt lat="50.50774" lon="1.6101">
        <ele>24.150936126709</ele>
        <time>2021-01-12T20:13:18.896Z</time>
      </trkpt>
      <trkpt lat="50.50779" lon="1.60981">
        <ele>22.270969390869</ele>
        <time>2021-01-12T20:13:22.339Z</time>
      </trkpt>
      <trkpt lat="50.50783" lon="1.60944">
        <ele>20.179094314575</ele>
        <time>2021-01-12T20:13:25.787Z</time>
      </trkpt>
      <trkpt lat="50.50781" lon="1.60928">
        <ele>19.844387054443</ele>
        <time>2021-01-12T20:13:29.237Z</time>
      </trkpt>
      <trkpt lat="50.50776" lon="1.60919">
        <ele>20.161321640015</ele>
        <time>2021-01-12T20:13:32.689Z</time>
      </trkpt>
      <trkpt lat="50.50774" lon="1.60923">
        <ele>20.521221160889</ele>
        <time>2021-01-12T20:13:36.141Z</time>
      </trkpt>
      <trkpt lat="50.50773" lon="1.60951">
        <ele>21.658506393433</ele>
        <time>2021-01-12T20:13:39.597Z</time>
      </trkpt>
      <trkpt lat="50.50737" lon="1.60976">
        <ele>25.972330093384</ele>
        <time>2021-01-12T20:13:43.061Z</time>
      </trkpt>
      <trkpt lat="50.50736" lon="1.60982">
        <ele>26.044309616089</ele>
        <time>2021-01-12T20:13:46.526Z</time>
      </trkpt>
      <trkpt lat="50.50743" lon="1.61009">
        <ele>25.72559928894</ele>
        <time>2021-01-12T20:13:49.995Z</time>
      </trkpt>
      <trkpt lat="50.50741" lon="1.61027">
        <ele>26.342205047607</ele>
        <time>2021-01-12T20:13:53.466Z</time>
      </trkpt>
      <trkpt lat="50.5073" lon="1.61026">
        <ele>26.727298736572</ele>
        <time>2021-01-12T20:13:56.939Z</time>
      </trkpt>
      <trkpt lat="50.50717" lon="1.61035">
        <ele>27.187969207764</ele>
        <time>2021-01-12T20:14:00.415Z</time>
      </trkpt>
      <trkpt lat="50.50711" lon="1.61027">
        <ele>27.560144424438</ele>
        <time>2021-01-12T20:14:03.892Z</time>
      </trkpt>
      <trkpt lat="50.50709" lon="1.61024">
        <ele>27.74009513855</ele>
        <time>2021-01-12T20:14:07.370Z</time>
      </trkpt>
      <trkpt lat="50.50699" lon="1.61016">
        <ele>28.413106918335</ele>
        <time>2021-01-12T20:14:10.850Z</time>
      </trkpt>
      <trkpt lat="50.50688" lon="1.61003">
        <ele>28.502649307251</ele>
        <time>2021-01-12T20:14:14.333Z</time>
      </trkpt>
      <trkpt lat="50.50682" lon="1.61">
        <ele>28.090364456177</ele>
        <time>2021-01-12T20:14:17.817Z</time>
      </trkpt>
      <trkpt lat="50.50668" lon="1.60993">
        <ele>27.097040176392</ele>
        <time>2021-01-12T20:14:21.304Z</time>
      </trkpt>
      <trkpt lat="50.50666" lon="1.6098">
        <ele>26.924287796021</ele>
        <time>2021-01-12T20:14:24.793Z</time>
      </trkpt>
      <trkpt lat="50.5066" lon="1.6096">
        <ele>26.303394317627</ele>
        <time>2021-01-12T20:14:28.285Z</time>
      </trkpt>
      <trkpt lat="50.50648" lon="1.60944">
        <ele>24.795967102051</ele>
        <time>2021-01-12T20:14:31.780Z</time>
      </trkpt>
      <trkpt lat="50.50644" lon="1.6092">
        <ele>23.496728897095</ele>
        <time>2021-01-12T20:14:35.278Z</time>
      </trkpt>
      <trkpt lat="50.50649" lon="1.60898">
        <ele>23.109935760498</ele>
        <time>2021-01-12T20:14:38.779Z</time>
      </trkpt>
      <trkpt lat="50.50652" lon="1.60898">
        <ele>23.397855758667</ele>
        <time>2021-01-12T20:14:42.281Z</time>
      </trkpt>
      <trkpt lat="50.50685" lon="1.6089">
        <ele>24.497417449951</ele>
        <time>2021-01-12T20:14:45.789Z</time>
      </trkpt>
      <trkpt lat="50.50719" lon="1.60871">
        <ele>21.912757873535</ele>
        <time>2021-01-12T20:14:49.305Z</time>
      </trkpt>
      <trkpt lat="50.50734" lon="1.60867">
        <ele>20.800855636597</ele>
        <time>2021-01-12T20:14:52.824Z</time>
      </trkpt>
      <trkpt lat="50.50742" lon="1.60845">
        <ele>17.793968200684</ele>
        <time>2021-01-12T20:14:56.346Z</time>
      </trkpt>
      <trkpt lat="50.50741" lon="1.6084">
        <ele>17.174940109253</ele>
        <time>2021-01-12T20:14:59.869Z</time>
      </trkpt>
      <trkpt lat="50.50697" lon="1.60817">
        <ele>18.45924949646</ele>
        <time>2021-01-12T20:15:03.401Z</time>
      </trkpt>
      <trkpt lat="50.50657" lon="1.60792">
        <ele>18.106048583984</ele>
        <time>2021-01-12T20:15:06.942Z</time>
      </trkpt>
      <trkpt lat="50.50659" lon="1.60765">
        <ele>16.993957519531</ele>
        <time>2021-01-12T20:15:10.486Z</time>
      </trkpt>
      <trkpt lat="50.50666" lon="1.60734">
        <ele>16.09010887146</ele>
        <time>2021-01-12T20:15:14.034Z</time>
      </trkpt>
      <trkpt lat="50.50676" lon="1.60689">
        <ele>15</ele>
        <time>2021-01-12T20:15:17.588Z</time>
      </trkpt>
      <trkpt lat="50.5068" lon="1.60669">
        <ele>14.516000747681</ele>
        <time>2021-01-12T20:15:21.145Z</time>
      </trkpt>
      <trkpt lat="50.50693" lon="1.60606">
        <ele>14.058928489685</ele>
        <time>2021-01-12T20:15:24.710Z</time>
      </trkpt>
      <trkpt lat="50.507" lon="1.60581">
        <ele>13.635212898254</ele>
        <time>2021-01-12T20:15:28.279Z</time>
      </trkpt>
      <trkpt lat="50.50706" lon="1.60552">
        <ele>13</ele>
        <time>2021-01-12T20:15:31.852Z</time>
      </trkpt>
      <trkpt lat="50.50704" lon="1.60528">
        <ele>12.565787315369</ele>
        <time>2021-01-12T20:15:35.428Z</time>
      </trkpt>
      <trkpt lat="50.50677" lon="1.60461">
        <ele>12.13698387146</ele>
        <time>2021-01-12T20:15:39.014Z</time>
      </trkpt>
      <trkpt lat="50.50663" lon="1.60456">
        <ele>12.442898750305</ele>
        <time>2021-01-12T20:15:42.603Z</time>
      </trkpt>
      <trkpt lat="50.50661" lon="1.60457">
        <ele>12.568863868713</ele>
        <time>2021-01-12T20:15:46.192Z</time>
      </trkpt>
      <trkpt lat="50.50655" lon="1.60491">
        <ele>13.437345504761</ele>
        <time>2021-01-12T20:15:49.786Z</time>
      </trkpt>
      <trkpt lat="50.50653" lon="1.60494">
        <ele>13.487730979919</ele>
        <time>2021-01-12T20:15:53.380Z</time>
      </trkpt>
      <trkpt lat="50.50646" lon="1.60511">
        <ele>14.03777885437</ele>
        <time>2021-01-12T20:15:56.977Z</time>
      </trkpt>
      <trkpt lat="50.50631" lon="1.60564">
        <ele>15.283110618591</ele>
        <time>2021-01-12T20:16:00.581Z</time>
      </trkpt>
      <trkpt lat="50.50612" lon="1.60611">
        <ele>15.984915733337</ele>
        <time>2021-01-12T20:16:04.192Z</time>
      </trkpt>
      <trkpt lat="50.506" lon="1.60649">
        <ele>16.674335479736</ele>
        <time>2021-01-12T20:16:07.809Z</time>
      </trkpt>
      <trkpt lat="50.50581" lon="1.60729">
        <ele>22.377683639526</ele>
        <time>2021-01-12T20:16:11.437Z</time>
      </trkpt>
      <trkpt lat="50.50569" lon="1.6076">
        <ele>24.266826629639</ele>
        <time>2021-01-12T20:16:15.069Z</time>
      </trkpt>
      <trkpt lat="50.50567" lon="1.60764">
        <ele>24.385593414307</ele>
        <time>2021-01-12T20:16:18.702Z</time>
      </trkpt>
      <trkpt lat="50.5056" lon="1.60777">
        <ele>24.161600112915</ele>
        <time>2021-01-12T20:16:22.337Z</time>
      </trkpt>
      <trkpt lat="50.50553" lon="1.60791">
        <ele>24.104726791382</ele>
        <time>2021-01-12T20:16:25.974Z</time>
      </trkpt>
      <trkpt lat="50.50552" lon="1.60797">
        <ele>24.151514053345</ele>
        <time>2021-01-12T20:16:29.612Z</time>
      </trkpt>
      <trkpt lat="50.50545" lon="1.60807">
        <ele>24.385448455811</ele>
        <time>2021-01-12T20:16:33.252Z</time>
      </trkpt>
      <trkpt lat="50.50535" lon="1.60814">
        <ele>24.738149642944</ele>
        <time>2021-01-12T20:16:36.894Z</time>
      </trkpt>
      <trkpt lat="50.50533" lon="1.6082">
        <ele>24.584571838379</ele>
        <time>2021-01-12T20:16:40.537Z</time>
      </trkpt>
      <trkpt lat="50.50531" lon="1.60826">
        <ele>24.375829696655</ele>
        <time>2021-01-12T20:16:44.181Z</time>
      </trkpt>
      <trkpt lat="50.50525" lon="1.60835">
        <ele>24.246486663818</ele>
        <time>2021-01-12T20:16:47.827Z</time>
      </trkpt>
      <trkpt lat="50.5051" lon="1.60839">
        <ele>25.364242553711</ele>
        <time>2021-01-12T20:16:51.476Z</time>
      </trkpt>
      <trkpt lat="50.50503" lon="1.60838">
        <ele>25.875301361084</ele>
        <time>2021-01-12T20:16:55.126Z</time>
      </trkpt>
      <trkpt lat="50.50477" lon="1.60855">
        <ele>26.832769393921</ele>
        <time>2021-01-12T20:16:58.782Z</time>
      </trkpt>
      <trkpt lat="50.50466" lon="1.60871">
        <ele>27.719034194946</ele>
        <time>2021-01-12T20:17:02.441Z</time>
      </trkpt>
      <trkpt lat="50.50471" lon="1.60888">
        <ele>27.93137550354</ele>
        <time>2021-01-12T20:17:06.102Z</time>
      </trkpt>
      <trkpt lat="50.50474" lon="1.6089">
        <ele>27.864671707153</ele>
        <time>2021-01-12T20:17:09.764Z</time>
      </trkpt>
      <trkpt lat="50.50475" lon="1.60891">
        <ele>27.853874206543</ele>
        <time>2021-01-12T20:17:13.426Z</time>
      </trkpt>
      <trkpt lat="50.50477" lon="1.60892">
        <ele>27.829170227051</ele>
        <time>2021-01-12T20:17:17.088Z</time>
      </trkpt>
      <trkpt lat="50.50482" lon="1.60897">
        <ele>27.649219512939</ele>
        <time>2021-01-12T20:17:20.752Z</time>
      </trkpt>
      <trkpt lat="50.50486" lon="1.60895">
        <ele>27.501661300659</ele>
        <time>2021-01-12T20:17:24.416Z</time>
      </trkpt>
      <trkpt lat="50.50492" lon="1.60891">
        <ele>27.263637542725</ele>
        <time>2021-01-12T20:17:28.082Z</time>
      </trkpt>
      <trkpt lat="50.50518" lon="1.60902">
        <ele>26.712991714478</ele>
        <time>2021-01-12T20:17:31.753Z</time>
      </trkpt>
      <trkpt lat="50.50536" lon="1.60876">
        <ele>25.423671722412</ele>
        <time>2021-01-12T20:17:35.429Z</time>
      </trkpt>
      <trkpt lat="50.50549" lon="1.60873">
        <ele>25.322898864746</ele>
        <time>2021-01-12T20:17:39.108Z</time>
      </trkpt>
      <trkpt lat="50.50566" lon="1.60899">
        <ele>26.352346420288</ele>
        <time>2021-01-12T20:17:42.791Z</time>
      </trkpt>
      <trkpt lat="50.50575" lon="1.60949">
        <ele>27.226015090942</ele>
        <time>2021-01-12T20:17:46.481Z</time>
      </trkpt>
      <trkpt lat="50.50584" lon="1.60964">
        <ele>26.387447357178</ele>
        <time>2021-01-12T20:17:50.174Z</time>
      </trkpt>
      <trkpt lat="50.50597" lon="1.61042">
        <ele>22.530862808228</ele>
        <time>2021-01-12T20:17:53.877Z</time>
      </trkpt>
      <trkpt lat="50.50603" lon="1.61104">
        <ele>20.072580337524</ele>
        <time>2021-01-12T20:17:57.588Z</time>
      </trkpt>
      <trkpt lat="50.50631" lon="1.61164">
        <ele>18.157300949097</ele>
        <time>2021-01-12T20:18:01.308Z</time>
      </trkpt>
      <trkpt lat="50.50652" lon="1.6124">
        <ele>15</ele>
        <time>2021-01-12T20:18:05.039Z</time>
      </trkpt>
      <trkpt lat="50.50651" lon="1.61271">
        <ele>15.221027374268</ele>
        <time>2021-01-12T20:18:08.774Z</time>
      </trkpt>
      <trkpt lat="50.50647" lon="1.6129">
        <ele>16.030801773071</ele>
        <time>2021-01-12T20:18:12.511Z</time>
      </trkpt>
      <trkpt lat="50.50646" lon="1.61292">
        <ele>16.16396522522</ele>
        <time>2021-01-12T20:18:16.249Z</time>
      </trkpt>
      <trkpt lat="50.50631" lon="1.61302">
        <ele>16.75181388855</ele>
        <time>2021-01-12T20:18:19.990Z</time>
      </trkpt>
      <trkpt lat="50.50624" lon="1.61307">
        <ele>16.920967102051</ele>
        <time>2021-01-12T20:18:23.732Z</time>
      </trkpt>
      <trkpt lat="50.50617" lon="1.61311">
        <ele>17</ele>
        <time>2021-01-12T20:18:27.476Z</time>
      </trkpt>
      <trkpt lat="50.50605" lon="1.61317">
        <ele>16.453496932983</ele>
        <time>2021-01-12T20:18:31.223Z</time>
      </trkpt>
      <trkpt lat="50.50557" lon="1.61333">
        <ele>15.028436660767</ele>
        <time>2021-01-12T20:18:34.979Z</time>
      </trkpt>
      <trkpt lat="50.50552" lon="1.61335">
        <ele>15.053318977356</ele>
        <time>2021-01-12T20:18:38.736Z</time>
      </trkpt>
      <trkpt lat="50.50547" lon="1.61336">
        <ele>15.006531715393</ele>
        <time>2021-01-12T20:18:42.494Z</time>
      </trkpt>
      <trkpt lat="50.50542" lon="1.61338">
        <ele>15</ele>
        <time>2021-01-12T20:18:46.253Z</time>
      </trkpt>
      <trkpt lat="50.50537" lon="1.61341">
        <ele>15</ele>
        <time>2021-01-12T20:18:50.013Z</time>
      </trkpt>
      <trkpt lat="50.50532" lon="1.61344">
        <ele>15</ele>
        <time>2021-01-12T20:18:53.775Z</time>
      </trkpt>
      <trkpt lat="50.50528" lon="1.61347">
        <ele>15</ele>
        <time>2021-01-12T20:18:57.537Z</time>
      </trkpt>
      <trkpt lat="50.50525" lon="1.61351">
        <ele>15.119644165039</ele>
        <time>2021-01-12T20:19:01.300Z</time>
      </trkpt>
      <trkpt lat="50.5052" lon="1.6136">
        <ele>15.281599998474</ele>
        <time>2021-01-12T20:19:05.065Z</time>
      </trkpt>
      <trkpt lat="50.50519" lon="1.61366">
        <ele>15.328386306763</ele>
        <time>2021-01-12T20:19:08.831Z</time>
      </trkpt>
      <trkpt lat="50.50518" lon="1.61373">
        <ele>15.367975234985</ele>
        <time>2021-01-12T20:19:12.597Z</time>
      </trkpt>
      <trkpt lat="50.50518" lon="1.61398">
        <ele>15.560433387756</ele>
        <time>2021-01-12T20:19:16.367Z</time>
      </trkpt>
      <trkpt lat="50.50521" lon="1.61448">
        <ele>16.242010116577</ele>
        <time>2021-01-12T20:19:20.143Z</time>
      </trkpt>
      <trkpt lat="50.50522" lon="1.61489">
        <ele>16.8687915802</ele>
        <time>2021-01-12T20:19:23.924Z</time>
      </trkpt>
      <trkpt lat="50.50522" lon="1.61504">
        <ele>17.227615356445</ele>
        <time>2021-01-12T20:19:27.707Z</time>
      </trkpt>
      <trkpt lat="50.50515" lon="1.6152">
        <ele>17.450752258301</ele>
        <time>2021-01-12T20:19:31.493Z</time>
      </trkpt>
      <trkpt lat="50.50504" lon="1.61527">
        <ele>17.868236541748</ele>
        <time>2021-01-12T20:19:35.281Z</time>
      </trkpt>
      <trkpt lat="50.50499" lon="1.61527">
        <ele>18</ele>
        <time>2021-01-12T20:19:39.070Z</time>
      </trkpt>
      <trkpt lat="50.50495" lon="1.61527">
        <ele>18</ele>
        <time>2021-01-12T20:19:42.860Z</time>
      </trkpt>
      <trkpt lat="50.50491" lon="1.61526">
        <ele>18</ele>
        <time>2021-01-12T20:19:46.651Z</time>
      </trkpt>
      <trkpt lat="50.50487" lon="1.61524">
        <ele>18</ele>
        <time>2021-01-12T20:19:50.443Z</time>
      </trkpt>
      <trkpt lat="50.50478" lon="1.61514">
        <ele>18</ele>
        <time>2021-01-12T20:19:54.237Z</time>
      </trkpt>
      <trkpt lat="50.50473" lon="1.61507">
        <ele>18</ele>
        <time>2021-01-12T20:19:58.032Z</time>
      </trkpt>
      <trkpt lat="50.50465" lon="1.61503">
        <ele>17.713956832886</ele>
        <time>2021-01-12T20:20:01.829Z</time>
      </trkpt>
      <trkpt lat="50.50461" lon="1.61501">
        <ele>17.498016357422</ele>
        <time>2021-01-12T20:20:05.627Z</time>
      </trkpt>
      <trkpt lat="50.5045" lon="1.6149">
        <ele>16.695440292358</ele>
        <time>2021-01-12T20:20:09.427Z</time>
      </trkpt>
      <trkpt lat="50.50446" lon="1.61486">
        <ele>16.41111946106</ele>
        <time>2021-01-12T20:20:13.228Z</time>
      </trkpt>
      <trkpt lat="50.50437" lon="1.61476">
        <ele>15.519721984863</ele>
        <time>2021-01-12T20:20:17.031Z</time>
      </trkpt>
      <trkpt lat="50.50433" lon="1.61474">
        <ele>15.196134567261</ele>
        <time>2021-01-12T20:20:20.835Z</time>
      </trkpt>
      <trkpt lat="50.5043" lon="1.61471">
        <ele>14.965798377991</ele>
        <time>2021-01-12T20:20:24.640Z</time>
      </trkpt>
      <trkpt lat="50.50427" lon="1.61467">
        <ele>14.749857902527</ele>
        <time>2021-01-12T20:20:28.446Z</time>
      </trkpt>
      <trkpt lat="50.50423" lon="1.61463">
        <ele>14.469136238098</ele>
        <time>2021-01-12T20:20:32.253Z</time>
      </trkpt>
      <trkpt lat="50.50415" lon="1.61453">
        <ele>13.950246810913</ele>
        <time>2021-01-12T20:20:36.062Z</time>
      </trkpt>
      <trkpt lat="50.50409" lon="1.61442">
        <ele>13.951091766357</ele>
        <time>2021-01-12T20:20:39.873Z</time>
      </trkpt>
      <trkpt lat="50.50405" lon="1.61429">
        <ele>14</ele>
        <time>2021-01-12T20:20:43.685Z</time>
      </trkpt>
      <trkpt lat="50.50403" lon="1.61425">
        <ele>14</ele>
        <time>2021-01-12T20:20:47.498Z</time>
      </trkpt>
      <trkpt lat="50.50402" lon="1.61422">
        <ele>14</ele>
        <time>2021-01-12T20:20:51.311Z</time>
      </trkpt>
      <trkpt lat="50.50394" lon="1.61407">
        <ele>14</ele>
        <time>2021-01-12T20:20:55.127Z</time>
      </trkpt>
      <trkpt lat="50.5039" lon="1.61397">
        <ele>14</ele>
        <time>2021-01-12T20:20:58.944Z</time>
      </trkpt>
      <trkpt lat="50.50383" lon="1.61369">
        <ele>13.776972770691</ele>
        <time>2021-01-12T20:21:02.765Z</time>
      </trkpt>
      <trkpt lat="50.5039" lon="1.61355">
        <ele>14.025303840637</ele>
        <time>2021-01-12T20:21:06.589Z</time>
      </trkpt>
      <trkpt lat="50.50408" lon="1.61328">
        <ele>14.665925979614</ele>
        <time>2021-01-12T20:21:10.418Z</time>
      </trkpt>
      <trkpt lat="50.50415" lon="1.61309">
        <ele>15.831969261169</ele>
        <time>2021-01-12T20:21:14.249Z</time>
      </trkpt>
      <trkpt lat="50.50412" lon="1.61288">
        <ele>14.900116920471</ele>
        <time>2021-01-12T20:21:18.083Z</time>
      </trkpt>
      <trkpt lat="50.5041" lon="1.61285">
        <ele>14.658983230591</ele>
        <time>2021-01-12T20:21:21.918Z</time>
      </trkpt>
      <trkpt lat="50.50397" lon="1.61246">
        <ele>13.29522895813</ele>
        <time>2021-01-12T20:21:25.758Z</time>
      </trkpt>
      <trkpt lat="50.50398" lon="1.61196">
        <ele>13.668781280518</ele>
        <time>2021-01-12T20:21:29.605Z</time>
      </trkpt>
      <trkpt lat="50.50393" lon="1.61129">
        <ele>14.632924079895</ele>
        <time>2021-01-12T20:21:33.460Z</time>
      </trkpt>
      <trkpt lat="50.5039" lon="1.61114">
        <ele>14.982093811035</ele>
        <time>2021-01-12T20:21:37.317Z</time>
      </trkpt>
      <trkpt lat="50.50387" lon="1.61098">
        <ele>14.269714355469</ele>
        <time>2021-01-12T20:21:41.176Z</time>
      </trkpt>
      <trkpt lat="50.50383" lon="1.61048">
        <ele>13.53235244751</ele>
        <time>2021-01-12T20:21:45.042Z</time>
      </trkpt>
      <trkpt lat="50.50378" lon="1.61017">
        <ele>14.204720497131</ele>
        <time>2021-01-12T20:21:48.912Z</time>
      </trkpt>
      <trkpt lat="50.50377" lon="1.61014">
        <ele>14.370274543762</ele>
        <time>2021-01-12T20:21:52.782Z</time>
      </trkpt>
      <trkpt lat="50.50382" lon="1.6096">
        <ele>19.130674362183</ele>
        <time>2021-01-12T20:21:56.659Z</time>
      </trkpt>
      <trkpt lat="50.50385" lon="1.60957">
        <ele>19.648931503296</ele>
        <time>2021-01-12T20:22:00.537Z</time>
      </trkpt>
      <trkpt lat="50.50382" lon="1.60962">
        <ele>18.979516983032</ele>
        <time>2021-01-12T20:22:04.416Z</time>
      </trkpt>
      <trkpt lat="50.50383" lon="1.60961">
        <ele>19.109081268311</ele>
        <time>2021-01-12T20:22:08.295Z</time>
      </trkpt>
      <trkpt lat="50.50383" lon="1.6096">
        <ele>19.206253051758</ele>
        <time>2021-01-12T20:22:12.174Z</time>
      </trkpt>
      <trkpt lat="50.50386" lon="1.60954">
        <ele>20.113201141357</ele>
        <time>2021-01-12T20:22:16.054Z</time>
      </trkpt>
      <trkpt lat="50.50388" lon="1.60949">
        <ele>20.703437805176</ele>
        <time>2021-01-12T20:22:19.935Z</time>
      </trkpt>
      <trkpt lat="50.50389" lon="1.60946">
        <ele>21.346658706665</ele>
        <time>2021-01-12T20:22:23.816Z</time>
      </trkpt>
      <trkpt lat="50.50393" lon="1.60937">
        <ele>23.279321670532</ele>
        <time>2021-01-12T20:22:27.698Z</time>
      </trkpt>
      <trkpt lat="50.50395" lon="1.60932">
        <ele>24.481388092041</ele>
        <time>2021-01-12T20:22:31.581Z</time>
      </trkpt>
      <trkpt lat="50.50402" lon="1.60922">
        <ele>26.205154418945</ele>
        <time>2021-01-12T20:22:35.466Z</time>
      </trkpt>
      <trkpt lat="50.50412" lon="1.6091">
        <ele>28.101194381714</ele>
        <time>2021-01-12T20:22:39.354Z</time>
      </trkpt>
      <trkpt lat="50.50419" lon="1.60903">
        <ele>28.80299949646</ele>
        <time>2021-01-12T20:22:43.243Z</time>
      </trkpt>
      <trkpt lat="50.50425" lon="1.60895">
        <ele>29.510879516602</ele>
        <time>2021-01-12T20:22:47.134Z</time>
      </trkpt>
      <trkpt lat="50.50425" lon="1.60893">
        <ele>29.622449874878</ele>
        <time>2021-01-12T20:22:51.025Z</time>
      </trkpt>
      <trkpt lat="50.50424" lon="1.60889">
        <ele>29.859495162964</ele>
        <time>2021-01-12T20:22:54.917Z</time>
      </trkpt>
      <trkpt lat="50.50422" lon="1.60888">
        <ele>29.956666946411</ele>
        <time>2021-01-12T20:22:58.809Z</time>
      </trkpt>
      <trkpt lat="50.50421" lon="1.60888">
        <ele>30.017850875854</ele>
        <time>2021-01-12T20:23:02.701Z</time>
      </trkpt>
      <trkpt lat="50.50419" lon="1.60887">
        <ele>30.118621826172</ele>
        <time>2021-01-12T20:23:06.594Z</time>
      </trkpt>
      <trkpt lat="50.50417" lon="1.60886">
        <ele>30.227226257324</ele>
        <time>2021-01-12T20:23:10.487Z</time>
      </trkpt>
      <trkpt lat="50.50411" lon="1.60879">
        <ele>30.46475982666</ele>
        <time>2021-01-12T20:23:14.382Z</time>
      </trkpt>
      <trkpt lat="50.50412" lon="1.60875">
        <ele>30.623115539551</ele>
        <time>2021-01-12T20:23:18.277Z</time>
      </trkpt>
      <trkpt lat="50.50413" lon="1.60872">
        <ele>30.734683990479</ele>
        <time>2021-01-12T20:23:22.173Z</time>
      </trkpt>
      <trkpt lat="50.50414" lon="1.60865">
        <ele>30.954223632812</ele>
        <time>2021-01-12T20:23:26.069Z</time>
      </trkpt>
      <trkpt lat="50.50419" lon="1.60854">
        <ele>30.461471557617</ele>
        <time>2021-01-12T20:23:29.967Z</time>
      </trkpt>
      <trkpt lat="50.50419" lon="1.60846">
        <ele>30.195146560669</ele>
        <time>2021-01-12T20:23:33.866Z</time>
      </trkpt>
      <trkpt lat="50.50421" lon="1.60837">
        <ele>29.684087753296</ele>
        <time>2021-01-12T20:23:37.766Z</time>
      </trkpt>
      <trkpt lat="50.5042" lon="1.60833">
        <ele>29.630102157593</ele>
        <time>2021-01-12T20:23:41.667Z</time>
      </trkpt>
      <trkpt lat="50.50419" lon="1.60831">
        <ele>29.651697158813</ele>
        <time>2021-01-12T20:23:45.568Z</time>
      </trkpt>
      <trkpt lat="50.50415" lon="1.60827">
        <ele>29.792057037354</ele>
        <time>2021-01-12T20:23:49.470Z</time>
      </trkpt>
      <trkpt lat="50.50413" lon="1.60827">
        <ele>29.957611083984</ele>
        <time>2021-01-12T20:23:53.373Z</time>
      </trkpt>
      <trkpt lat="50.50411" lon="1.60827">
        <ele>30.079977035522</ele>
        <time>2021-01-12T20:23:57.276Z</time>
      </trkpt>
      <trkpt lat="50.5041" lon="1.60829">
        <ele>30.213140487671</ele>
        <time>2021-01-12T20:24:01.179Z</time>
      </trkpt>
      <trkpt lat="50.50402" lon="1.60825">
        <ele>30.55001449585</ele>
        <time>2021-01-12T20:24:05.084Z</time>
      </trkpt>
      <trkpt lat="50.50399" lon="1.60824">
        <ele>30.632791519165</ele>
        <time>2021-01-12T20:24:08.990Z</time>
      </trkpt>
      <trkpt lat="50.50385" lon="1.60815">
        <ele>31.136650085449</ele>
        <time>2021-01-12T20:24:12.899Z</time>
      </trkpt>
      <trkpt lat="50.50381" lon="1.60811">
        <ele>31.277011871338</ele>
        <time>2021-01-12T20:24:16.809Z</time>
      </trkpt>
      <trkpt lat="50.50375" lon="1.60804">
        <ele>31.521743774414</ele>
        <time>2021-01-12T20:24:20.720Z</time>
      </trkpt>
      <trkpt lat="50.50372" lon="1.60804">
        <ele>31.62611579895</ele>
        <time>2021-01-12T20:24:24.632Z</time>
      </trkpt>
      <trkpt lat="50.50365" lon="1.60804">
        <ele>31.849252700806</ele>
        <time>2021-01-12T20:24:28.545Z</time>
      </trkpt>
      <trkpt lat="50.50333" lon="1.60791">
        <ele>32.64001083374</ele>
        <time>2021-01-12T20:24:32.465Z</time>
      </trkpt>
      <trkpt lat="50.50279" lon="1.60772">
        <ele>34.646697998047</ele>
        <time>2021-01-12T20:24:36.396Z</time>
      </trkpt>
      <trkpt lat="50.50263" lon="1.60781">
        <ele>34.467948913574</ele>
        <time>2021-01-12T20:24:40.330Z</time>
      </trkpt>
      <trkpt lat="50.50263" lon="1.60789">
        <ele>34.194423675537</ele>
        <time>2021-01-12T20:24:44.265Z</time>
      </trkpt>
      <trkpt lat="50.5026" lon="1.60799">
        <ele>33.668968200684</ele>
        <time>2021-01-12T20:24:48.202Z</time>
      </trkpt>
      <trkpt lat="50.50256" lon="1.60804">
        <ele>33.355857849121</ele>
        <time>2021-01-12T20:24:52.140Z</time>
      </trkpt>
      <trkpt lat="50.50253" lon="1.60805">
        <ele>33.237091064453</ele>
        <time>2021-01-12T20:24:56.078Z</time>
      </trkpt>
      <trkpt lat="50.50232" lon="1.60828">
        <ele>32</ele>
        <time>2021-01-12T20:25:00.021Z</time>
      </trkpt>
      <trkpt lat="50.50184" lon="1.60785">
        <ele>32.847820281982</ele>
        <time>2021-01-12T20:25:03.975Z</time>
      </trkpt>
      <trkpt lat="50.50167" lon="1.60773">
        <ele>33.297695159912</ele>
        <time>2021-01-12T20:25:07.933Z</time>
      </trkpt>
      <trkpt lat="50.50159" lon="1.60774">
        <ele>32.948123931885</ele>
        <time>2021-01-12T20:25:11.893Z</time>
      </trkpt>
      <trkpt lat="50.50151" lon="1.60772">
        <ele>32.757377624512</ele>
        <time>2021-01-12T20:25:15.854Z</time>
      </trkpt>
      <trkpt lat="50.50147" lon="1.60776">
        <ele>32.462261199951</ele>
        <time>2021-01-12T20:25:19.816Z</time>
      </trkpt>
      <trkpt lat="50.50147" lon="1.60788">
        <ele>32.026782989502</ele>
        <time>2021-01-12T20:25:23.780Z</time>
      </trkpt>
      <trkpt lat="50.50143" lon="1.60793">
        <ele>31.702871322632</ele>
        <time>2021-01-12T20:25:27.745Z</time>
      </trkpt>
      <trkpt lat="50.50139" lon="1.60796">
        <ele>31.468936920166</ele>
        <time>2021-01-12T20:25:31.711Z</time>
      </trkpt>
      <trkpt lat="50.50128" lon="1.60777">
        <ele>31.713668823242</ele>
        <time>2021-01-12T20:25:35.680Z</time>
      </trkpt>
      <trkpt lat="50.50118" lon="1.60771">
        <ele>31.605697631836</ele>
        <time>2021-01-12T20:25:39.651Z</time>
      </trkpt>
      <trkpt lat="50.50115" lon="1.60761">
        <ele>31.872024536133</ele>
        <time>2021-01-12T20:25:43.624Z</time>
      </trkpt>
      <trkpt lat="50.50115" lon="1.60749">
        <ele>32.135250091553</ele>
        <time>2021-01-12T20:25:47.598Z</time>
      </trkpt>
      <trkpt lat="50.50117" lon="1.60735">
        <ele>32.196434020996</ele>
        <time>2021-01-12T20:25:51.574Z</time>
      </trkpt>
      <trkpt lat="50.50114" lon="1.60723">
        <ele>32.092063903809</ele>
        <time>2021-01-12T20:25:55.552Z</time>
      </trkpt>
      <trkpt lat="50.50084" lon="1.60702">
        <ele>31.872547149658</ele>
        <time>2021-01-12T20:25:59.536Z</time>
      </trkpt>
      <trkpt lat="50.50075" lon="1.60618">
        <ele>30.486364364624</ele>
        <time>2021-01-12T20:26:03.531Z</time>
      </trkpt>
      <trkpt lat="50.50073" lon="1.60609">
        <ele>29.883220672607</ele>
        <time>2021-01-12T20:26:07.527Z</time>
      </trkpt>
      <trkpt lat="50.50065" lon="1.60591">
        <ele>28.220560073853</ele>
        <time>2021-01-12T20:26:11.526Z</time>
      </trkpt>
      <trkpt lat="50.5006" lon="1.6059">
        <ele>27.58713722229</ele>
        <time>2021-01-12T20:26:15.526Z</time>
      </trkpt>
      <trkpt lat="50.50055" lon="1.60598">
        <ele>27.733106613159</ele>
        <time>2021-01-12T20:26:19.527Z</time>
      </trkpt>
      <trkpt lat="50.50051" lon="1.60626">
        <ele>28.775329589844</ele>
        <time>2021-01-12T20:26:23.532Z</time>
      </trkpt>
      <trkpt lat="50.50047" lon="1.60655">
        <ele>28.823703765869</ele>
        <time>2021-01-12T20:26:27.541Z</time>
      </trkpt>
      <trkpt lat="50.50046" lon="1.60688">
        <ele>27.975406646729</ele>
        <time>2021-01-12T20:26:31.554Z</time>
      </trkpt>
      <trkpt lat="50.50065" lon="1.60748">
        <ele>28.759489059448</ele>
        <time>2021-01-12T20:26:35.576Z</time>
      </trkpt>
      <trkpt lat="50.50073" lon="1.60767">
        <ele>28.993923187256</ele>
        <time>2021-01-12T20:26:39.601Z</time>
      </trkpt>
      <trkpt lat="50.50073" lon="1.60776">
        <ele>28.695207595825</ele>
        <time>2021-01-12T20:26:43.627Z</time>
      </trkpt>
      <trkpt lat="50.50087" lon="1.60817">
        <ele>28.632946014404</ele>
        <time>2021-01-12T20:26:47.659Z</time>
      </trkpt>
      <trkpt lat="50.50087" lon="1.60831">
        <ele>27.675611495972</ele>
        <time>2021-01-12T20:26:51.692Z</time>
      </trkpt>
      <trkpt lat="50.50096" lon="1.60869">
        <ele>25.738338470459</ele>
        <time>2021-01-12T20:26:55.731Z</time>
      </trkpt>
      <trkpt lat="50.501" lon="1.60914">
        <ele>24.410308837891</ele>
        <time>2021-01-12T20:26:59.775Z</time>
      </trkpt>
      <trkpt lat="50.50109" lon="1.60909">
        <ele>25.216484069824</ele>
        <time>2021-01-12T20:27:03.821Z</time>
      </trkpt>
      <trkpt lat="50.50143" lon="1.60926">
        <ele>28.541505813599</ele>
        <time>2021-01-12T20:27:07.874Z</time>
      </trkpt>
      <trkpt lat="50.50164" lon="1.60921">
        <ele>30.750268936157</ele>
        <time>2021-01-12T20:27:11.932Z</time>
      </trkpt>
      <trkpt lat="50.50193" lon="1.609">
        <ele>31.633445739746</ele>
        <time>2021-01-12T20:27:15.996Z</time>
      </trkpt>
      <trkpt lat="50.50208" lon="1.60888">
        <ele>31.006565093994</ele>
        <time>2021-01-12T20:27:20.063Z</time>
      </trkpt>
      <trkpt lat="50.50262" lon="1.60871">
        <ele>30.29043006897</ele>
        <time>2021-01-12T20:27:24.141Z</time>
      </trkpt>
      <trkpt lat="50.50295" lon="1.60866">
        <ele>30.787092208862</ele>
        <time>2021-01-12T20:27:28.226Z</time>
      </trkpt>
      <trkpt lat="50.503" lon="1.60877">
        <ele>29.664203643799</ele>
        <time>2021-01-12T20:27:32.313Z</time>
      </trkpt>
      <trkpt lat="50.50301" lon="1.60886">
        <ele>28.638488769531</ele>
        <time>2021-01-12T20:27:36.401Z</time>
      </trkpt>
      <trkpt lat="50.50303" lon="1.60913">
        <ele>24.295473098755</ele>
        <time>2021-01-12T20:27:40.492Z</time>
      </trkpt>
      <trkpt lat="50.503" lon="1.60918">
        <ele>23.447597503662</ele>
        <time>2021-01-12T20:27:44.584Z</time>
      </trkpt>
      <trkpt lat="50.50277" lon="1.60937">
        <ele>21.540126800537</ele>
        <time>2021-01-12T20:27:48.682Z</time>
      </trkpt>
      <trkpt lat="50.50276" lon="1.60938">
        <ele>21.460948944092</ele>
        <time>2021-01-12T20:27:52.780Z</time>
      </trkpt>
      <trkpt lat="50.50263" lon="1.60951">
        <ele>20.794624328613</ele>
        <time>2021-01-12T20:27:56.881Z</time>
      </trkpt>
      <trkpt lat="50.50261" lon="1.60955">
        <ele>20.657861709595</ele>
        <time>2021-01-12T20:28:00.982Z</time>
      </trkpt>
      <trkpt lat="50.50257" lon="1.60998">
        <ele>17.154056549072</ele>
        <time>2021-01-12T20:28:05.089Z</time>
      </trkpt>
      <trkpt lat="50.50251" lon="1.61061">
        <ele>15.881088256836</ele>
        <time>2021-01-12T20:28:09.204Z</time>
      </trkpt>
      <trkpt lat="50.50245" lon="1.61091">
        <ele>15.432613372803</ele>
        <time>2021-01-12T20:28:13.323Z</time>
      </trkpt>
      <trkpt lat="50.50239" lon="1.61107">
        <ele>15.468603134155</ele>
        <time>2021-01-12T20:28:17.445Z</time>
      </trkpt>
      <trkpt lat="50.50239" lon="1.61129">
        <ele>14.648031234741</ele>
        <time>2021-01-12T20:28:21.569Z</time>
      </trkpt>
      <trkpt lat="50.50241" lon="1.61144">
        <ele>13.924632072449</ele>
        <time>2021-01-12T20:28:25.695Z</time>
      </trkpt>
      <trkpt lat="50.50245" lon="1.61175">
        <ele>12.921677589417</ele>
        <time>2021-01-12T20:28:29.825Z</time>
      </trkpt>
      <trkpt lat="50.50246" lon="1.61183">
        <ele>13.044043540955</ele>
        <time>2021-01-12T20:28:33.956Z</time>
      </trkpt>
      <trkpt lat="50.50246" lon="1.6119">
        <ele>13.252785682678</ele>
        <time>2021-01-12T20:28:38.088Z</time>
      </trkpt>
      <trkpt lat="50.50246" lon="1.61196">
        <ele>13.58029460907</ele>
        <time>2021-01-12T20:28:42.221Z</time>
      </trkpt>
      <trkpt lat="50.50241" lon="1.61213">
        <ele>14.377616882324</ele>
        <time>2021-01-12T20:28:46.356Z</time>
      </trkpt>
      <trkpt lat="50.5024" lon="1.61219">
        <ele>14.507181167603</ele>
        <time>2021-01-12T20:28:50.492Z</time>
      </trkpt>
      <trkpt lat="50.50239" lon="1.61225">
        <ele>14.550369262695</ele>
        <time>2021-01-12T20:28:54.629Z</time>
      </trkpt>
      <trkpt lat="50.50238" lon="1.61231">
        <ele>15.202544212341</ele>
        <time>2021-01-12T20:28:58.767Z</time>
      </trkpt>
      <trkpt lat="50.50236" lon="1.61238">
        <ele>15.972729682922</ele>
        <time>2021-01-12T20:29:02.906Z</time>
      </trkpt>
      <trkpt lat="50.50229" lon="1.61257">
        <ele>16.63444519043</ele>
        <time>2021-01-12T20:29:07.048Z</time>
      </trkpt>
      <trkpt lat="50.50222" lon="1.61342">
        <ele>20.247264862061</ele>
        <time>2021-01-12T20:29:11.201Z</time>
      </trkpt>
      <trkpt lat="50.50222" lon="1.61364">
        <ele>21.021049499512</ele>
        <time>2021-01-12T20:29:15.356Z</time>
      </trkpt>
      <trkpt lat="50.50181" lon="1.61417">
        <ele>25.503805160522</ele>
        <time>2021-01-12T20:29:19.522Z</time>
      </trkpt>
      <trkpt lat="50.50165" lon="1.61443">
        <ele>25.231647491455</ele>
        <time>2021-01-12T20:29:23.693Z</time>
      </trkpt>
      <trkpt lat="50.50156" lon="1.61465">
        <ele>23.778028488159</ele>
        <time>2021-01-12T20:29:27.867Z</time>
      </trkpt>
      <trkpt lat="50.50154" lon="1.61474">
        <ele>23.108613967896</ele>
        <time>2021-01-12T20:29:32.042Z</time>
      </trkpt>
      <trkpt lat="50.5014" lon="1.6149">
        <ele>21.949735641479</ele>
        <time>2021-01-12T20:29:36.221Z</time>
      </trkpt>
      <trkpt lat="50.5013" lon="1.61515">
        <ele>20.792835235596</ele>
        <time>2021-01-12T20:29:40.404Z</time>
      </trkpt>
      <trkpt lat="50.50106" lon="1.61538">
        <ele>20.929597854614</ele>
        <time>2021-01-12T20:29:44.592Z</time>
      </trkpt>
      <trkpt lat="50.5011" lon="1.61513">
        <ele>22.397989273071</ele>
        <time>2021-01-12T20:29:48.784Z</time>
      </trkpt>
      <trkpt lat="50.50117" lon="1.61489">
        <ele>23.121587753296</ele>
        <time>2021-01-12T20:29:52.979Z</time>
      </trkpt>
      <trkpt lat="50.5014" lon="1.61426">
        <ele>26.556455612183</ele>
        <time>2021-01-12T20:29:57.183Z</time>
      </trkpt>
      <trkpt lat="50.50154" lon="1.61383">
        <ele>26.138938903809</ele>
        <time>2021-01-12T20:30:01.393Z</time>
      </trkpt>
      <trkpt lat="50.50136" lon="1.61385">
        <ele>26.753379821777</ele>
        <time>2021-01-12T20:30:05.607Z</time>
      </trkpt>
      <trkpt lat="50.50134" lon="1.61396">
        <ele>26.837057113647</ele>
        <time>2021-01-12T20:30:09.822Z</time>
      </trkpt>
      <trkpt lat="50.50113" lon="1.61419">
        <ele>26.977039337158</ele>
        <time>2021-01-12T20:30:14.043Z</time>
      </trkpt>
      <trkpt lat="50.50108" lon="1.61425">
        <ele>26.920099258423</ele>
        <time>2021-01-12T20:30:18.265Z</time>
      </trkpt>
      <trkpt lat="50.50104" lon="1.61428">
        <ele>26.970485687256</ele>
        <time>2021-01-12T20:30:22.488Z</time>
      </trkpt>
      <trkpt lat="50.50098" lon="1.61427">
        <ele>27.2008228302</ele>
        <time>2021-01-12T20:30:26.712Z</time>
      </trkpt>
      <trkpt lat="50.50096" lon="1.61424">
        <ele>27.413162231445</ele>
        <time>2021-01-12T20:30:30.936Z</time>
      </trkpt>
      <trkpt lat="50.50094" lon="1.61415">
        <ele>27.609741210938</ele>
        <time>2021-01-12T20:30:35.162Z</time>
      </trkpt>
      <trkpt lat="50.50091" lon="1.61405">
        <ele>27.732107162476</ele>
        <time>2021-01-12T20:30:39.389Z</time>
      </trkpt>
      <trkpt lat="50.50057" lon="1.61391">
        <ele>29.84126663208</ele>
        <time>2021-01-12T20:30:43.623Z</time>
      </trkpt>
      <trkpt lat="50.50056" lon="1.61392">
        <ele>29.98882484436</ele>
        <time>2021-01-12T20:30:47.857Z</time>
      </trkpt>
      <trkpt lat="50.50054" lon="1.61393">
        <ele>30.134674072266</ele>
        <time>2021-01-12T20:30:52.092Z</time>
      </trkpt>
      <trkpt lat="50.50052" lon="1.61392">
        <ele>30.278633117676</ele>
        <time>2021-01-12T20:30:56.327Z</time>
      </trkpt>
      <trkpt lat="50.5005" lon="1.61391">
        <ele>30.373918533325</ele>
        <time>2021-01-12T20:31:00.563Z</time>
      </trkpt>
      <trkpt lat="50.50035" lon="1.61374">
        <ele>30.830991744995</ele>
        <time>2021-01-12T20:31:04.802Z</time>
      </trkpt>
      <trkpt lat="50.5003" lon="1.61362">
        <ele>30.798601150513</ele>
        <time>2021-01-12T20:31:09.043Z</time>
      </trkpt>
      <trkpt lat="50.49987" lon="1.61328">
        <ele>31.698350906372</ele>
        <time>2021-01-12T20:31:13.294Z</time>
      </trkpt>
      <trkpt lat="50.49956" lon="1.61315">
        <ele>31.226881027222</ele>
        <time>2021-01-12T20:31:17.551Z</time>
      </trkpt>
      <trkpt lat="50.49949" lon="1.61317">
        <ele>31.302459716797</ele>
        <time>2021-01-12T20:31:21.809Z</time>
      </trkpt>
      <trkpt lat="50.49946" lon="1.61326">
        <ele>31.629968643188</ele>
        <time>2021-01-12T20:31:26.069Z</time>
      </trkpt>
      <trkpt lat="50.49952" lon="1.61343">
        <ele>32.227401733398</ele>
        <time>2021-01-12T20:31:30.331Z</time>
      </trkpt>
      <trkpt lat="50.49957" lon="1.61358">
        <ele>32.459629058838</ele>
        <time>2021-01-12T20:31:34.595Z</time>
      </trkpt>
      <trkpt lat="50.49961" lon="1.61387">
        <ele>32.832557678223</ele>
        <time>2021-01-12T20:31:38.863Z</time>
      </trkpt>
      <trkpt lat="50.49958" lon="1.61399">
        <ele>33</ele>
        <time>2021-01-12T20:31:43.133Z</time>
      </trkpt>
      <trkpt lat="50.49955" lon="1.61397">
        <ele>33</ele>
        <time>2021-01-12T20:31:47.403Z</time>
      </trkpt>
      <trkpt lat="50.49955" lon="1.61388">
        <ele>32.868549346924</ele>
        <time>2021-01-12T20:31:51.675Z</time>
      </trkpt>
      <trkpt lat="50.49954" lon="1.61386">
        <ele>32.764175415039</ele>
        <time>2021-01-12T20:31:55.947Z</time>
      </trkpt>
      <trkpt lat="50.4995" lon="1.61383">
        <ele>32.681400299072</ele>
        <time>2021-01-12T20:32:00.220Z</time>
      </trkpt>
      <trkpt lat="50.49945" lon="1.61383">
        <ele>32.65620803833</ele>
        <time>2021-01-12T20:32:04.494Z</time>
      </trkpt>
      <trkpt lat="50.49929" lon="1.61343">
        <ele>31.433912277222</ele>
        <time>2021-01-12T20:32:08.774Z</time>
      </trkpt>
      <trkpt lat="50.49909" lon="1.61323">
        <ele>30.239711761475</ele>
        <time>2021-01-12T20:32:13.058Z</time>
      </trkpt>
      <trkpt lat="50.49899" lon="1.61319">
        <ele>29.717855453491</ele>
        <time>2021-01-12T20:32:17.345Z</time>
      </trkpt>
      <trkpt lat="50.49875" lon="1.61315">
        <ele>28.189792633057</ele>
        <time>2021-01-12T20:32:21.636Z</time>
      </trkpt>
      <trkpt lat="50.49859" lon="1.61327">
        <ele>26.865215301514</ele>
        <time>2021-01-12T20:32:25.931Z</time>
      </trkpt>
      <trkpt lat="50.49869" lon="1.6136">
        <ele>27.592212677002</ele>
        <time>2021-01-12T20:32:30.231Z</time>
      </trkpt>
      <trkpt lat="50.49873" lon="1.61364">
        <ele>27.822549819946</ele>
        <time>2021-01-12T20:32:34.531Z</time>
      </trkpt>
      <trkpt lat="50.49882" lon="1.61392">
        <ele>28.243432998657</ele>
        <time>2021-01-12T20:32:38.835Z</time>
      </trkpt>
      <trkpt lat="50.49886" lon="1.61404">
        <ele>28.723810195923</ele>
        <time>2021-01-12T20:32:43.141Z</time>
      </trkpt>
      <trkpt lat="50.49888" lon="1.61409">
        <ele>28.928953170776</ele>
        <time>2021-01-12T20:32:47.448Z</time>
      </trkpt>
      <trkpt lat="50.49888" lon="1.61418">
        <ele>28.896562576294</ele>
        <time>2021-01-12T20:32:51.756Z</time>
      </trkpt>
      <trkpt lat="50.49886" lon="1.61421">
        <ele>28.589925765991</ele>
        <time>2021-01-12T20:32:56.065Z</time>
      </trkpt>
      <trkpt lat="50.49881" lon="1.61427">
        <ele>27.64698600769</ele>
        <time>2021-01-12T20:33:00.375Z</time>
      </trkpt>
      <trkpt lat="50.4988" lon="1.61433">
        <ele>27.294284820557</ele>
        <time>2021-01-12T20:33:04.686Z</time>
      </trkpt>
      <trkpt lat="50.49889" lon="1.61473">
        <ele>27.104116439819</ele>
        <time>2021-01-12T20:33:09.002Z</time>
      </trkpt>
      <trkpt lat="50.49891" lon="1.6148">
        <ele>26.771818161011</ele>
        <time>2021-01-12T20:33:13.319Z</time>
      </trkpt>
      <trkpt lat="50.49899" lon="1.61507">
        <ele>24.968519210815</ele>
        <time>2021-01-12T20:33:17.640Z</time>
      </trkpt>
      <trkpt lat="50.4992" lon="1.61543">
        <ele>22.244798660278</ele>
        <time>2021-01-12T20:33:21.967Z</time>
      </trkpt>
      <trkpt lat="50.49929" lon="1.61551">
        <ele>22.003665924072</ele>
        <time>2021-01-12T20:33:26.296Z</time>
      </trkpt>
      <trkpt lat="50.49939" lon="1.61561">
        <ele>21.679756164551</ele>
        <time>2021-01-12T20:33:30.628Z</time>
      </trkpt>
      <trkpt lat="50.49955" lon="1.61574">
        <ele>20.88182258606</ele>
        <time>2021-01-12T20:33:34.963Z</time>
      </trkpt>
      <trkpt lat="50.49966" lon="1.61577">
        <ele>20.680276870728</ele>
        <time>2021-01-12T20:33:39.300Z</time>
      </trkpt>
      <trkpt lat="50.50006" lon="1.6163">
        <ele>14.971996307373</ele>
        <time>2021-01-12T20:33:43.648Z</time>
      </trkpt>
      <trkpt lat="50.50013" lon="1.61643">
        <ele>14.042665481567</ele>
        <time>2021-01-12T20:33:47.998Z</time>
      </trkpt>
      <trkpt lat="50.50044" lon="1.61684">
        <ele>12.923632621765</ele>
        <time>2021-01-12T20:33:52.356Z</time>
      </trkpt>
      <trkpt lat="50.50045" lon="1.61694">
        <ele>13</ele>
        <time>2021-01-12T20:33:56.715Z</time>
      </trkpt>
      <trkpt lat="50.50042" lon="1.61698">
        <ele>13.02210521698</ele>
        <time>2021-01-12T20:34:01.075Z</time>
      </trkpt>
      <trkpt lat="50.50014" lon="1.61704">
        <ele>14.666059494019</ele>
        <time>2021-01-12T20:34:05.441Z</time>
      </trkpt>
      <trkpt lat="50.49964" lon="1.61732">
        <ele>19.060705184937</ele>
        <time>2021-01-12T20:34:09.817Z</time>
      </trkpt>
      <trkpt lat="50.49949" lon="1.61739">
        <ele>20.325731277466</ele>
        <time>2021-01-12T20:34:14.197Z</time>
      </trkpt>
      <trkpt lat="50.49921" lon="1.61749">
        <ele>21.547092437744</ele>
        <time>2021-01-12T20:34:18.582Z</time>
      </trkpt>
      <trkpt lat="50.49903" lon="1.6175">
        <ele>22</ele>
        <time>2021-01-12T20:34:22.971Z</time>
      </trkpt>
      <trkpt lat="50.49887" lon="1.6173">
        <ele>21.873456954956</ele>
        <time>2021-01-12T20:34:27.364Z</time>
      </trkpt>
      <trkpt lat="50.49889" lon="1.61723">
        <ele>21.922176361084</ele>
        <time>2021-01-12T20:34:31.758Z</time>
      </trkpt>
      <trkpt lat="50.49896" lon="1.61681">
        <ele>19.874345779419</ele>
        <time>2021-01-12T20:34:36.158Z</time>
      </trkpt>
      <trkpt lat="50.49871" lon="1.61679">
        <ele>20.966354370117</ele>
        <time>2021-01-12T20:34:40.563Z</time>
      </trkpt>
      <trkpt lat="50.49864" lon="1.61675">
        <ele>20.922077178955</ele>
        <time>2021-01-12T20:34:44.969Z</time>
      </trkpt>
      <trkpt lat="50.49855" lon="1.61671">
        <ele>20.724132537842</ele>
        <time>2021-01-12T20:34:49.377Z</time>
      </trkpt>
      <trkpt lat="50.49851" lon="1.61667">
        <ele>20.742126464844</ele>
        <time>2021-01-12T20:34:53.786Z</time>
      </trkpt>
      <trkpt lat="50.49835" lon="1.61585">
        <ele>23</ele>
        <time>2021-01-12T20:34:58.206Z</time>
      </trkpt>
      <trkpt lat="50.49835" lon="1.61581">
        <ele>23</ele>
        <time>2021-01-12T20:35:02.626Z</time>
      </trkpt>
      <trkpt lat="50.49823" lon="1.61541">
        <ele>21.889308929443</ele>
        <time>2021-01-12T20:35:07.052Z</time>
      </trkpt>
      <trkpt lat="50.498" lon="1.61467">
        <ele>20.903038024902</ele>
        <time>2021-01-12T20:35:11.489Z</time>
      </trkpt>
      <trkpt lat="50.49797" lon="1.61422">
        <ele>22.321044921875</ele>
        <time>2021-01-12T20:35:15.931Z</time>
      </trkpt>
      <trkpt lat="50.49796" lon="1.61371">
        <ele>22.661638259888</ele>
        <time>2021-01-12T20:35:20.380Z</time>
      </trkpt>
      <trkpt lat="50.4979" lon="1.61364">
        <ele>22.431303024292</ele>
        <time>2021-01-12T20:35:24.830Z</time>
      </trkpt>
      <trkpt lat="50.4976" lon="1.61364">
        <ele>22</ele>
        <time>2021-01-12T20:35:29.286Z</time>
      </trkpt>
      <trkpt lat="50.49727" lon="1.61328">
        <ele>21.156734466553</ele>
        <time>2021-01-12T20:35:33.751Z</time>
      </trkpt>
      <trkpt lat="50.49726" lon="1.61313">
        <ele>21.151302337646</ele>
        <time>2021-01-12T20:35:38.217Z</time>
      </trkpt>
      <trkpt lat="50.49726" lon="1.61303">
        <ele>21.190603256226</ele>
        <time>2021-01-12T20:35:42.685Z</time>
      </trkpt>
      <trkpt lat="50.49741" lon="1.61309">
        <ele>21.010940551758</ele>
        <time>2021-01-12T20:35:47.156Z</time>
      </trkpt>
      <trkpt lat="50.49745" lon="1.61305">
        <ele>21.122220993042</ele>
        <time>2021-01-12T20:35:51.628Z</time>
      </trkpt>
      <trkpt lat="50.49744" lon="1.61299">
        <ele>21.113912582397</ele>
        <time>2021-01-12T20:35:56.100Z</time>
      </trkpt>
      <trkpt lat="50.4974" lon="1.61291">
        <ele>21.056329727173</ele>
        <time>2021-01-12T20:36:00.574Z</time>
      </trkpt>
      <trkpt lat="50.49732" lon="1.61273">
        <ele>20.977149963379</ele>
        <time>2021-01-12T20:36:05.050Z</time>
      </trkpt>
      <trkpt lat="50.49722" lon="1.61261">
        <ele>21.275867462158</ele>
        <time>2021-01-12T20:36:09.529Z</time>
      </trkpt>
      <trkpt lat="50.49713" lon="1.61242">
        <ele>21</ele>
        <time>2021-01-12T20:36:14.011Z</time>
      </trkpt>
      <trkpt lat="50.49707" lon="1.61237">
        <ele>21</ele>
        <time>2021-01-12T20:36:18.494Z</time>
      </trkpt>
      <trkpt lat="50.49704" lon="1.6123">
        <ele>21</ele>
        <time>2021-01-12T20:36:22.978Z</time>
      </trkpt>
      <trkpt lat="50.49705" lon="1.61217">
        <ele>20.7106590271</ele>
        <time>2021-01-12T20:36:27.464Z</time>
      </trkpt>
      <trkpt lat="50.49703" lon="1.61159">
        <ele>19.692630767822</ele>
        <time>2021-01-12T20:36:31.957Z</time>
      </trkpt>
      <trkpt lat="50.49702" lon="1.61121">
        <ele>19.684064865112</ele>
        <time>2021-01-12T20:36:36.455Z</time>
      </trkpt>
      <trkpt lat="50.49703" lon="1.61103">
        <ele>19.399656295776</ele>
        <time>2021-01-12T20:36:40.956Z</time>
      </trkpt>
      <trkpt lat="50.49699" lon="1.61094">
        <ele>19.644388198853</ele>
        <time>2021-01-12T20:36:45.458Z</time>
      </trkpt>
      <trkpt lat="50.49687" lon="1.6108">
        <ele>20</ele>
        <time>2021-01-12T20:36:49.963Z</time>
      </trkpt>
      <trkpt lat="50.49683" lon="1.6108">
        <ele>20</ele>
        <time>2021-01-12T20:36:54.469Z</time>
      </trkpt>
      <trkpt lat="50.49675" lon="1.61083">
        <ele>20</ele>
        <time>2021-01-12T20:36:58.977Z</time>
      </trkpt>
      <trkpt lat="50.49671" lon="1.61089">
        <ele>20</ele>
        <time>2021-01-12T20:37:03.486Z</time>
      </trkpt>
      <trkpt lat="50.49667" lon="1.61094">
        <ele>20</ele>
        <time>2021-01-12T20:37:07.996Z</time>
      </trkpt>
      <trkpt lat="50.49664" lon="1.61096">
        <ele>20</ele>
        <time>2021-01-12T20:37:12.506Z</time>
      </trkpt>
      <trkpt lat="50.49659" lon="1.61099">
        <ele>20</ele>
        <time>2021-01-12T20:37:17.017Z</time>
      </trkpt>
      <trkpt lat="50.49639" lon="1.61121">
        <ele>18.758777618408</ele>
        <time>2021-01-12T20:37:21.533Z</time>
      </trkpt>
      <trkpt lat="50.49604" lon="1.61142">
        <ele>17.261615753174</ele>
        <time>2021-01-12T20:37:26.057Z</time>
      </trkpt>
      <trkpt lat="50.4959" lon="1.61151">
        <ele>17.386947631836</ele>
        <time>2021-01-12T20:37:30.584Z</time>
      </trkpt>
      <trkpt lat="50.49537" lon="1.61164">
        <ele>18.110980987549</ele>
        <time>2021-01-12T20:37:35.121Z</time>
      </trkpt>
      <trkpt lat="50.49529" lon="1.61164">
        <ele>18.41689491272</ele>
        <time>2021-01-12T20:37:39.660Z</time>
      </trkpt>
      <trkpt lat="50.49516" lon="1.61159">
        <ele>18.380361557007</ele>
        <time>2021-01-12T20:37:44.202Z</time>
      </trkpt>
      <trkpt lat="50.49509" lon="1.61141">
        <ele>19.314512252808</ele>
        <time>2021-01-12T20:37:48.747Z</time>
      </trkpt>
      <trkpt lat="50.49497" lon="1.61115">
        <ele>18.889831542969</ele>
        <time>2021-01-12T20:37:53.296Z</time>
      </trkpt>
      <trkpt lat="50.49471" lon="1.61066">
        <ele>18.667125701904</ele>
        <time>2021-01-12T20:37:57.853Z</time>
      </trkpt>
      <trkpt lat="50.4943" lon="1.61012">
        <ele>18.170986175537</ele>
        <time>2021-01-12T20:38:02.420Z</time>
      </trkpt>
      <trkpt lat="50.49422" lon="1.60986">
        <ele>17.569553375244</ele>
        <time>2021-01-12T20:38:06.991Z</time>
      </trkpt>
      <trkpt lat="50.49417" lon="1.60974">
        <ele>16.979316711426</ele>
        <time>2021-01-12T20:38:11.564Z</time>
      </trkpt>
      <trkpt lat="50.49412" lon="1.60964">
        <ele>16.421472549438</ele>
        <time>2021-01-12T20:38:16.139Z</time>
      </trkpt>
      <trkpt lat="50.49382" lon="1.60927">
        <ele>15.013418197632</ele>
        <time>2021-01-12T20:38:20.721Z</time>
      </trkpt>
      <trkpt lat="50.49355" lon="1.60851">
        <ele>15.619061470032</ele>
        <time>2021-01-12T20:38:25.314Z</time>
      </trkpt>
      <trkpt lat="50.49327" lon="1.60852">
        <ele>19.013252258301</ele>
        <time>2021-01-12T20:38:29.913Z</time>
      </trkpt>
      <trkpt lat="50.49323" lon="1.60856">
        <ele>19.44153213501</ele>
        <time>2021-01-12T20:38:34.513Z</time>
      </trkpt>
      <trkpt lat="50.49322" lon="1.60883">
        <ele>20.404821395874</ele>
        <time>2021-01-12T20:38:39.116Z</time>
      </trkpt>
      <trkpt lat="50.49329" lon="1.60915">
        <ele>20.152891159058</ele>
        <time>2021-01-12T20:38:43.724Z</time>
      </trkpt>
      <trkpt lat="50.49333" lon="1.60944">
        <ele>20.868991851807</ele>
        <time>2021-01-12T20:38:48.336Z</time>
      </trkpt>
      <trkpt lat="50.49335" lon="1.60948">
        <ele>20.768218994141</ele>
        <time>2021-01-12T20:38:52.948Z</time>
      </trkpt>
      <trkpt lat="50.49358" lon="1.60993">
        <ele>20.78490447998</ele>
        <time>2021-01-12T20:38:57.567Z</time>
      </trkpt>
      <trkpt lat="50.49371" lon="1.61035">
        <ele>20.385515213013</ele>
        <time>2021-01-12T20:39:02.192Z</time>
      </trkpt>
      <trkpt lat="50.49375" lon="1.61033">
        <ele>20.101194381714</ele>
        <time>2021-01-12T20:39:06.818Z</time>
      </trkpt>
      <trkpt lat="50.49384" lon="1.61029">
        <ele>19.361276626587</ele>
        <time>2021-01-12T20:39:11.446Z</time>
      </trkpt>
      <trkpt lat="50.49394" lon="1.61027">
        <ele>18.653707504272</ele>
        <time>2021-01-12T20:39:16.076Z</time>
      </trkpt>
      <trkpt lat="50.49403" lon="1.61032">
        <ele>18.486032485962</ele>
        <time>2021-01-12T20:39:20.708Z</time>
      </trkpt>
      <trkpt lat="50.49409" lon="1.61044">
        <ele>18.273691177368</ele>
        <time>2021-01-12T20:39:25.342Z</time>
      </trkpt>
      <trkpt lat="50.49411" lon="1.61058">
        <ele>18.37727355957</ele>
        <time>2021-01-12T20:39:29.978Z</time>
      </trkpt>
      <trkpt lat="50.49416" lon="1.61094">
        <ele>18.873756408691</ele>
        <time>2021-01-12T20:39:34.618Z</time>
      </trkpt>
      <trkpt lat="50.49407" lon="1.61114">
        <ele>21.313367843628</ele>
        <time>2021-01-12T20:39:39.262Z</time>
      </trkpt>
      <trkpt lat="50.49404" lon="1.6112">
        <ele>22.018949508667</ele>
        <time>2021-01-12T20:39:43.907Z</time>
      </trkpt>
      <trkpt lat="50.49405" lon="1.61131">
        <ele>23.249809265137</ele>
        <time>2021-01-12T20:39:48.553Z</time>
      </trkpt>
      <trkpt lat="50.49411" lon="1.61134">
        <ele>23.321788787842</ele>
        <time>2021-01-12T20:39:53.200Z</time>
      </trkpt>
      <trkpt lat="50.49415" lon="1.61136">
        <ele>23.429758071899</ele>
        <time>2021-01-12T20:39:57.848Z</time>
      </trkpt>
      <trkpt lat="50.49416" lon="1.61136">
        <ele>23.354179382324</ele>
        <time>2021-01-12T20:40:02.496Z</time>
      </trkpt>
      <trkpt lat="50.49417" lon="1.61135">
        <ele>23.214151382446</ele>
        <time>2021-01-12T20:40:07.145Z</time>
      </trkpt>
      <trkpt lat="50.49433" lon="1.61125">
        <ele>20.547037124634</ele>
        <time>2021-01-12T20:40:11.797Z</time>
      </trkpt>
      <trkpt lat="50.49458" lon="1.61148">
        <ele>20.272901535034</ele>
        <time>2021-01-12T20:40:16.455Z</time>
      </trkpt>
      <trkpt lat="50.49457" lon="1.61155">
        <ele>20.662105560303</ele>
        <time>2021-01-12T20:40:21.114Z</time>
      </trkpt>
      <trkpt lat="50.49453" lon="1.61161">
        <ele>21.734607696533</ele>
        <time>2021-01-12T20:40:25.774Z</time>
      </trkpt>
      <trkpt lat="50.49453" lon="1.61164">
        <ele>22.209674835205</ele>
        <time>2021-01-12T20:40:30.434Z</time>
      </trkpt>
      <trkpt lat="50.49453" lon="1.61169">
        <ele>22.666748046875</ele>
        <time>2021-01-12T20:40:35.095Z</time>
      </trkpt>
      <trkpt lat="50.49454" lon="1.61175">
        <ele>22.81563949585</ele>
        <time>2021-01-12T20:40:39.756Z</time>
      </trkpt>
      <trkpt lat="50.49455" lon="1.61179">
        <ele>22.761655807495</ele>
        <time>2021-01-12T20:40:44.418Z</time>
      </trkpt>
      <trkpt lat="50.49457" lon="1.61182">
        <ele>22.567308425903</ele>
        <time>2021-01-12T20:40:49.081Z</time>
      </trkpt>
      <trkpt lat="50.49468" lon="1.61197">
        <ele>21.638767242432</ele>
        <time>2021-01-12T20:40:53.747Z</time>
      </trkpt>
      <trkpt lat="50.49482" lon="1.61196">
        <ele>19.92652130127</ele>
        <time>2021-01-12T20:40:58.415Z</time>
      </trkpt>
      <trkpt lat="50.49484" lon="1.61198">
        <ele>19.717779159546</ele>
        <time>2021-01-12T20:41:03.084Z</time>
      </trkpt>
      <trkpt lat="50.49486" lon="1.612">
        <ele>19.652996063232</ele>
        <time>2021-01-12T20:41:07.753Z</time>
      </trkpt>
      <trkpt lat="50.49486" lon="1.61206">
        <ele>19.804155349731</ele>
        <time>2021-01-12T20:41:12.423Z</time>
      </trkpt>
      <trkpt lat="50.49487" lon="1.61213">
        <ele>19.998500823975</ele>
        <time>2021-01-12T20:41:17.094Z</time>
      </trkpt>
      <trkpt lat="50.49487" lon="1.61228">
        <ele>20.442598342896</ele>
        <time>2021-01-12T20:41:21.767Z</time>
      </trkpt>
      <trkpt lat="50.49486" lon="1.61235">
        <ele>20.518178939819</ele>
        <time>2021-01-12T20:41:26.441Z</time>
      </trkpt>
      <trkpt lat="50.49485" lon="1.61245">
        <ele>20.647743225098</ele>
        <time>2021-01-12T20:41:31.116Z</time>
      </trkpt>
      <trkpt lat="50.49489" lon="1.61261">
        <ele>20.484888076782</ele>
        <time>2021-01-12T20:41:35.793Z</time>
      </trkpt>
      <trkpt lat="50.49496" lon="1.61278">
        <ele>20.337327957153</ele>
        <time>2021-01-12T20:41:40.473Z</time>
      </trkpt>
      <trkpt lat="50.49498" lon="1.6128">
        <ele>20.196968078613</ele>
        <time>2021-01-12T20:41:45.153Z</time>
      </trkpt>
      <trkpt lat="50.49507" lon="1.61273">
        <ele>19.201444625854</ele>
        <time>2021-01-12T20:41:49.835Z</time>
      </trkpt>
      <trkpt lat="50.49511" lon="1.61272">
        <ele>18.881132125854</ele>
        <time>2021-01-12T20:41:54.518Z</time>
      </trkpt>
      <trkpt lat="50.49513" lon="1.61272">
        <ele>18.747970581055</ele>
        <time>2021-01-12T20:41:59.202Z</time>
      </trkpt>
      <trkpt lat="50.49515" lon="1.61272">
        <ele>18.607608795166</ele>
        <time>2021-01-12T20:42:03.886Z</time>
      </trkpt>
      <trkpt lat="50.49523" lon="1.61267">
        <ele>17.815828323364</ele>
        <time>2021-01-12T20:42:08.572Z</time>
      </trkpt>
      <trkpt lat="50.49527" lon="1.61263">
        <ele>17.383949279785</ele>
        <time>2021-01-12T20:42:13.259Z</time>
      </trkpt>
      <trkpt lat="50.49531" lon="1.61259">
        <ele>17.083555221558</ele>
        <time>2021-01-12T20:42:17.947Z</time>
      </trkpt>
      <trkpt lat="50.49533" lon="1.61256">
        <ele>17</ele>
        <time>2021-01-12T20:42:22.635Z</time>
      </trkpt>
      <trkpt lat="50.49535" lon="1.61255">
        <ele>17</ele>
        <time>2021-01-12T20:42:27.324Z</time>
      </trkpt>
      <trkpt lat="50.49537" lon="1.61255">
        <ele>17</ele>
        <time>2021-01-12T20:42:32.013Z</time>
      </trkpt>
      <trkpt lat="50.49543" lon="1.61269">
        <ele>17.004377365112</ele>
        <time>2021-01-12T20:42:36.704Z</time>
      </trkpt>
      <trkpt lat="50.49547" lon="1.61276">
        <ele>17.12674331665</ele>
        <time>2021-01-12T20:42:41.396Z</time>
      </trkpt>
      <trkpt lat="50.49555" lon="1.61289">
        <ele>17.299493789673</ele>
        <time>2021-01-12T20:42:46.090Z</time>
      </trkpt>
      <trkpt lat="50.49588" lon="1.61322">
        <ele>18.154123306274</ele>
        <time>2021-01-12T20:42:50.792Z</time>
      </trkpt>
      <trkpt lat="50.49613" lon="1.61378">
        <ele>19.057472229004</ele>
        <time>2021-01-12T20:42:55.503Z</time>
      </trkpt>
      <trkpt lat="50.49612" lon="1.61404">
        <ele>19.451475143433</ele>
        <time>2021-01-12T20:43:00.217Z</time>
      </trkpt>
      <trkpt lat="50.49597" lon="1.61419">
        <ele>19.444276809692</ele>
        <time>2021-01-12T20:43:04.935Z</time>
      </trkpt>
      <trkpt lat="50.49601" lon="1.61427">
        <ele>19.872556686401</ele>
        <time>2021-01-12T20:43:09.654Z</time>
      </trkpt>
      <trkpt lat="50.496" lon="1.61441">
        <ele>20.354824066162</ele>
        <time>2021-01-12T20:43:14.375Z</time>
      </trkpt>
      <trkpt lat="50.49602" lon="1.61444">
        <ele>20.541971206665</ele>
        <time>2021-01-12T20:43:19.097Z</time>
      </trkpt>
      <trkpt lat="50.49623" lon="1.6149">
        <ele>21</ele>
        <time>2021-01-12T20:43:23.826Z</time>
      </trkpt>
      <trkpt lat="50.49627" lon="1.61495">
        <ele>21</ele>
        <time>2021-01-12T20:43:28.556Z</time>
      </trkpt>
      <trkpt lat="50.49636" lon="1.61496">
        <ele>21</ele>
        <time>2021-01-12T20:43:33.288Z</time>
      </trkpt>
      <trkpt lat="50.49647" lon="1.61501">
        <ele>20.430536270142</ele>
        <time>2021-01-12T20:43:38.022Z</time>
      </trkpt>
      <trkpt lat="50.49666" lon="1.61511">
        <ele>19.318645477295</ele>
        <time>2021-01-12T20:43:42.760Z</time>
      </trkpt>
      <trkpt lat="50.49676" lon="1.61532">
        <ele>19.325841903687</ele>
        <time>2021-01-12T20:43:47.501Z</time>
      </trkpt>
      <trkpt lat="50.49682" lon="1.61566">
        <ele>19.712390899658</ele>
        <time>2021-01-12T20:43:52.247Z</time>
      </trkpt>
      <trkpt lat="50.49676" lon="1.61584">
        <ele>20.576150894165</ele>
        <time>2021-01-12T20:43:56.995Z</time>
      </trkpt>
      <trkpt lat="50.49637" lon="1.61639">
        <ele>24.896829605103</ele>
        <time>2021-01-12T20:44:01.754Z</time>
      </trkpt>
      <trkpt lat="50.49603" lon="1.61648">
        <ele>27.634656906128</ele>
        <time>2021-01-12T20:44:06.520Z</time>
      </trkpt>
      <trkpt lat="50.49597" lon="1.61649">
        <ele>27.731830596924</ele>
        <time>2021-01-12T20:44:11.287Z</time>
      </trkpt>
      <trkpt lat="50.49596" lon="1.6165">
        <ele>27.861394882202</ele>
        <time>2021-01-12T20:44:16.054Z</time>
      </trkpt>
      <trkpt lat="50.49595" lon="1.61655">
        <ele>28.343814849854</ele>
        <time>2021-01-12T20:44:20.822Z</time>
      </trkpt>
      <trkpt lat="50.49603" lon="1.61708">
        <ele>31.378150939941</ele>
        <time>2021-01-12T20:44:25.597Z</time>
      </trkpt>
      <trkpt lat="50.49605" lon="1.61716">
        <ele>31.64447593689</ele>
        <time>2021-01-12T20:44:30.373Z</time>
      </trkpt>
      <trkpt lat="50.49614" lon="1.61717">
        <ele>31.486343383789</ele>
        <time>2021-01-12T20:44:35.151Z</time>
      </trkpt>
      <trkpt lat="50.49636" lon="1.61702">
        <ele>29.384527206421</ele>
        <time>2021-01-12T20:44:39.934Z</time>
      </trkpt>
      <trkpt lat="50.49662" lon="1.61696">
        <ele>25.536628723145</ele>
        <time>2021-01-12T20:44:44.722Z</time>
      </trkpt>
      <trkpt lat="50.49665" lon="1.61694">
        <ele>25.058639526367</ele>
        <time>2021-01-12T20:44:49.511Z</time>
      </trkpt>
      <trkpt lat="50.49668" lon="1.61692">
        <ele>24.601566314697</ele>
        <time>2021-01-12T20:44:54.300Z</time>
      </trkpt>
      <trkpt lat="50.49674" lon="1.61691">
        <ele>24.000534057617</ele>
        <time>2021-01-12T20:44:59.090Z</time>
      </trkpt>
      <trkpt lat="50.49689" lon="1.61688">
        <ele>22.21542930603</ele>
        <time>2021-01-12T20:45:03.883Z</time>
      </trkpt>
      <trkpt lat="50.49702" lon="1.61694">
        <ele>21.327930450439</ele>
        <time>2021-01-12T20:45:08.679Z</time>
      </trkpt>
      <trkpt lat="50.49711" lon="1.61729">
        <ele>22.132062911987</ele>
        <time>2021-01-12T20:45:13.480Z</time>
      </trkpt>
      <trkpt lat="50.49707" lon="1.61731">
        <ele>22.693508148193</ele>
        <time>2021-01-12T20:45:18.282Z</time>
      </trkpt>
      <trkpt lat="50.49701" lon="1.61733">
        <ele>23.309614181519</ele>
        <time>2021-01-12T20:45:23.085Z</time>
      </trkpt>
      <trkpt lat="50.49677" lon="1.61719">
        <ele>24.63395690918</ele>
        <time>2021-01-12T20:45:27.893Z</time>
      </trkpt>
      <trkpt lat="50.49674" lon="1.61734">
        <ele>25.822561264038</ele>
        <time>2021-01-12T20:45:32.703Z</time>
      </trkpt>
      <trkpt lat="50.49671" lon="1.61744">
        <ele>26.315624237061</ele>
        <time>2021-01-12T20:45:37.514Z</time>
      </trkpt>
      <trkpt lat="50.49671" lon="1.61757">
        <ele>26.859071731567</ele>
        <time>2021-01-12T20:45:42.327Z</time>
      </trkpt>
      <trkpt lat="50.4968" lon="1.61771">
        <ele>26.653928756714</ele>
        <time>2021-01-12T20:45:47.143Z</time>
      </trkpt>
      <trkpt lat="50.49699" lon="1.61759">
        <ele>25.206441879272</ele>
        <time>2021-01-12T20:45:51.963Z</time>
      </trkpt>
      <trkpt lat="50.49716" lon="1.61772">
        <ele>25.587781906128</ele>
        <time>2021-01-12T20:45:56.787Z</time>
      </trkpt>
      <trkpt lat="50.49743" lon="1.61763">
        <ele>23.950235366821</ele>
        <time>2021-01-12T20:46:01.616Z</time>
      </trkpt>
      <trkpt lat="50.49751" lon="1.61761">
        <ele>23.494262695312</ele>
        <time>2021-01-12T20:46:06.447Z</time>
      </trkpt>
      <trkpt lat="50.49765" lon="1.61757">
        <ele>22.570518493652</ele>
        <time>2021-01-12T20:46:11.281Z</time>
      </trkpt>
      <trkpt lat="50.49774" lon="1.61751">
        <ele>21.956390380859</ele>
        <time>2021-01-12T20:46:16.117Z</time>
      </trkpt>
      <trkpt lat="50.4979" lon="1.6174">
        <ele>20.218650817871</ele>
        <time>2021-01-12T20:46:20.956Z</time>
      </trkpt>
      <trkpt lat="50.49813" lon="1.61728">
        <ele>18</ele>
        <time>2021-01-12T20:46:25.800Z</time>
      </trkpt>
      <trkpt lat="50.49842" lon="1.61802">
        <ele>20.825204849243</ele>
        <time>2021-01-12T20:46:30.655Z</time>
      </trkpt>
      <trkpt lat="50.49866" lon="1.61845">
        <ele>24.883153915405</ele>
        <time>2021-01-12T20:46:35.517Z</time>
      </trkpt>
      <trkpt lat="50.49881" lon="1.61876">
        <ele>28.208631515503</ele>
        <time>2021-01-12T20:46:40.384Z</time>
      </trkpt>
      <trkpt lat="50.49901" lon="1.61903">
        <ele>29.904026031494</ele>
        <time>2021-01-12T20:46:45.257Z</time>
      </trkpt>
      <trkpt lat="50.49914" lon="1.61914">
        <ele>29.810453414917</ele>
        <time>2021-01-12T20:46:50.133Z</time>
      </trkpt>
      <trkpt lat="50.49917" lon="1.61905">
        <ele>28.903505325317</ele>
        <time>2021-01-12T20:46:55.010Z</time>
      </trkpt>
      <trkpt lat="50.49953" lon="1.61843">
        <ele>23.913934707642</ele>
        <time>2021-01-12T20:46:59.898Z</time>
      </trkpt>
      <trkpt lat="50.49974" lon="1.61823">
        <ele>22.513401031494</ele>
        <time>2021-01-12T20:47:04.791Z</time>
      </trkpt>
      <trkpt lat="50.49987" lon="1.61831">
        <ele>22.786926269531</ele>
        <time>2021-01-12T20:47:09.686Z</time>
      </trkpt>
      <trkpt lat="50.5002" lon="1.61905">
        <ele>21.581993103027</ele>
        <time>2021-01-12T20:47:14.593Z</time>
      </trkpt>
      <trkpt lat="50.50024" lon="1.6191">
        <ele>21.250885009766</ele>
        <time>2021-01-12T20:47:19.501Z</time>
      </trkpt>
      <trkpt lat="50.5005" lon="1.61948">
        <ele>20.204099655151</ele>
        <time>2021-01-12T20:47:24.416Z</time>
      </trkpt>
      <trkpt lat="50.50081" lon="1.61967">
        <ele>20.437145233154</ele>
        <time>2021-01-12T20:47:29.338Z</time>
      </trkpt>
      <trkpt lat="50.50107" lon="1.61919">
        <ele>18.95044708252</ele>
        <time>2021-01-12T20:47:34.268Z</time>
      </trkpt>
      <trkpt lat="50.50116" lon="1.61908">
        <ele>18.561754226685</ele>
        <time>2021-01-12T20:47:39.200Z</time>
      </trkpt>
      <trkpt lat="50.50127" lon="1.61911">
        <ele>18.666126251221</ele>
        <time>2021-01-12T20:47:44.134Z</time>
      </trkpt>
      <trkpt lat="50.50136" lon="1.619">
        <ele>18.266637802124</ele>
        <time>2021-01-12T20:47:49.071Z</time>
      </trkpt>
      <trkpt lat="50.50143" lon="1.61891">
        <ele>17.967920303345</ele>
        <time>2021-01-12T20:47:54.009Z</time>
      </trkpt>
      <trkpt lat="50.50152" lon="1.61888">
        <ele>17.838356018066</ele>
        <time>2021-01-12T20:47:58.949Z</time>
      </trkpt>
      <trkpt lat="50.50161" lon="1.61886">
        <ele>17.738361358643</ele>
        <time>2021-01-12T20:48:03.891Z</time>
      </trkpt>
      <trkpt lat="50.50171" lon="1.61893">
        <ele>17.849618911743</ele>
        <time>2021-01-12T20:48:08.835Z</time>
      </trkpt>
      <trkpt lat="50.50173" lon="1.61901">
        <ele>18.094350814819</ele>
        <time>2021-01-12T20:48:13.780Z</time>
      </trkpt>
      <trkpt lat="50.50172" lon="1.61907">
        <ele>18.353479385376</ele>
        <time>2021-01-12T20:48:18.726Z</time>
      </trkpt>
      <trkpt lat="50.50171" lon="1.61918">
        <ele>18.763765335083</ele>
        <time>2021-01-12T20:48:23.674Z</time>
      </trkpt>
      <trkpt lat="50.50185" lon="1.61953">
        <ele>19.541149139404</ele>
        <time>2021-01-12T20:48:28.627Z</time>
      </trkpt>
      <trkpt lat="50.50182" lon="1.6197">
        <ele>20</ele>
        <time>2021-01-12T20:48:33.582Z</time>
      </trkpt>
      <trkpt lat="50.50184" lon="1.61983">
        <ele>20</ele>
        <time>2021-01-12T20:48:38.539Z</time>
      </trkpt>
      <trkpt lat="50.50183" lon="1.61992">
        <ele>20.00594329834</ele>
        <time>2021-01-12T20:48:43.497Z</time>
      </trkpt>
      <trkpt lat="50.50178" lon="1.62006">
        <ele>20.671758651733</ele>
        <time>2021-01-12T20:48:48.457Z</time>
      </trkpt>
      <trkpt lat="50.50184" lon="1.6204">
        <ele>21.711868286133</ele>
        <time>2021-01-12T20:48:53.422Z</time>
      </trkpt>
      <trkpt lat="50.50186" lon="1.62048">
        <ele>21.884620666504</ele>
        <time>2021-01-12T20:48:58.388Z</time>
      </trkpt>
      <trkpt lat="50.50187" lon="1.62054">
        <ele>22.193923950195</ele>
        <time>2021-01-12T20:49:03.354Z</time>
      </trkpt>
      <trkpt lat="50.50191" lon="1.62078">
        <ele>24.306381225586</ele>
        <time>2021-01-12T20:49:08.324Z</time>
      </trkpt>
      <trkpt lat="50.50194" lon="1.62081">
        <ele>24.443143844604</ele>
        <time>2021-01-12T20:49:13.294Z</time>
      </trkpt>
      <trkpt lat="50.50208" lon="1.62086">
        <ele>24.468391418457</ele>
        <time>2021-01-12T20:49:18.267Z</time>
      </trkpt>
      <trkpt lat="50.5021" lon="1.62112">
        <ele>26.800233840942</ele>
        <time>2021-01-12T20:49:23.244Z</time>
      </trkpt>
      <trkpt lat="50.50207" lon="1.6212">
        <ele>27.426460266113</ele>
        <time>2021-01-12T20:49:28.222Z</time>
      </trkpt>
      <trkpt lat="50.50202" lon="1.62124">
        <ele>27.692785263062</ele>
        <time>2021-01-12T20:49:33.201Z</time>
      </trkpt>
      <trkpt lat="50.5019" lon="1.62128">
        <ele>28.146203994751</ele>
        <time>2021-01-12T20:49:38.183Z</time>
      </trkpt>
      <trkpt lat="50.50181" lon="1.62132">
        <ele>28.729242324829</ele>
        <time>2021-01-12T20:49:43.166Z</time>
      </trkpt>
      <trkpt lat="50.50175" lon="1.6213">
        <ele>28.797622680664</ele>
        <time>2021-01-12T20:49:48.151Z</time>
      </trkpt>
      <trkpt lat="50.50173" lon="1.62116">
        <ele>27.887075424194</ele>
        <time>2021-01-12T20:49:53.137Z</time>
      </trkpt>
      <trkpt lat="50.50164" lon="1.62114">
        <ele>27.958589553833</ele>
        <time>2021-01-12T20:49:58.125Z</time>
      </trkpt>
      <trkpt lat="50.50158" lon="1.62101">
        <ele>26.833457946777</ele>
        <time>2021-01-12T20:50:03.115Z</time>
      </trkpt>
      <trkpt lat="50.50157" lon="1.62096">
        <ele>26.397977828979</ele>
        <time>2021-01-12T20:50:08.106Z</time>
      </trkpt>
      <trkpt lat="50.50159" lon="1.6207">
        <ele>24.694917678833</ele>
        <time>2021-01-12T20:50:13.100Z</time>
      </trkpt>
      <trkpt lat="50.50158" lon="1.62064">
        <ele>24.475379943848</ele>
        <time>2021-01-12T20:50:18.095Z</time>
      </trkpt>
      <trkpt lat="50.50151" lon="1.62063">
        <ele>24.712913513184</ele>
        <time>2021-01-12T20:50:23.092Z</time>
      </trkpt>
      <trkpt lat="50.5015" lon="1.62065">
        <ele>24.817283630371</ele>
        <time>2021-01-12T20:50:28.089Z</time>
      </trkpt>
      <trkpt lat="50.50148" lon="1.62064">
        <ele>24.856872558594</ele>
        <time>2021-01-12T20:50:33.086Z</time>
      </trkpt>
      <trkpt lat="50.50147" lon="1.62059">
        <ele>24.730907440186</ele>
        <time>2021-01-12T20:50:38.084Z</time>
      </trkpt>
      <trkpt lat="50.5014" lon="1.62049">
        <ele>24.590547561646</ele>
        <time>2021-01-12T20:50:43.084Z</time>
      </trkpt>
      <trkpt lat="50.50125" lon="1.62027">
        <ele>23.710723876953</ele>
        <time>2021-01-12T20:50:48.088Z</time>
      </trkpt>
      <trkpt lat="50.50121" lon="1.62028">
        <ele>23.739517211914</ele>
        <time>2021-01-12T20:50:53.093Z</time>
      </trkpt>
      <trkpt lat="50.50113" lon="1.62034">
        <ele>24.110891342163</ele>
        <time>2021-01-12T20:50:58.100Z</time>
      </trkpt>
      <trkpt lat="50.50105" lon="1.62036">
        <ele>23.936628341675</ele>
        <time>2021-01-12T20:51:03.108Z</time>
      </trkpt>
      <trkpt lat="50.501" lon="1.62062">
        <ele>24.706815719604</ele>
        <time>2021-01-12T20:51:08.120Z</time>
      </trkpt>
      <trkpt lat="50.501" lon="1.62064">
        <ele>24.775196075439</ele>
        <time>2021-01-12T20:51:13.132Z</time>
      </trkpt>
      <trkpt lat="50.501" lon="1.62069">
        <ele>24.958744049072</ele>
        <time>2021-01-12T20:51:18.145Z</time>
      </trkpt>
      <trkpt lat="50.50102" lon="1.62073">
        <ele>25.160287857056</ele>
        <time>2021-01-12T20:51:23.158Z</time>
      </trkpt>
      <trkpt lat="50.50115" lon="1.62096">
        <ele>26.477523803711</ele>
        <time>2021-01-12T20:51:28.175Z</time>
      </trkpt>
      <trkpt lat="50.50119" lon="1.62102">
        <ele>26.844621658325</ele>
        <time>2021-01-12T20:51:33.193Z</time>
      </trkpt>
      <trkpt lat="50.50124" lon="1.62107">
        <ele>27.179327011108</ele>
        <time>2021-01-12T20:51:38.213Z</time>
      </trkpt>
      <trkpt lat="50.50131" lon="1.62102">
        <ele>27.123620986938</ele>
        <time>2021-01-12T20:51:43.234Z</time>
      </trkpt>
      <trkpt lat="50.50134" lon="1.62103">
        <ele>27.188404083252</ele>
        <time>2021-01-12T20:51:48.256Z</time>
      </trkpt>
      <trkpt lat="50.50139" lon="1.62111">
        <ele>27.75704574585</ele>
        <time>2021-01-12T20:51:53.279Z</time>
      </trkpt>
      <trkpt lat="50.50141" lon="1.6212">
        <ele>28.262626647949</ele>
        <time>2021-01-12T20:51:58.303Z</time>
      </trkpt>
      <trkpt lat="50.50158" lon="1.62162">
        <ele>30.371641159058</ele>
        <time>2021-01-12T20:52:03.334Z</time>
      </trkpt>
      <trkpt lat="50.5016" lon="1.62167">
        <ele>30.655961990356</ele>
        <time>2021-01-12T20:52:08.365Z</time>
      </trkpt>
      <trkpt lat="50.50161" lon="1.62187">
        <ele>31.408153533936</ele>
        <time>2021-01-12T20:52:13.399Z</time>
      </trkpt>
      <trkpt lat="50.5016" lon="1.62189">
        <ele>31.433345794678</ele>
        <time>2021-01-12T20:52:18.433Z</time>
      </trkpt>
      <trkpt lat="50.50147" lon="1.62164">
        <ele>30.080121994019</ele>
        <time>2021-01-12T20:52:23.471Z</time>
      </trkpt>
      <trkpt lat="50.50148" lon="1.62152">
        <ele>29.691431045532</ele>
        <time>2021-01-12T20:52:28.511Z</time>
      </trkpt>
      <trkpt lat="50.50146" lon="1.62149">
        <ele>29.482688903809</ele>
        <time>2021-01-12T20:52:33.552Z</time>
      </trkpt>
      <trkpt lat="50.50137" lon="1.62153">
        <ele>29.400899887085</ele>
        <time>2021-01-12T20:52:38.595Z</time>
      </trkpt>
      <trkpt lat="50.50135" lon="1.62152">
        <ele>29.364910125732</ele>
        <time>2021-01-12T20:52:43.638Z</time>
      </trkpt>
      <trkpt lat="50.50128" lon="1.62147">
        <ele>29.177761077881</ele>
        <time>2021-01-12T20:52:48.682Z</time>
      </trkpt>
      <trkpt lat="50.50122" lon="1.62145">
        <ele>29.084188461304</ele>
        <time>2021-01-12T20:52:53.728Z</time>
      </trkpt>
      <trkpt lat="50.50119" lon="1.62143">
        <ele>29.01580619812</ele>
        <time>2021-01-12T20:52:58.774Z</time>
      </trkpt>
      <trkpt lat="50.50119" lon="1.6214">
        <ele>28.844465255737</ele>
        <time>2021-01-12T20:53:03.821Z</time>
      </trkpt>
      <trkpt lat="50.50118" lon="1.62136">
        <ele>28.520555496216</ele>
        <time>2021-01-12T20:53:08.868Z</time>
      </trkpt>
      <trkpt lat="50.50116" lon="1.62133">
        <ele>28.340604782104</ele>
        <time>2021-01-12T20:53:13.916Z</time>
      </trkpt>
      <trkpt lat="50.50083" lon="1.62102">
        <ele>25.995933532715</ele>
        <time>2021-01-12T20:53:18.972Z</time>
      </trkpt>
      <trkpt lat="50.50075" lon="1.62073">
        <ele>25.02180480957</ele>
        <time>2021-01-12T20:53:24.032Z</time>
      </trkpt>
      <trkpt lat="50.50079" lon="1.62061">
        <ele>24.122055053711</ele>
        <time>2021-01-12T20:53:29.093Z</time>
      </trkpt>
      <trkpt lat="50.50079" lon="1.62056">
        <ele>23.906270980835</ele>
        <time>2021-01-12T20:53:34.155Z</time>
      </trkpt>
      <trkpt lat="50.50076" lon="1.62031">
        <ele>22.977727890015</ele>
        <time>2021-01-12T20:53:39.220Z</time>
      </trkpt>
      <trkpt lat="50.50072" lon="1.62019">
        <ele>22.549448013306</ele>
        <time>2021-01-12T20:53:44.287Z</time>
      </trkpt>
      <trkpt lat="50.5007" lon="1.62018">
        <ele>22.542249679565</ele>
        <time>2021-01-12T20:53:49.354Z</time>
      </trkpt>
      <trkpt lat="50.50071" lon="1.62019">
        <ele>22.574640274048</ele>
        <time>2021-01-12T20:53:54.421Z</time>
      </trkpt>
      <trkpt lat="50.50068" lon="1.62022">
        <ele>22.661016464233</ele>
        <time>2021-01-12T20:53:59.489Z</time>
      </trkpt>
      <trkpt lat="50.50068" lon="1.62025">
        <ele>22.786981582642</ele>
        <time>2021-01-12T20:54:04.558Z</time>
      </trkpt>
      <trkpt lat="50.50069" lon="1.6203">
        <ele>22.952535629272</ele>
        <time>2021-01-12T20:54:09.627Z</time>
      </trkpt>
      <trkpt lat="50.50069" lon="1.62034">
        <ele>23.085699081421</ele>
        <time>2021-01-12T20:54:14.697Z</time>
      </trkpt>
      <trkpt lat="50.50066" lon="1.62036">
        <ele>23.157678604126</ele>
        <time>2021-01-12T20:54:19.767Z</time>
      </trkpt>
      <trkpt lat="50.5006" lon="1.6204">
        <ele>23.334030151367</ele>
        <time>2021-01-12T20:54:24.839Z</time>
      </trkpt>
      <trkpt lat="50.50059" lon="1.62044">
        <ele>23.459995269775</ele>
        <time>2021-01-12T20:54:29.911Z</time>
      </trkpt>
      <trkpt lat="50.50055" lon="1.62057">
        <ele>23.937618255615</ele>
        <time>2021-01-12T20:54:34.985Z</time>
      </trkpt>
      <trkpt lat="50.50053" lon="1.62069">
        <ele>24</ele>
        <time>2021-01-12T20:54:40.061Z</time>
      </trkpt>
      <trkpt lat="50.50053" lon="1.6207">
        <ele>24</ele>
        <time>2021-01-12T20:54:45.137Z</time>
      </trkpt>
      <trkpt lat="50.50053" lon="1.62071">
        <ele>24</ele>
        <time>2021-01-12T20:54:50.213Z</time>
      </trkpt>
      <trkpt lat="50.50053" lon="1.62074">
        <ele>24</ele>
        <time>2021-01-12T20:54:55.289Z</time>
      </trkpt>
      <trkpt lat="50.50053" lon="1.62075">
        <ele>24</ele>
        <time>2021-01-12T20:55:00.365Z</time>
      </trkpt>
      <trkpt lat="50.50054" lon="1.62079">
        <ele>24</ele>
        <time>2021-01-12T20:55:05.442Z</time>
      </trkpt>
      <trkpt lat="50.50054" lon="1.62085">
        <ele>24</ele>
        <time>2021-01-12T20:55:10.520Z</time>
      </trkpt>
      <trkpt lat="50.50054" lon="1.62087">
        <ele>23.947059631348</ele>
        <time>2021-01-12T20:55:15.598Z</time>
      </trkpt>
      <trkpt lat="50.50054" lon="1.62088">
        <ele>23.957855224609</ele>
        <time>2021-01-12T20:55:20.676Z</time>
      </trkpt>
      <trkpt lat="50.50055" lon="1.62089">
        <ele>23.98664855957</ele>
        <time>2021-01-12T20:55:25.754Z</time>
      </trkpt>
      <trkpt lat="50.50056" lon="1.62092">
        <ele>24.059671401978</ele>
        <time>2021-01-12T20:55:30.833Z</time>
      </trkpt>
      <trkpt lat="50.50061" lon="1.62105">
        <ele>24.4195728302</ele>
        <time>2021-01-12T20:55:35.914Z</time>
      </trkpt>
      <trkpt lat="50.50064" lon="1.62111">
        <ele>24.570730209351</ele>
        <time>2021-01-12T20:55:40.995Z</time>
      </trkpt>
      <trkpt lat="50.50065" lon="1.62112">
        <ele>24.649908065796</ele>
        <time>2021-01-12T20:55:46.077Z</time>
      </trkpt>
      <trkpt lat="50.50072" lon="1.62123">
        <ele>25.525354385376</ele>
        <time>2021-01-12T20:55:51.161Z</time>
      </trkpt>
      <trkpt lat="50.50076" lon="1.62126">
        <ele>25.87085723877</ele>
        <time>2021-01-12T20:55:56.246Z</time>
      </trkpt>
      <trkpt lat="50.50079" lon="1.62128">
        <ele>26.147981643677</ele>
        <time>2021-01-12T20:56:01.331Z</time>
      </trkpt>
      <trkpt lat="50.50083" lon="1.62133">
        <ele>26.644643783569</ele>
        <time>2021-01-12T20:56:06.417Z</time>
      </trkpt>
      <trkpt lat="50.50087" lon="1.62135">
        <ele>26.979351043701</ele>
        <time>2021-01-12T20:56:11.504Z</time>
      </trkpt>
      <trkpt lat="50.50092" lon="1.62149">
        <ele>27.629358291626</ele>
        <time>2021-01-12T20:56:16.593Z</time>
      </trkpt>
      <trkpt lat="50.50095" lon="1.62155">
        <ele>27.830902099609</ele>
        <time>2021-01-12T20:56:21.683Z</time>
      </trkpt>
      <trkpt lat="50.50096" lon="1.6216">
        <ele>27.874090194702</ele>
        <time>2021-01-12T20:56:26.774Z</time>
      </trkpt>
      <trkpt lat="50.5009" lon="1.62169">
        <ele>27.478200912476</ele>
        <time>2021-01-12T20:56:31.866Z</time>
      </trkpt>
      <trkpt lat="50.50094" lon="1.62177">
        <ele>27.541049957275</ele>
        <time>2021-01-12T20:56:36.960Z</time>
      </trkpt>
      <trkpt lat="50.50107" lon="1.62203">
        <ele>27.037967681885</ele>
        <time>2021-01-12T20:56:42.058Z</time>
      </trkpt>
      <trkpt lat="50.50115" lon="1.62212">
        <ele>26.964475631714</ele>
        <time>2021-01-12T20:56:47.158Z</time>
      </trkpt>
      <trkpt lat="50.50131" lon="1.62229">
        <ele>27.371786117554</ele>
        <time>2021-01-12T20:56:52.262Z</time>
      </trkpt>
      <trkpt lat="50.50136" lon="1.62237">
        <ele>27.011884689331</ele>
        <time>2021-01-12T20:56:57.367Z</time>
      </trkpt>
      <trkpt lat="50.50142" lon="1.6224">
        <ele>27.250408172607</ele>
        <time>2021-01-12T20:57:02.473Z</time>
      </trkpt>
      <trkpt lat="50.50158" lon="1.62253">
        <ele>27.153234481812</ele>
        <time>2021-01-12T20:57:07.583Z</time>
      </trkpt>
      <trkpt lat="50.50165" lon="1.62258">
        <ele>26.88710975647</ele>
        <time>2021-01-12T20:57:12.695Z</time>
      </trkpt>
      <trkpt lat="50.50173" lon="1.62262">
        <ele>26.340993881226</ele>
        <time>2021-01-12T20:57:17.808Z</time>
      </trkpt>
      <trkpt lat="50.50176" lon="1.62265">
        <ele>25.901916503906</ele>
        <time>2021-01-12T20:57:22.922Z</time>
      </trkpt>
      <trkpt lat="50.50181" lon="1.62271">
        <ele>24.717845916748</ele>
        <time>2021-01-12T20:57:28.037Z</time>
      </trkpt>
      <trkpt lat="50.50188" lon="1.6227">
        <ele>25.239700317383</ele>
        <time>2021-01-12T20:57:33.154Z</time>
      </trkpt>
      <trkpt lat="50.50232" lon="1.62212">
        <ele>29.048175811768</ele>
        <time>2021-01-12T20:57:38.282Z</time>
      </trkpt>
      <trkpt lat="50.50255" lon="1.62201">
        <ele>27.328430175781</ele>
        <time>2021-01-12T20:57:43.415Z</time>
      </trkpt>
      <trkpt lat="50.5027" lon="1.62193">
        <ele>26.083177566528</ele>
        <time>2021-01-12T20:57:48.551Z</time>
      </trkpt>
      <trkpt lat="50.50273" lon="1.62198">
        <ele>25.543327331543</ele>
        <time>2021-01-12T20:57:53.688Z</time>
      </trkpt>
      <trkpt lat="50.50273" lon="1.62202">
        <ele>25.327386856079</ele>
        <time>2021-01-12T20:57:58.826Z</time>
      </trkpt>
      <trkpt lat="50.50257" lon="1.62235">
        <ele>25.103992462158</ele>
        <time>2021-01-12T20:58:03.969Z</time>
      </trkpt>
      <trkpt lat="50.5026" lon="1.62245">
        <ele>24.22583770752</ele>
        <time>2021-01-12T20:58:09.113Z</time>
      </trkpt>
      <trkpt lat="50.50264" lon="1.62245">
        <ele>24.081876754761</ele>
        <time>2021-01-12T20:58:14.258Z</time>
      </trkpt>
      <trkpt lat="50.50282" lon="1.62242">
        <ele>23.137216567993</ele>
        <time>2021-01-12T20:58:19.407Z</time>
      </trkpt>
      <trkpt lat="50.50295" lon="1.62216">
        <ele>22.487775802612</ele>
        <time>2021-01-12T20:58:24.560Z</time>
      </trkpt>
      <trkpt lat="50.50296" lon="1.6221">
        <ele>22.416627883911</ele>
        <time>2021-01-12T20:58:29.714Z</time>
      </trkpt>
      <trkpt lat="50.50297" lon="1.62202">
        <ele>22.315856933594</ele>
        <time>2021-01-12T20:58:34.869Z</time>
      </trkpt>
      <trkpt lat="50.50296" lon="1.62195">
        <ele>22.464559555054</ele>
        <time>2021-01-12T20:58:40.025Z</time>
      </trkpt>
      <trkpt lat="50.50298" lon="1.62181">
        <ele>22.338905334473</ele>
        <time>2021-01-12T20:58:45.182Z</time>
      </trkpt>
      <trkpt lat="50.50301" lon="1.62162">
        <ele>21.711225509644</ele>
        <time>2021-01-12T20:58:50.342Z</time>
      </trkpt>
      <trkpt lat="50.50308" lon="1.62102">
        <ele>19.175340652466</ele>
        <time>2021-01-12T20:58:55.510Z</time>
      </trkpt>
      <trkpt lat="50.50304" lon="1.62088">
        <ele>19.14723777771</ele>
        <time>2021-01-12T20:59:00.680Z</time>
      </trkpt>
      <trkpt lat="50.50301" lon="1.62089">
        <ele>19.402765274048</ele>
        <time>2021-01-12T20:59:05.850Z</time>
      </trkpt>
      <trkpt lat="50.50299" lon="1.62101">
        <ele>20.025392532349</ele>
        <time>2021-01-12T20:59:11.022Z</time>
      </trkpt>
      <trkpt lat="50.50281" lon="1.6215">
        <ele>24.719778060913</ele>
        <time>2021-01-12T20:59:16.201Z</time>
      </trkpt>
      <trkpt lat="50.50261" lon="1.62148">
        <ele>26.426969528198</ele>
        <time>2021-01-12T20:59:21.384Z</time>
      </trkpt>
      <trkpt lat="50.50234" lon="1.62151">
        <ele>28.792924880981</ele>
        <time>2021-01-12T20:59:26.573Z</time>
      </trkpt>
      <trkpt lat="50.50232" lon="1.62148">
        <ele>28.692152023315</ele>
        <time>2021-01-12T20:59:31.762Z</time>
      </trkpt>
      <trkpt lat="50.5023" lon="1.62132">
        <ele>27.69882774353</ele>
        <time>2021-01-12T20:59:36.953Z</time>
      </trkpt>
      <trkpt lat="50.50225" lon="1.6211">
        <ele>26.288908004761</ele>
        <time>2021-01-12T20:59:42.147Z</time>
      </trkpt>
      <trkpt lat="50.50219" lon="1.62092">
        <ele>24.731119155884</ele>
        <time>2021-01-12T20:59:47.344Z</time>
      </trkpt>
      <trkpt lat="50.5022" lon="1.6209">
        <ele>24.389213562012</ele>
        <time>2021-01-12T20:59:52.541Z</time>
      </trkpt>
      <trkpt lat="50.50223" lon="1.6209">
        <ele>24.341850280762</ele>
        <time>2021-01-12T20:59:57.739Z</time>
      </trkpt>
      <trkpt lat="50.50231" lon="1.62052">
        <ele>21.210929870605</ele>
        <time>2021-01-12T21:00:02.942Z</time>
      </trkpt>
      <trkpt lat="50.50242" lon="1.62022">
        <ele>19.598056793213</ele>
        <time>2021-01-12T21:00:08.149Z</time>
      </trkpt>
      <trkpt lat="50.50246" lon="1.61987">
        <ele>17.58381652832</ele>
        <time>2021-01-12T21:00:13.361Z</time>
      </trkpt>
      <trkpt lat="50.50244" lon="1.61979">
        <ele>17.357078552246</ele>
        <time>2021-01-12T21:00:18.574Z</time>
      </trkpt>
      <trkpt lat="50.50243" lon="1.61975">
        <ele>17.223915100098</ele>
        <time>2021-01-12T21:00:23.787Z</time>
      </trkpt>
      <trkpt lat="50.50245" lon="1.61965">
        <ele>16.799234390259</ele>
        <time>2021-01-12T21:00:29.002Z</time>
      </trkpt>
      <trkpt lat="50.50249" lon="1.61956">
        <ele>16.334962844849</ele>
        <time>2021-01-12T21:00:34.218Z</time>
      </trkpt>
      <trkpt lat="50.50252" lon="1.61953">
        <ele>16.097429275513</ele>
        <time>2021-01-12T21:00:39.435Z</time>
      </trkpt>
      <trkpt lat="50.50265" lon="1.6195">
        <ele>16</ele>
        <time>2021-01-12T21:00:44.654Z</time>
      </trkpt>
      <trkpt lat="50.5027" lon="1.61943">
        <ele>15.825004577637</ele>
        <time>2021-01-12T21:00:49.875Z</time>
      </trkpt>
      <trkpt lat="50.5028" lon="1.6193">
        <ele>15.272735595703</ele>
        <time>2021-01-12T21:00:55.098Z</time>
      </trkpt>
      <trkpt lat="50.50292" lon="1.61927">
        <ele>15</ele>
        <time>2021-01-12T21:01:00.324Z</time>
      </trkpt>
      <trkpt lat="50.50323" lon="1.61915">
        <ele>14.572340965271</ele>
        <time>2021-01-12T21:01:05.556Z</time>
      </trkpt>
      <trkpt lat="50.50379" lon="1.61905">
        <ele>16.365653991699</ele>
        <time>2021-01-12T21:01:10.799Z</time>
      </trkpt>
      <trkpt lat="50.50417" lon="1.61902">
        <ele>19.633857727051</ele>
        <time>2021-01-12T21:01:16.050Z</time>
      </trkpt>
      <trkpt lat="50.5043" lon="1.61908">
        <ele>20.37885093689</ele>
        <time>2021-01-12T21:01:21.304Z</time>
      </trkpt>
      <trkpt lat="50.50432" lon="1.61909">
        <ele>20.479621887207</ele>
        <time>2021-01-12T21:01:26.558Z</time>
      </trkpt>
      <trkpt lat="50.50439" lon="1.61912">
        <ele>20.925897598267</ele>
        <time>2021-01-12T21:01:31.814Z</time>
      </trkpt>
      <trkpt lat="50.50441" lon="1.61911">
        <ele>21.055461883545</ele>
        <time>2021-01-12T21:01:37.070Z</time>
      </trkpt>
      <trkpt lat="50.50446" lon="1.6191">
        <ele>21.549680709839</ele>
        <time>2021-01-12T21:01:42.327Z</time>
      </trkpt>
      <trkpt lat="50.50451" lon="1.61912">
        <ele>22.010353088379</ele>
        <time>2021-01-12T21:01:47.585Z</time>
      </trkpt>
      <trkpt lat="50.50482" lon="1.61912">
        <ele>26.069780349731</ele>
        <time>2021-01-12T21:01:52.849Z</time>
      </trkpt>
      <trkpt lat="50.50506" lon="1.61906">
        <ele>29.786182403564</ele>
        <time>2021-01-12T21:01:58.118Z</time>
      </trkpt>
      <trkpt lat="50.50526" lon="1.61909">
        <ele>32.679779052734</ele>
        <time>2021-01-12T21:02:03.391Z</time>
      </trkpt>
      <trkpt lat="50.50537" lon="1.6191">
        <ele>33.653263092041</ele>
        <time>2021-01-12T21:02:08.666Z</time>
      </trkpt>
      <trkpt lat="50.50546" lon="1.61913">
        <ele>34.329875946045</ele>
        <time>2021-01-12T21:02:13.943Z</time>
      </trkpt>
      <trkpt lat="50.50549" lon="1.61909">
        <ele>34.688587188721</ele>
        <time>2021-01-12T21:02:19.221Z</time>
      </trkpt>
      <trkpt lat="50.50559" lon="1.61888">
        <ele>35.885189056396</ele>
        <time>2021-01-12T21:02:24.502Z</time>
      </trkpt>
      <trkpt lat="50.50579" lon="1.61865">
        <ele>35.179782867432</ele>
        <time>2021-01-12T21:02:29.788Z</time>
      </trkpt>
      <trkpt lat="50.50583" lon="1.61862">
        <ele>34.934841156006</ele>
        <time>2021-01-12T21:02:35.075Z</time>
      </trkpt>
      <trkpt lat="50.50587" lon="1.61859">
        <ele>34.668514251709</ele>
        <time>2021-01-12T21:02:40.363Z</time>
      </trkpt>
      <trkpt lat="50.50593" lon="1.61855">
        <ele>34.333808898926</ele>
        <time>2021-01-12T21:02:45.652Z</time>
      </trkpt>
      <trkpt lat="50.50597" lon="1.61855">
        <ele>34.197044372559</ele>
        <time>2021-01-12T21:02:50.942Z</time>
      </trkpt>
      <trkpt lat="50.50599" lon="1.61858">
        <ele>34.189846038818</ele>
        <time>2021-01-12T21:02:56.233Z</time>
      </trkpt>
      <trkpt lat="50.50601" lon="1.61862">
        <ele>34.283420562744</ele>
        <time>2021-01-12T21:03:01.524Z</time>
      </trkpt>
      <trkpt lat="50.50605" lon="1.61893">
        <ele>35.029102325439</ele>
        <time>2021-01-12T21:03:06.819Z</time>
      </trkpt>
      <trkpt lat="50.50605" lon="1.61907">
        <ele>35.518566131592</ele>
        <time>2021-01-12T21:03:12.116Z</time>
      </trkpt>
      <trkpt lat="50.50606" lon="1.61916">
        <ele>35.864070892334</ele>
        <time>2021-01-12T21:03:17.414Z</time>
      </trkpt>
      <trkpt lat="50.50605" lon="1.61922">
        <ele>36</ele>
        <time>2021-01-12T21:03:22.713Z</time>
      </trkpt>
      <trkpt lat="50.50607" lon="1.61928">
        <ele>36</ele>
        <time>2021-01-12T21:03:28.013Z</time>
      </trkpt>
      <trkpt lat="50.50613" lon="1.61926">
        <ele>36</ele>
        <time>2021-01-12T21:03:33.314Z</time>
      </trkpt>
      <trkpt lat="50.50614" lon="1.61926">
        <ele>36</ele>
        <time>2021-01-12T21:03:38.615Z</time>
      </trkpt>
      <trkpt lat="50.50615" lon="1.61927">
        <ele>36</ele>
        <time>2021-01-12T21:03:43.917Z</time>
      </trkpt>
      <trkpt lat="50.50619" lon="1.61925">
        <ele>36</ele>
        <time>2021-01-12T21:03:49.219Z</time>
      </trkpt>
      <trkpt lat="50.50622" lon="1.61924">
        <ele>36</ele>
        <time>2021-01-12T21:03:54.522Z</time>
      </trkpt>
      <trkpt lat="50.50628" lon="1.61921">
        <ele>36</ele>
        <time>2021-01-12T21:03:59.826Z</time>
      </trkpt>
      <trkpt lat="50.50642" lon="1.61903">
        <ele>34.497249603271</ele>
        <time>2021-01-12T21:04:05.134Z</time>
      </trkpt>
      <trkpt lat="50.50648" lon="1.61892">
        <ele>33.310482025146</ele>
        <time>2021-01-12T21:04:10.444Z</time>
      </trkpt>
      <trkpt lat="50.5066" lon="1.61875">
        <ele>31.516756057739</ele>
        <time>2021-01-12T21:04:15.757Z</time>
      </trkpt>
      <trkpt lat="50.50667" lon="1.61874">
        <ele>30.717779159546</ele>
        <time>2021-01-12T21:04:21.071Z</time>
      </trkpt>
      <trkpt lat="50.50675" lon="1.61877">
        <ele>30.01237487793</ele>
        <time>2021-01-12T21:04:26.387Z</time>
      </trkpt>
      <trkpt lat="50.50692" lon="1.61865">
        <ele>28.218416213989</ele>
        <time>2021-01-12T21:04:31.707Z</time>
      </trkpt>
      <trkpt lat="50.50695" lon="1.61867">
        <ele>28.073112487793</ele>
        <time>2021-01-12T21:04:37.028Z</time>
      </trkpt>
      <trkpt lat="50.507" lon="1.61881">
        <ele>28.397022247314</ele>
        <time>2021-01-12T21:04:42.351Z</time>
      </trkpt>
      <trkpt lat="50.50699" lon="1.6189">
        <ele>28.756923675537</ele>
        <time>2021-01-12T21:04:47.675Z</time>
      </trkpt>
      <trkpt lat="50.50694" lon="1.61896">
        <ele>29.353757858276</ele>
        <time>2021-01-12T21:04:53.000Z</time>
      </trkpt>
      <trkpt lat="50.50693" lon="1.61897">
        <ele>29.497716903687</ele>
        <time>2021-01-12T21:04:58.325Z</time>
      </trkpt>
      <trkpt lat="50.50693" lon="1.61897">
        <ele>29.591291427612</ele>
        <time>2021-01-12T21:05:03.650Z</time>
      </trkpt>
      <trkpt lat="50.50686" lon="1.61907">
        <ele>30.955312728882</ele>
        <time>2021-01-12T21:05:08.977Z</time>
      </trkpt>
      <trkpt lat="50.50687" lon="1.61916">
        <ele>31.446197509766</ele>
        <time>2021-01-12T21:05:14.305Z</time>
      </trkpt>
      <trkpt lat="50.50687" lon="1.61922">
        <ele>31.611751556396</ele>
        <time>2021-01-12T21:05:19.634Z</time>
      </trkpt>
      <trkpt lat="50.5069" lon="1.6193">
        <ele>31.647743225098</ele>
        <time>2021-01-12T21:05:24.964Z</time>
      </trkpt>
      <trkpt lat="50.5069" lon="1.61932">
        <ele>31.737716674805</ele>
        <time>2021-01-12T21:05:30.295Z</time>
      </trkpt>
      <trkpt lat="50.50689" lon="1.61937">
        <ele>32.040031433105</ele>
        <time>2021-01-12T21:05:35.626Z</time>
      </trkpt>
      <trkpt lat="50.50684" lon="1.61941">
        <ele>32.551090240479</ele>
        <time>2021-01-12T21:05:40.958Z</time>
      </trkpt>
      <trkpt lat="50.50671" lon="1.61946">
        <ele>33.619995117188</ele>
        <time>2021-01-12T21:05:46.293Z</time>
      </trkpt>
      <trkpt lat="50.50671" lon="1.61952">
        <ele>33.882720947266</ele>
        <time>2021-01-12T21:05:51.629Z</time>
      </trkpt>
      <trkpt lat="50.50672" lon="1.61957">
        <ele>33.96549987793</ele>
        <time>2021-01-12T21:05:56.965Z</time>
      </trkpt>
      <trkpt lat="50.50692" lon="1.6197">
        <ele>32.982971191406</ele>
        <time>2021-01-12T21:06:02.306Z</time>
      </trkpt>
      <trkpt lat="50.50699" lon="1.6197">
        <ele>32.439521789551</ele>
        <time>2021-01-12T21:06:07.648Z</time>
      </trkpt>
      <trkpt lat="50.50732" lon="1.62035">
        <ele>26.033212661743</ele>
        <time>2021-01-12T21:06:13.001Z</time>
      </trkpt>
      <trkpt lat="50.50742" lon="1.62064">
        <ele>21.314479827881</ele>
        <time>2021-01-12T21:06:18.358Z</time>
      </trkpt>
      <trkpt lat="50.50771" lon="1.62063">
        <ele>18.607719421387</ele>
        <time>2021-01-12T21:06:23.721Z</time>
      </trkpt>
      <trkpt lat="50.50801" lon="1.62057">
        <ele>18.259593963623</ele>
        <time>2021-01-12T21:06:29.090Z</time>
      </trkpt>
      <trkpt lat="50.5081" lon="1.62068">
        <ele>17.012697219849</ele>
        <time>2021-01-12T21:06:34.461Z</time>
      </trkpt>
      <trkpt lat="50.50829" lon="1.62106">
        <ele>12.945826530457</ele>
        <time>2021-01-12T21:06:39.838Z</time>
      </trkpt>
      <trkpt lat="50.50844" lon="1.6214">
        <ele>10.184326171875</ele>
        <time>2021-01-12T21:06:45.221Z</time>
      </trkpt>
      <trkpt lat="50.50847" lon="1.6216">
        <ele>10</ele>
        <time>2021-01-12T21:06:50.606Z</time>
      </trkpt>
      <trkpt lat="50.50809" lon="1.62212">
        <ele>10.884087562561</ele>
        <time>2021-01-12T21:06:56.001Z</time>
      </trkpt>
      <trkpt lat="50.50787" lon="1.62238">
        <ele>11.565142631531</ele>
        <time>2021-01-12T21:07:01.402Z</time>
      </trkpt>
      <trkpt lat="50.50774" lon="1.6225">
        <ele>11.161732673645</ele>
        <time>2021-01-12T21:07:06.806Z</time>
      </trkpt>
      <trkpt lat="50.50762" lon="1.6226">
        <ele>11.568419456482</ele>
        <time>2021-01-12T21:07:12.213Z</time>
      </trkpt>
      <trkpt lat="50.50735" lon="1.62282">
        <ele>11.959988594055</ele>
        <time>2021-01-12T21:07:17.626Z</time>
      </trkpt>
      <trkpt lat="50.50688" lon="1.6233">
        <ele>8.7727079391479</ele>
        <time>2021-01-12T21:07:23.050Z</time>
      </trkpt>
      <trkpt lat="50.50671" lon="1.62349">
        <ele>7.7159457206726</ele>
        <time>2021-01-12T21:07:28.478Z</time>
      </trkpt>
      <trkpt lat="50.50623" lon="1.62398">
        <ele>8.3633766174316</ele>
        <time>2021-01-12T21:07:33.918Z</time>
      </trkpt>
      <trkpt lat="50.50577" lon="1.62446">
        <ele>7.3057928085327</ele>
        <time>2021-01-12T21:07:39.369Z</time>
      </trkpt>
      <trkpt lat="50.50529" lon="1.62497">
        <ele>10.682443618774</ele>
        <time>2021-01-12T21:07:44.831Z</time>
      </trkpt>
      <trkpt lat="50.5049" lon="1.62528">
        <ele>11.748747825623</ele>
        <time>2021-01-12T21:07:50.302Z</time>
      </trkpt>
      <trkpt lat="50.50481" lon="1.62527">
        <ele>11.47882270813</ele>
        <time>2021-01-12T21:07:55.775Z</time>
      </trkpt>
      <trkpt lat="50.50427" lon="1.62518">
        <ele>9.4807443618774</ele>
        <time>2021-01-12T21:08:01.259Z</time>
      </trkpt>
      <trkpt lat="50.50422" lon="1.62516">
        <ele>9.5419273376465</ele>
        <time>2021-01-12T21:08:06.744Z</time>
      </trkpt>
      <trkpt lat="50.50377" lon="1.6249">
        <ele>10.545159339905</ele>
        <time>2021-01-12T21:08:12.238Z</time>
      </trkpt>
      <trkpt lat="50.50366" lon="1.62483">
        <ele>10.642333030701</ele>
        <time>2021-01-12T21:08:17.735Z</time>
      </trkpt>
      <trkpt lat="50.50358" lon="1.62477">
        <ele>10.876678466797</ele>
        <time>2021-01-12T21:08:23.234Z</time>
      </trkpt>
      <trkpt lat="50.50354" lon="1.62474">
        <ele>11.064304351807</ele>
        <time>2021-01-12T21:08:28.733Z</time>
      </trkpt>
      <trkpt lat="50.50346" lon="1.62468">
        <ele>11.26944732666</ele>
        <time>2021-01-12T21:08:34.234Z</time>
      </trkpt>
      <trkpt lat="50.50342" lon="1.62466">
        <ele>11.363021850586</ele>
        <time>2021-01-12T21:08:39.736Z</time>
      </trkpt>
      <trkpt lat="50.50324" lon="1.62453">
        <ele>11.802099227905</ele>
        <time>2021-01-12T21:08:45.242Z</time>
      </trkpt>
      <trkpt lat="50.50283" lon="1.62411">
        <ele>11.89438533783</ele>
        <time>2021-01-12T21:08:50.758Z</time>
      </trkpt>
      <trkpt lat="50.5024" lon="1.62364">
        <ele>11.06800365448</ele>
        <time>2021-01-12T21:08:56.284Z</time>
      </trkpt>
      <trkpt lat="50.50229" lon="1.6235">
        <ele>12.039732933044</ele>
        <time>2021-01-12T21:09:01.813Z</time>
      </trkpt>
      <trkpt lat="50.50217" lon="1.62333">
        <ele>13.766453742981</ele>
        <time>2021-01-12T21:09:07.346Z</time>
      </trkpt>
      <trkpt lat="50.5021" lon="1.62323">
        <ele>15.315801620483</ele>
        <time>2021-01-12T21:09:12.880Z</time>
      </trkpt>
      <trkpt lat="50.50203" lon="1.62317">
        <ele>16.597045898438</ele>
        <time>2021-01-12T21:09:18.416Z</time>
      </trkpt>
      <trkpt lat="50.50181" lon="1.62307">
        <ele>17.894561767578</ele>
        <time>2021-01-12T21:09:23.957Z</time>
      </trkpt>
      <trkpt lat="50.50158" lon="1.62301">
        <ele>17.882520675659</ele>
        <time>2021-01-12T21:09:29.502Z</time>
      </trkpt>
      <trkpt lat="50.50153" lon="1.623">
        <ele>18.012084960938</ele>
        <time>2021-01-12T21:09:35.048Z</time>
      </trkpt>
      <trkpt lat="50.50148" lon="1.62299">
        <ele>18.130851745605</ele>
        <time>2021-01-12T21:09:40.595Z</time>
      </trkpt>
      <trkpt lat="50.50133" lon="1.62292">
        <ele>18.171073913574</ele>
        <time>2021-01-12T21:09:46.145Z</time>
      </trkpt>
      <trkpt lat="50.50131" lon="1.6229">
        <ele>18.171073913574</ele>
        <time>2021-01-12T21:09:51.696Z</time>
      </trkpt>
      <trkpt lat="50.50129" lon="1.62289">
        <ele>18.127885818481</ele>
        <time>2021-01-12T21:09:57.247Z</time>
      </trkpt>
      <trkpt lat="50.50128" lon="1.6229">
        <ele>17.857961654663</ele>
        <time>2021-01-12T21:10:02.799Z</time>
      </trkpt>
      <trkpt lat="50.50127" lon="1.6229">
        <ele>17.728397369385</ele>
        <time>2021-01-12T21:10:08.351Z</time>
      </trkpt>
      <trkpt lat="50.50126" lon="1.6229">
        <ele>17.588037490845</ele>
        <time>2021-01-12T21:10:13.903Z</time>
      </trkpt>
      <trkpt lat="50.50124" lon="1.62291">
        <ele>17.318111419678</ele>
        <time>2021-01-12T21:10:19.455Z</time>
      </trkpt>
      <trkpt lat="50.50122" lon="1.62291">
        <ele>17.069780349731</ele>
        <time>2021-01-12T21:10:25.008Z</time>
      </trkpt>
      <trkpt lat="50.5012" lon="1.62292">
        <ele>16.852174758911</ele>
        <time>2021-01-12T21:10:30.561Z</time>
      </trkpt>
      <trkpt lat="50.50114" lon="1.62296">
        <ele>16.139572143555</ele>
        <time>2021-01-12T21:10:36.115Z</time>
      </trkpt>
      <trkpt lat="50.50062" lon="1.62321">
        <ele>14.119956016541</ele>
        <time>2021-01-12T21:10:41.680Z</time>
      </trkpt>
      <trkpt lat="50.50043" lon="1.62331">
        <ele>13.881377220154</ele>
        <time>2021-01-12T21:10:47.249Z</time>
      </trkpt>
      <trkpt lat="50.50038" lon="1.62332">
        <ele>13.938961029053</ele>
        <time>2021-01-12T21:10:52.819Z</time>
      </trkpt>
      <trkpt lat="50.5002" lon="1.62335">
        <ele>14.133829116821</ele>
        <time>2021-01-12T21:10:58.393Z</time>
      </trkpt>
      <trkpt lat="50.50011" lon="1.62333">
        <ele>14.277789115906</ele>
        <time>2021-01-12T21:11:03.969Z</time>
      </trkpt>
      <trkpt lat="50.49998" lon="1.62328">
        <ele>14.608897209167</ele>
        <time>2021-01-12T21:11:09.547Z</time>
      </trkpt>
      <trkpt lat="50.4996" lon="1.62312">
        <ele>15.803765296936</ele>
        <time>2021-01-12T21:11:15.133Z</time>
      </trkpt>
      <trkpt lat="50.49939" lon="1.62302">
        <ele>15.885398864746</ele>
        <time>2021-01-12T21:11:20.724Z</time>
      </trkpt>
      <trkpt lat="50.49938" lon="1.62297">
        <ele>15.939383506775</ele>
        <time>2021-01-12T21:11:26.315Z</time>
      </trkpt>
      <trkpt lat="50.49937" lon="1.62282">
        <ele>16.425249099731</ele>
        <time>2021-01-12T21:11:31.908Z</time>
      </trkpt>
      <trkpt lat="50.49938" lon="1.62194">
        <ele>16.913724899292</ele>
        <time>2021-01-12T21:11:37.513Z</time>
      </trkpt>
      <trkpt lat="50.49936" lon="1.62103">
        <ele>20.818794250488</ele>
        <time>2021-01-12T21:11:43.129Z</time>
      </trkpt>
      <trkpt lat="50.49898" lon="1.62082">
        <ele>21.806587219238</ele>
        <time>2021-01-12T21:11:48.753Z</time>
      </trkpt>
      <trkpt lat="50.49856" lon="1.62079">
        <ele>24.224182128906</ele>
        <time>2021-01-12T21:11:54.386Z</time>
      </trkpt>
      <trkpt lat="50.49853" lon="1.62061">
        <ele>26.290008544922</ele>
        <time>2021-01-12T21:12:00.021Z</time>
      </trkpt>
      <trkpt lat="50.49853" lon="1.62057">
        <ele>26.746925354004</ele>
        <time>2021-01-12T21:12:05.656Z</time>
      </trkpt>
      <trkpt lat="50.49853" lon="1.62034">
        <ele>29.001043319702</ele>
        <time>2021-01-12T21:12:11.294Z</time>
      </trkpt>
      <trkpt lat="50.4985" lon="1.62016">
        <ele>30.07385635376</ele>
        <time>2021-01-12T21:12:16.935Z</time>
      </trkpt>
      <trkpt lat="50.49846" lon="1.61998">
        <ele>31</ele>
        <time>2021-01-12T21:12:22.578Z</time>
      </trkpt>
      <trkpt lat="50.49846" lon="1.61993">
        <ele>31</ele>
        <time>2021-01-12T21:12:28.222Z</time>
      </trkpt>
      <trkpt lat="50.49848" lon="1.61989">
        <ele>31</ele>
        <time>2021-01-12T21:12:33.866Z</time>
      </trkpt>
      <trkpt lat="50.49849" lon="1.61986">
        <ele>31</ele>
        <time>2021-01-12T21:12:39.511Z</time>
      </trkpt>
      <trkpt lat="50.49851" lon="1.61983">
        <ele>31</ele>
        <time>2021-01-12T21:12:45.156Z</time>
      </trkpt>
      <trkpt lat="50.49853" lon="1.61977">
        <ele>31</ele>
        <time>2021-01-12T21:12:50.802Z</time>
      </trkpt>
      <trkpt lat="50.49854" lon="1.61967">
        <ele>31.05309677124</ele>
        <time>2021-01-12T21:12:56.450Z</time>
      </trkpt>
      <trkpt lat="50.49829" lon="1.61952">
        <ele>30.860105514526</ele>
        <time>2021-01-12T21:13:02.103Z</time>
      </trkpt>
      <trkpt lat="50.49823" lon="1.61946">
        <ele>30.591535568237</ele>
        <time>2021-01-12T21:13:07.757Z</time>
      </trkpt>
      <trkpt lat="50.49822" lon="1.61944">
        <ele>30.429580688477</ele>
        <time>2021-01-12T21:13:13.412Z</time>
      </trkpt>
      <trkpt lat="50.49804" lon="1.61925">
        <ele>29.141138076782</ele>
        <time>2021-01-12T21:13:19.071Z</time>
      </trkpt>
      <trkpt lat="50.49796" lon="1.61919">
        <ele>28.590492248535</ele>
        <time>2021-01-12T21:13:24.732Z</time>
      </trkpt>
      <trkpt lat="50.49781" lon="1.61899">
        <ele>27.363231658936</ele>
        <time>2021-01-12T21:13:30.397Z</time>
      </trkpt>
      <trkpt lat="50.49752" lon="1.61871">
        <ele>26.074480056763</ele>
        <time>2021-01-12T21:13:36.069Z</time>
      </trkpt>
      <trkpt lat="50.49742" lon="1.61873">
        <ele>25.728975296021</ele>
        <time>2021-01-12T21:13:41.742Z</time>
      </trkpt>
      <trkpt lat="50.49706" lon="1.61877">
        <ele>25</ele>
        <time>2021-01-12T21:13:47.423Z</time>
      </trkpt>
      <trkpt lat="50.49695" lon="1.61883">
        <ele>25</ele>
        <time>2021-01-12T21:13:53.106Z</time>
      </trkpt>
      <trkpt lat="50.49688" lon="1.61896">
        <ele>25.317089080811</ele>
        <time>2021-01-12T21:13:58.791Z</time>
      </trkpt>
      <trkpt lat="50.49669" lon="1.61945">
        <ele>23.206031799316</ele>
        <time>2021-01-12T21:14:04.484Z</time>
      </trkpt>
      <trkpt lat="50.49665" lon="1.61947">
        <ele>23.103904724121</ele>
        <time>2021-01-12T21:14:10.177Z</time>
      </trkpt>
      <trkpt lat="50.49658" lon="1.61943">
        <ele>23.503393173218</ele>
        <time>2021-01-12T21:14:15.872Z</time>
      </trkpt>
      <trkpt lat="50.49655" lon="1.61938">
        <ele>24.097229003906</ele>
        <time>2021-01-12T21:14:21.568Z</time>
      </trkpt>
      <trkpt lat="50.4965" lon="1.61935">
        <ele>24.431936264038</ele>
        <time>2021-01-12T21:14:27.265Z</time>
      </trkpt>
      <trkpt lat="50.49644" lon="1.61938">
        <ele>24.086431503296</ele>
        <time>2021-01-12T21:14:32.963Z</time>
      </trkpt>
      <trkpt lat="50.49637" lon="1.61936">
        <ele>24.248386383057</ele>
        <time>2021-01-12T21:14:38.663Z</time>
      </trkpt>
      <trkpt lat="50.4963" lon="1.61938">
        <ele>24.043243408203</ele>
        <time>2021-01-12T21:14:44.364Z</time>
      </trkpt>
      <trkpt lat="50.49626" lon="1.61938">
        <ele>24.086431503296</ele>
        <time>2021-01-12T21:14:50.066Z</time>
      </trkpt>
      <trkpt lat="50.49622" lon="1.61932">
        <ele>24.658672332764</ele>
        <time>2021-01-12T21:14:55.769Z</time>
      </trkpt>
      <trkpt lat="50.49621" lon="1.61929">
        <ele>25.014972686768</ele>
        <time>2021-01-12T21:15:01.472Z</time>
      </trkpt>
      <trkpt lat="50.4962" lon="1.61923">
        <ele>25.695184707642</ele>
        <time>2021-01-12T21:15:07.176Z</time>
      </trkpt>
      <trkpt lat="50.49619" lon="1.61916">
        <ele>26.472568511963</ele>
        <time>2021-01-12T21:15:12.881Z</time>
      </trkpt>
      <trkpt lat="50.49616" lon="1.61904">
        <ele>27.757411956787</ele>
        <time>2021-01-12T21:15:18.588Z</time>
      </trkpt>
      <trkpt lat="50.49607" lon="1.61879">
        <ele>29.334285736084</ele>
        <time>2021-01-12T21:15:24.298Z</time>
      </trkpt>
      <trkpt lat="50.49606" lon="1.61875">
        <ele>29.449453353882</ele>
        <time>2021-01-12T21:15:30.009Z</time>
      </trkpt>
      <trkpt lat="50.49605" lon="1.61871">
        <ele>29.56822013855</ele>
        <time>2021-01-12T21:15:35.720Z</time>
      </trkpt>
      <trkpt lat="50.49604" lon="1.6186">
        <ele>29.884931564331</ele>
        <time>2021-01-12T21:15:41.433Z</time>
      </trkpt>
      <trkpt lat="50.49596" lon="1.6185">
        <ele>29.996501922607</ele>
        <time>2021-01-12T21:15:47.148Z</time>
      </trkpt>
      <trkpt lat="50.49581" lon="1.61871">
        <ele>28.235534667969</ele>
        <time>2021-01-12T21:15:52.867Z</time>
      </trkpt>
      <trkpt lat="50.49485" lon="1.61753">
        <ele>25.449453353882</ele>
        <time>2021-01-12T21:15:58.610Z</time>
      </trkpt>
      <trkpt lat="50.49484" lon="1.6175">
        <ele>25.546625137329</ele>
        <time>2021-01-12T21:16:04.354Z</time>
      </trkpt>
      <trkpt lat="50.49485" lon="1.61743">
        <ele>25.841743469238</ele>
        <time>2021-01-12T21:16:10.099Z</time>
      </trkpt>
      <trkpt lat="50.49503" lon="1.61724">
        <ele>25.848220825195</ele>
        <time>2021-01-12T21:16:15.848Z</time>
      </trkpt>
      <trkpt lat="50.49506" lon="1.61722">
        <ele>25.657472610474</ele>
        <time>2021-01-12T21:16:21.598Z</time>
      </trkpt>
      <trkpt lat="50.49515" lon="1.61711">
        <ele>25</ele>
        <time>2021-01-12T21:16:27.350Z</time>
      </trkpt>
      <trkpt lat="50.49518" lon="1.61699">
        <ele>25</ele>
        <time>2021-01-12T21:16:33.104Z</time>
      </trkpt>
      <trkpt lat="50.4952" lon="1.61687">
        <ele>24.607963562012</ele>
        <time>2021-01-12T21:16:38.859Z</time>
      </trkpt>
      <trkpt lat="50.49525" lon="1.61673">
        <ele>24.104104995728</ele>
        <time>2021-01-12T21:16:44.616Z</time>
      </trkpt>
      <trkpt lat="50.49526" lon="1.61667">
        <ele>23.776329040527</ele>
        <time>2021-01-12T21:16:50.374Z</time>
      </trkpt>
      <trkpt lat="50.4953" lon="1.61657">
        <ele>23.211530685425</ele>
        <time>2021-01-12T21:16:56.133Z</time>
      </trkpt>
      <trkpt lat="50.49531" lon="1.61652">
        <ele>22.930809020996</ele>
        <time>2021-01-12T21:17:01.893Z</time>
      </trkpt>
      <trkpt lat="50.49532" lon="1.61646">
        <ele>22.585304260254</ele>
        <time>2021-01-12T21:17:07.654Z</time>
      </trkpt>
      <trkpt lat="50.49532" lon="1.61642">
        <ele>22.483642578125</ele>
        <time>2021-01-12T21:17:13.416Z</time>
      </trkpt>
      <trkpt lat="50.49533" lon="1.61633">
        <ele>22.206520080566</ele>
        <time>2021-01-12T21:17:19.179Z</time>
      </trkpt>
      <trkpt lat="50.49532" lon="1.61628">
        <ele>22.004976272583</ele>
        <time>2021-01-12T21:17:24.942Z</time>
      </trkpt>
      <trkpt lat="50.49533" lon="1.61623">
        <ele>21.835823059082</ele>
        <time>2021-01-12T21:17:30.706Z</time>
      </trkpt>
      <trkpt lat="50.49533" lon="1.61619">
        <ele>21.692230224609</ele>
        <time>2021-01-12T21:17:36.470Z</time>
      </trkpt>
      <trkpt lat="50.49533" lon="1.61614">
        <ele>21.362432479858</ele>
        <time>2021-01-12T21:17:42.235Z</time>
      </trkpt>
      <trkpt lat="50.49533" lon="1.61609">
        <ele>21.182481765747</ele>
        <time>2021-01-12T21:17:48.001Z</time>
      </trkpt>
      <trkpt lat="50.49536" lon="1.61577">
        <ele>20.235944747925</ele>
        <time>2021-01-12T21:17:53.771Z</time>
      </trkpt>
      <trkpt lat="50.49537" lon="1.61572">
        <ele>20.117177963257</ele>
        <time>2021-01-12T21:17:59.541Z</time>
      </trkpt>
      <trkpt lat="50.49538" lon="1.61545">
        <ele>19.242622375488</ele>
        <time>2021-01-12T21:18:05.315Z</time>
      </trkpt>
      <trkpt lat="50.49538" lon="1.61537">
        <ele>18.940305709839</ele>
        <time>2021-01-12T21:18:11.090Z</time>
      </trkpt>
      <trkpt lat="50.49533" lon="1.61521">
        <ele>18.39253616333</ele>
        <time>2021-01-12T21:18:16.867Z</time>
      </trkpt>
      <trkpt lat="50.49532" lon="1.61511">
        <ele>18.306159973145</ele>
        <time>2021-01-12T21:18:22.646Z</time>
      </trkpt>
      <trkpt lat="50.49532" lon="1.61504">
        <ele>18.192869186401</ele>
        <time>2021-01-12T21:18:28.425Z</time>
      </trkpt>
      <trkpt lat="50.49532" lon="1.61502">
        <ele>18.163877487183</ele>
        <time>2021-01-12T21:18:34.205Z</time>
      </trkpt>
      <trkpt lat="50.49533" lon="1.61498">
        <ele>18.207065582275</ele>
        <time>2021-01-12T21:18:39.985Z</time>
      </trkpt>
      <trkpt lat="50.49536" lon="1.6149">
        <ele>18.304237365723</ele>
        <time>2021-01-12T21:18:45.766Z</time>
      </trkpt>
      <trkpt lat="50.49538" lon="1.61486">
        <ele>18.361822128296</ele>
        <time>2021-01-12T21:18:51.548Z</time>
      </trkpt>
      <trkpt lat="50.49542" lon="1.61478">
        <ele>18.523777008057</ele>
        <time>2021-01-12T21:18:57.331Z</time>
      </trkpt>
      <trkpt lat="50.49547" lon="1.61471">
        <ele>18.866003036499</ele>
        <time>2021-01-12T21:19:03.116Z</time>
      </trkpt>
      <trkpt lat="50.49549" lon="1.61468">
        <ele>19</ele>
        <time>2021-01-12T21:19:08.901Z</time>
      </trkpt>
      <trkpt lat="50.49553" lon="1.6146">
        <ele>19</ele>
        <time>2021-01-12T21:19:14.687Z</time>
      </trkpt>
      <trkpt lat="50.49554" lon="1.61451">
        <ele>19</ele>
        <time>2021-01-12T21:19:20.475Z</time>
      </trkpt>
      <trkpt lat="50.4955" lon="1.61428">
        <ele>18.514446258545</ele>
        <time>2021-01-12T21:19:26.266Z</time>
      </trkpt>
      <trkpt lat="50.49536" lon="1.61402">
        <ele>18.710157394409</ele>
        <time>2021-01-12T21:19:32.061Z</time>
      </trkpt>
      <trkpt lat="50.49532" lon="1.614">
        <ele>18.861316680908</ele>
        <time>2021-01-12T21:19:37.857Z</time>
      </trkpt>
      <trkpt lat="50.49499" lon="1.6141">
        <ele>22.103771209717</ele>
        <time>2021-01-12T21:19:43.660Z</time>
      </trkpt>
      <trkpt lat="50.49479" lon="1.61387">
        <ele>24.241577148438</ele>
        <time>2021-01-12T21:19:49.467Z</time>
      </trkpt>
      <trkpt lat="50.49478" lon="1.61385">
        <ele>24.381938934326</ele>
        <time>2021-01-12T21:19:55.275Z</time>
      </trkpt>
      <trkpt lat="50.49459" lon="1.61375">
        <ele>25</ele>
        <time>2021-01-12T21:20:01.087Z</time>
      </trkpt>
      <trkpt lat="50.49449" lon="1.61375">
        <ele>25</ele>
        <time>2021-01-12T21:20:06.901Z</time>
      </trkpt>
      <trkpt lat="50.49434" lon="1.61377">
        <ele>25</ele>
        <time>2021-01-12T21:20:12.718Z</time>
      </trkpt>
      <trkpt lat="50.49402" lon="1.61348">
        <ele>25.57825088501</ele>
        <time>2021-01-12T21:20:18.542Z</time>
      </trkpt>
      <trkpt lat="50.49395" lon="1.61346">
        <ele>25.766754150391</ele>
        <time>2021-01-12T21:20:24.368Z</time>
      </trkpt>
      <trkpt lat="50.49358" lon="1.61303">
        <ele>28.292585372925</ele>
        <time>2021-01-12T21:20:30.203Z</time>
      </trkpt>
      <trkpt lat="50.49351" lon="1.61291">
        <ele>28.997989654541</ele>
        <time>2021-01-12T21:20:36.040Z</time>
      </trkpt>
      <trkpt lat="50.49336" lon="1.61275">
        <ele>30.117279052734</ele>
        <time>2021-01-12T21:20:41.881Z</time>
      </trkpt>
      <trkpt lat="50.4929" lon="1.61228">
        <ele>31</ele>
        <time>2021-01-12T21:20:47.733Z</time>
      </trkpt>
      <trkpt lat="50.49289" lon="1.61226">
        <ele>31</ele>
        <time>2021-01-12T21:20:53.585Z</time>
      </trkpt>
      <trkpt lat="50.4928" lon="1.61213">
        <ele>31</ele>
        <time>2021-01-12T21:20:59.439Z</time>
      </trkpt>
      <trkpt lat="50.49266" lon="1.61196">
        <ele>30.583337783813</ele>
        <time>2021-01-12T21:21:05.297Z</time>
      </trkpt>
      <trkpt lat="50.4926" lon="1.6117">
        <ele>30.361333847046</ele>
        <time>2021-01-12T21:21:11.159Z</time>
      </trkpt>
      <trkpt lat="50.49244" lon="1.61145">
        <ele>28.68090057373</ele>
        <time>2021-01-12T21:21:17.025Z</time>
      </trkpt>
      <trkpt lat="50.49237" lon="1.61133">
        <ele>27.75235748291</ele>
        <time>2021-01-12T21:21:22.893Z</time>
      </trkpt>
      <trkpt lat="50.49236" lon="1.61118">
        <ele>27.15852355957</ele>
        <time>2021-01-12T21:21:28.763Z</time>
      </trkpt>
      <trkpt lat="50.49231" lon="1.61106">
        <ele>26.668970108032</ele>
        <time>2021-01-12T21:21:34.635Z</time>
      </trkpt>
      <trkpt lat="50.49228" lon="1.61102">
        <ele>26.409841537476</ele>
        <time>2021-01-12T21:21:40.508Z</time>
      </trkpt>
      <trkpt lat="50.49218" lon="1.61095">
        <ele>25.675645828247</ele>
        <time>2021-01-12T21:21:46.383Z</time>
      </trkpt>
      <trkpt lat="50.49208" lon="1.61095">
        <ele>24.970241546631</ele>
        <time>2021-01-12T21:21:52.260Z</time>
      </trkpt>
      <trkpt lat="50.492" lon="1.61082">
        <ele>24.444787979126</ele>
        <time>2021-01-12T21:21:58.139Z</time>
      </trkpt>
      <trkpt lat="50.49192" lon="1.61081">
        <ele>23.868947982788</ele>
        <time>2021-01-12T21:22:04.020Z</time>
      </trkpt>
      <trkpt lat="50.49189" lon="1.61072">
        <ele>23.638610839844</ele>
        <time>2021-01-12T21:22:09.902Z</time>
      </trkpt>
      <trkpt lat="50.49184" lon="1.6107">
        <ele>23.28590965271</ele>
        <time>2021-01-12T21:22:15.785Z</time>
      </trkpt>
      <trkpt lat="50.49163" lon="1.61053">
        <ele>21.673868179321</ele>
        <time>2021-01-12T21:22:21.673Z</time>
      </trkpt>
      <trkpt lat="50.49144" lon="1.61009">
        <ele>20.174562454224</ele>
        <time>2021-01-12T21:22:27.568Z</time>
      </trkpt>
      <trkpt lat="50.49121" lon="1.60935">
        <ele>19.375583648682</ele>
        <time>2021-01-12T21:22:33.473Z</time>
      </trkpt>
      <trkpt lat="50.49129" lon="1.60912">
        <ele>19.667102813721</ele>
        <time>2021-01-12T21:22:39.382Z</time>
      </trkpt>
      <trkpt lat="50.49131" lon="1.60909">
        <ele>19.710290908813</ele>
        <time>2021-01-12T21:22:45.291Z</time>
      </trkpt>
      <trkpt lat="50.49136" lon="1.6089">
        <ele>19.96630859375</ele>
        <time>2021-01-12T21:22:51.203Z</time>
      </trkpt>
      <trkpt lat="50.49133" lon="1.60887">
        <ele>19.97350692749</ele>
        <time>2021-01-12T21:22:57.115Z</time>
      </trkpt>
      <trkpt lat="50.4911" lon="1.60901">
        <ele>19</ele>
        <time>2021-01-12T21:23:03.032Z</time>
      </trkpt>
      <trkpt lat="50.49054" lon="1.6091">
        <ele>18.316923141479</ele>
        <time>2021-01-12T21:23:08.961Z</time>
      </trkpt>
      <trkpt lat="50.49036" lon="1.60863">
        <ele>19.342638015747</ele>
        <time>2021-01-12T21:23:14.896Z</time>
      </trkpt>
      <trkpt lat="50.49028" lon="1.60776">
        <ele>21.860383987427</ele>
        <time>2021-01-12T21:23:20.843Z</time>
      </trkpt>
      <trkpt lat="50.49" lon="1.607">
        <ele>20</ele>
        <time>2021-01-12T21:23:26.801Z</time>
      </trkpt>
      <trkpt lat="50.48971" lon="1.60651">
        <ele>21.06742477417</ele>
        <time>2021-01-12T21:23:32.768Z</time>
      </trkpt>
      <trkpt lat="50.48953" lon="1.60651">
        <ele>22.334274291992</ele>
        <time>2021-01-12T21:23:38.738Z</time>
      </trkpt>
      <trkpt lat="50.48949" lon="1.60642">
        <ele>22.668558120728</ele>
        <time>2021-01-12T21:23:44.710Z</time>
      </trkpt>
      <trkpt lat="50.4895" lon="1.60629">
        <ele>23.47473526001</ele>
        <time>2021-01-12T21:23:50.683Z</time>
      </trkpt>
      <trkpt lat="50.48951" lon="1.60623">
        <ele>23.820238113403</ele>
        <time>2021-01-12T21:23:56.657Z</time>
      </trkpt>
      <trkpt lat="50.48952" lon="1.60602">
        <ele>24.626148223877</ele>
        <time>2021-01-12T21:24:02.634Z</time>
      </trkpt>
      <trkpt lat="50.48952" lon="1.60591">
        <ele>24.764932632446</ele>
        <time>2021-01-12T21:24:08.612Z</time>
      </trkpt>
      <trkpt lat="50.48952" lon="1.60587">
        <ele>24.538194656372</ele>
        <time>2021-01-12T21:24:14.591Z</time>
      </trkpt>
      <trkpt lat="50.48951" lon="1.60581">
        <ele>24.552591323853</ele>
        <time>2021-01-12T21:24:20.570Z</time>
      </trkpt>
      <trkpt lat="50.48945" lon="1.60579">
        <ele>25.632291793823</ele>
        <time>2021-01-12T21:24:26.551Z</time>
      </trkpt>
      <trkpt lat="50.48938" lon="1.60569">
        <ele>26.082077026367</ele>
        <time>2021-01-12T21:24:32.534Z</time>
      </trkpt>
      <trkpt lat="50.48934" lon="1.60566">
        <ele>26.337606430054</ele>
        <time>2021-01-12T21:24:38.517Z</time>
      </trkpt>
      <trkpt lat="50.48927" lon="1.60562">
        <ele>27.03581237793</ele>
        <time>2021-01-12T21:24:44.502Z</time>
      </trkpt>
      <trkpt lat="50.48926" lon="1.6056">
        <ele>26.974628448486</ele>
        <time>2021-01-12T21:24:50.487Z</time>
      </trkpt>
      <trkpt lat="50.48926" lon="1.60559">
        <ele>26.945837020874</ele>
        <time>2021-01-12T21:24:56.472Z</time>
      </trkpt>
      <trkpt lat="50.48924" lon="1.60555">
        <ele>27.111391067505</ele>
        <time>2021-01-12T21:25:02.458Z</time>
      </trkpt>
      <trkpt lat="50.4892" lon="1.60545">
        <ele>27.122188568115</ele>
        <time>2021-01-12T21:25:08.446Z</time>
      </trkpt>
      <trkpt lat="50.48919" lon="1.60532">
        <ele>26.787481307983</ele>
        <time>2021-01-12T21:25:14.435Z</time>
      </trkpt>
      <trkpt lat="50.48919" lon="1.60526">
        <ele>26.405908584595</ele>
        <time>2021-01-12T21:25:20.425Z</time>
      </trkpt>
      <trkpt lat="50.48922" lon="1.60521">
        <ele>25.668113708496</ele>
        <time>2021-01-12T21:25:26.416Z</time>
      </trkpt>
      <trkpt lat="50.48926" lon="1.60516">
        <ele>24.905126571655</ele>
        <time>2021-01-12T21:25:32.408Z</time>
      </trkpt>
      <trkpt lat="50.48933" lon="1.60498">
        <ele>23.600522994995</ele>
        <time>2021-01-12T21:25:38.403Z</time>
      </trkpt>
      <trkpt lat="50.48952" lon="1.6043">
        <ele>18.774784088135</ele>
        <time>2021-01-12T21:25:44.407Z</time>
      </trkpt>
      <trkpt lat="50.48939" lon="1.60388">
        <ele>18.25652885437</ele>
        <time>2021-01-12T21:25:50.417Z</time>
      </trkpt>
      <trkpt lat="50.48933" lon="1.60389">
        <ele>18.71000289917</ele>
        <time>2021-01-12T21:25:56.428Z</time>
      </trkpt>
      <trkpt lat="50.48932" lon="1.60395">
        <ele>18.987125396729</ele>
        <time>2021-01-12T21:26:02.440Z</time>
      </trkpt>
      <trkpt lat="50.48926" lon="1.60411">
        <ele>20.002044677734</ele>
        <time>2021-01-12T21:26:08.455Z</time>
      </trkpt>
      <trkpt lat="50.48901" lon="1.60433">
        <ele>23.618516921997</ele>
        <time>2021-01-12T21:26:14.475Z</time>
      </trkpt>
      <trkpt lat="50.48893" lon="1.60435">
        <ele>24.230346679688</ele>
        <time>2021-01-12T21:26:20.497Z</time>
      </trkpt>
      <trkpt lat="50.48883" lon="1.60432">
        <ele>24.666536331177</ele>
        <time>2021-01-12T21:26:26.521Z</time>
      </trkpt>
      <trkpt lat="50.48868" lon="1.60404">
        <ele>23.570274353027</ele>
        <time>2021-01-12T21:26:32.550Z</time>
      </trkpt>
      <trkpt lat="50.48863" lon="1.60358">
        <ele>21.511125564575</ele>
        <time>2021-01-12T21:26:38.585Z</time>
      </trkpt>
      <trkpt lat="50.48862" lon="1.60347">
        <ele>20.769731521606</ele>
        <time>2021-01-12T21:26:44.621Z</time>
      </trkpt>
      <trkpt lat="50.48853" lon="1.60309">
        <ele>19.564010620117</ele>
        <time>2021-01-12T21:26:50.662Z</time>
      </trkpt>
      <trkpt lat="50.48829" lon="1.60235">
        <ele>19.147891998291</ele>
        <time>2021-01-12T21:26:56.714Z</time>
      </trkpt>
      <trkpt lat="50.48823" lon="1.60193">
        <ele>19</ele>
        <time>2021-01-12T21:27:02.771Z</time>
      </trkpt>
      <trkpt lat="50.48818" lon="1.60176">
        <ele>18.770853042603</ele>
        <time>2021-01-12T21:27:08.831Z</time>
      </trkpt>
      <trkpt lat="50.48805" lon="1.60163">
        <ele>18.748403549194</ele>
        <time>2021-01-12T21:27:14.894Z</time>
      </trkpt>
      <trkpt lat="50.48789" lon="1.60164">
        <ele>18.809585571289</ele>
        <time>2021-01-12T21:27:20.960Z</time>
      </trkpt>
      <trkpt lat="50.48781" lon="1.6018">
        <ele>19.25724029541</ele>
        <time>2021-01-12T21:27:27.029Z</time>
      </trkpt>
      <trkpt lat="50.48775" lon="1.6021">
        <ele>20.439933776855</ele>
        <time>2021-01-12T21:27:33.102Z</time>
      </trkpt>
      <trkpt lat="50.48775" lon="1.60216">
        <ele>20.670269012451</ele>
        <time>2021-01-12T21:27:39.176Z</time>
      </trkpt>
      <trkpt lat="50.48773" lon="1.60223">
        <ele>20.922199249268</ele>
        <time>2021-01-12T21:27:45.250Z</time>
      </trkpt>
      <trkpt lat="50.48771" lon="1.60228">
        <ele>21.120143890381</ele>
        <time>2021-01-12T21:27:51.325Z</time>
      </trkpt>
      <trkpt lat="50.48769" lon="1.60237">
        <ele>21.4260597229</ele>
        <time>2021-01-12T21:27:57.402Z</time>
      </trkpt>
      <trkpt lat="50.48769" lon="1.60255">
        <ele>22.081077575684</ele>
        <time>2021-01-12T21:28:03.481Z</time>
      </trkpt>
      <trkpt lat="50.48772" lon="1.60267">
        <ele>22.520154953003</ele>
        <time>2021-01-12T21:28:09.562Z</time>
      </trkpt>
      <trkpt lat="50.48772" lon="1.6028">
        <ele>22.984426498413</ele>
        <time>2021-01-12T21:28:15.644Z</time>
      </trkpt>
      <trkpt lat="50.48766" lon="1.60296">
        <ele>23.556667327881</ele>
        <time>2021-01-12T21:28:21.728Z</time>
      </trkpt>
      <trkpt lat="50.48756" lon="1.60286">
        <ele>23.178771972656</ele>
        <time>2021-01-12T21:28:27.815Z</time>
      </trkpt>
      <trkpt lat="50.48746" lon="1.60276">
        <ele>22.840467453003</ele>
        <time>2021-01-12T21:28:33.904Z</time>
      </trkpt>
      <trkpt lat="50.48738" lon="1.60256">
        <ele>22.106269836426</ele>
        <time>2021-01-12T21:28:39.996Z</time>
      </trkpt>
      <trkpt lat="50.48733" lon="1.60222">
        <ele>20.897006988525</ele>
        <time>2021-01-12T21:28:46.093Z</time>
      </trkpt>
      <trkpt lat="50.48732" lon="1.60203">
        <ele>20.205997467041</ele>
        <time>2021-01-12T21:28:52.192Z</time>
      </trkpt>
      <trkpt lat="50.48736" lon="1.60159">
        <ele>19.363164901733</ele>
        <time>2021-01-12T21:28:58.297Z</time>
      </trkpt>
      <trkpt lat="50.48729" lon="1.60139">
        <ele>19.486587524414</ele>
        <time>2021-01-12T21:29:04.405Z</time>
      </trkpt>
      <trkpt lat="50.48725" lon="1.60138">
        <ele>19.796100616455</ele>
        <time>2021-01-12T21:29:10.514Z</time>
      </trkpt>
      <trkpt lat="50.4871" lon="1.60139">
        <ele>20.825414657593</ele>
        <time>2021-01-12T21:29:16.625Z</time>
      </trkpt>
      <trkpt lat="50.48702" lon="1.60151">
        <ele>21.059539794922</ele>
        <time>2021-01-12T21:29:22.739Z</time>
      </trkpt>
      <trkpt lat="50.48698" lon="1.6016">
        <ele>21.023548126221</ele>
        <time>2021-01-12T21:29:28.854Z</time>
      </trkpt>
      <trkpt lat="50.48692" lon="1.60186">
        <ele>21.17144203186</ele>
        <time>2021-01-12T21:29:34.973Z</time>
      </trkpt>
      <trkpt lat="50.4869" lon="1.60187">
        <ele>21.272212982178</ele>
        <time>2021-01-12T21:29:41.092Z</time>
      </trkpt>
      <trkpt lat="50.48676" lon="1.60192">
        <ele>22.758800506592</ele>
        <time>2021-01-12T21:29:47.214Z</time>
      </trkpt>
      <trkpt lat="50.48672" lon="1.60194">
        <ele>23.226671218872</ele>
        <time>2021-01-12T21:29:53.337Z</time>
      </trkpt>
      <trkpt lat="50.48669" lon="1.60196">
        <ele>23.716135025024</ele>
        <time>2021-01-12T21:29:59.461Z</time>
      </trkpt>
      <trkpt lat="50.48652" lon="1.60243">
        <ele>26.036245346069</ele>
        <time>2021-01-12T21:30:05.591Z</time>
      </trkpt>
      <trkpt lat="50.48644" lon="1.60273">
        <ele>26.791646957397</ele>
        <time>2021-01-12T21:30:11.725Z</time>
      </trkpt>
      <trkpt lat="50.48649" lon="1.60289">
        <ele>26.626092910767</ele>
        <time>2021-01-12T21:30:17.862Z</time>
      </trkpt>
      <trkpt lat="50.48648" lon="1.603">
        <ele>26.647686004639</ele>
        <time>2021-01-12T21:30:24.000Z</time>
      </trkpt>
      <trkpt lat="50.48652" lon="1.60331">
        <ele>26.507326126099</ele>
        <time>2021-01-12T21:30:30.142Z</time>
      </trkpt>
      <trkpt lat="50.48653" lon="1.60371">
        <ele>27.255918502808</ele>
        <time>2021-01-12T21:30:36.289Z</time>
      </trkpt>
      <trkpt lat="50.4865" lon="1.60377">
        <ele>27.464660644531</ele>
        <time>2021-01-12T21:30:42.437Z</time>
      </trkpt>
      <trkpt lat="50.48648" lon="1.60384">
        <ele>27.723787307739</ele>
        <time>2021-01-12T21:30:48.586Z</time>
      </trkpt>
      <trkpt lat="50.48646" lon="1.60402">
        <ele>28.35001373291</ele>
        <time>2021-01-12T21:30:54.738Z</time>
      </trkpt>
      <trkpt lat="50.48652" lon="1.60446">
        <ele>29.47827911377</ele>
        <time>2021-01-12T21:31:00.895Z</time>
      </trkpt>
      <trkpt lat="50.48667" lon="1.60484">
        <ele>30.036256790161</ele>
        <time>2021-01-12T21:31:07.058Z</time>
      </trkpt>
      <trkpt lat="50.48671" lon="1.60483">
        <ele>30.360166549683</ele>
        <time>2021-01-12T21:31:13.222Z</time>
      </trkpt>
      <trkpt lat="50.48673" lon="1.6048">
        <ele>30.409297943115</ele>
        <time>2021-01-12T21:31:19.386Z</time>
      </trkpt>
      <trkpt lat="50.48676" lon="1.60467">
        <ele>30.360033035278</ele>
        <time>2021-01-12T21:31:25.552Z</time>
      </trkpt>
      <trkpt lat="50.48679" lon="1.60467">
        <ele>30.450008392334</ele>
        <time>2021-01-12T21:31:31.719Z</time>
      </trkpt>
      <trkpt lat="50.48693" lon="1.60465">
        <ele>30.63537979126</ele>
        <time>2021-01-12T21:31:37.888Z</time>
      </trkpt>
      <trkpt lat="50.48714" lon="1.60462">
        <ele>30.523809432983</ele>
        <time>2021-01-12T21:31:44.062Z</time>
      </trkpt>
      <trkpt lat="50.48717" lon="1.60451">
        <ele>30.138717651367</ele>
        <time>2021-01-12T21:31:50.237Z</time>
      </trkpt>
      <trkpt lat="50.48721" lon="1.60448">
        <ele>30.009153366089</ele>
        <time>2021-01-12T21:31:56.413Z</time>
      </trkpt>
      <trkpt lat="50.48729" lon="1.60443">
        <ele>29.687198638916</ele>
        <time>2021-01-12T21:32:02.591Z</time>
      </trkpt>
      <trkpt lat="50.48746" lon="1.60486">
        <ele>31.398366928101</ele>
        <time>2021-01-12T21:32:08.775Z</time>
      </trkpt>
      <trkpt lat="50.4875" lon="1.60486">
        <ele>31.378671646118</ele>
        <time>2021-01-12T21:32:14.960Z</time>
      </trkpt>
      <trkpt lat="50.48758" lon="1.60488">
        <ele>31.141138076782</ele>
        <time>2021-01-12T21:32:21.147Z</time>
      </trkpt>
      <trkpt lat="50.48774" lon="1.60475">
        <ele>30.995279312134</ele>
        <time>2021-01-12T21:32:27.337Z</time>
      </trkpt>
      <trkpt lat="50.48775" lon="1.60473">
        <ele>30.93409538269</ele>
        <time>2021-01-12T21:32:33.528Z</time>
      </trkpt>
      <trkpt lat="50.48781" lon="1.60411">
        <ele>28.556533813477</ele>
        <time>2021-01-12T21:32:39.727Z</time>
      </trkpt>
      <trkpt lat="50.48786" lon="1.60394">
        <ele>27.800745010376</ele>
        <time>2021-01-12T21:32:45.928Z</time>
      </trkpt>
      <trkpt lat="50.48799" lon="1.60411">
        <ele>27.941104888916</ele>
        <time>2021-01-12T21:32:52.133Z</time>
      </trkpt>
      <trkpt lat="50.48801" lon="1.60413">
        <ele>27.923110961914</ele>
        <time>2021-01-12T21:32:58.338Z</time>
      </trkpt>
      <trkpt lat="50.48799" lon="1.60416">
        <ele>28.110258102417</ele>
        <time>2021-01-12T21:33:04.544Z</time>
      </trkpt>
      <trkpt lat="50.48788" lon="1.60499">
        <ele>31.362121582031</ele>
        <time>2021-01-12T21:33:10.760Z</time>
      </trkpt>
      <trkpt lat="50.48794" lon="1.6051">
        <ele>31.850986480713</ele>
        <time>2021-01-12T21:33:16.978Z</time>
      </trkpt>
      <trkpt lat="50.48796" lon="1.6051">
        <ele>31.901371002197</ele>
        <time>2021-01-12T21:33:23.197Z</time>
      </trkpt>
      <trkpt lat="50.48797" lon="1.6051">
        <ele>31.94815826416</ele>
        <time>2021-01-12T21:33:29.416Z</time>
      </trkpt>
      <trkpt lat="50.48798" lon="1.60511">
        <ele>32.020137786865</ele>
        <time>2021-01-12T21:33:35.635Z</time>
      </trkpt>
      <trkpt lat="50.48803" lon="1.60513">
        <ele>32.272068023682</ele>
        <time>2021-01-12T21:33:41.855Z</time>
      </trkpt>
      <trkpt lat="50.48806" lon="1.60516">
        <ele>32.460071563721</ele>
        <time>2021-01-12T21:33:48.076Z</time>
      </trkpt>
      <trkpt lat="50.48808" lon="1.60517">
        <ele>32.521255493164</ele>
        <time>2021-01-12T21:33:54.297Z</time>
      </trkpt>
      <trkpt lat="50.48809" lon="1.60518">
        <ele>32.546447753906</ele>
        <time>2021-01-12T21:34:00.519Z</time>
      </trkpt>
      <trkpt lat="50.48811" lon="1.60519">
        <ele>32.578838348389</ele>
        <time>2021-01-12T21:34:06.741Z</time>
      </trkpt>
      <trkpt lat="50.48813" lon="1.6052">
        <ele>32.625625610352</ele>
        <time>2021-01-12T21:34:12.963Z</time>
      </trkpt>
      <trkpt lat="50.48814" lon="1.60523">
        <ele>32.729995727539</ele>
        <time>2021-01-12T21:34:19.186Z</time>
      </trkpt>
      <trkpt lat="50.48814" lon="1.60528">
        <ele>32.891952514648</ele>
        <time>2021-01-12T21:34:25.409Z</time>
      </trkpt>
      <trkpt lat="50.48811" lon="1.60537">
        <ele>33.212265014648</ele>
        <time>2021-01-12T21:34:31.634Z</time>
      </trkpt>
      <trkpt lat="50.48817" lon="1.60576">
        <ele>33.413028717041</ele>
        <time>2021-01-12T21:34:37.864Z</time>
      </trkpt>
      <trkpt lat="50.48819" lon="1.60581">
        <ele>33.481410980225</ele>
        <time>2021-01-12T21:34:44.095Z</time>
      </trkpt>
      <trkpt lat="50.48819" lon="1.60584">
        <ele>33.492206573486</ele>
        <time>2021-01-12T21:34:50.326Z</time>
      </trkpt>
      <trkpt lat="50.48806" lon="1.60648">
        <ele>29.578495025635</ele>
        <time>2021-01-12T21:34:56.565Z</time>
      </trkpt>
      <trkpt lat="50.48801" lon="1.60648">
        <ele>29.231279373169</ele>
        <time>2021-01-12T21:35:02.805Z</time>
      </trkpt>
      <trkpt lat="50.48798" lon="1.60645">
        <ele>29.238477706909</ele>
        <time>2021-01-12T21:35:09.046Z</time>
      </trkpt>
      <trkpt lat="50.48792" lon="1.6064">
        <ele>29.216884613037</ele>
        <time>2021-01-12T21:35:15.288Z</time>
      </trkpt>
      <trkpt lat="50.48789" lon="1.60636">
        <ele>29.26727104187</ele>
        <time>2021-01-12T21:35:21.531Z</time>
      </trkpt>
      <trkpt lat="50.48775" lon="1.6062">
        <ele>29.477390289307</ele>
        <time>2021-01-12T21:35:27.778Z</time>
      </trkpt>
      <trkpt lat="50.48767" lon="1.60619">
        <ele>29.247053146362</ele>
        <time>2021-01-12T21:35:34.026Z</time>
      </trkpt>
      <trkpt lat="50.48755" lon="1.60627">
        <ele>27.958822250366</ele>
        <time>2021-01-12T21:35:40.277Z</time>
      </trkpt>
      <trkpt lat="50.48733" lon="1.60638">
        <ele>25.812118530273</ele>
        <time>2021-01-12T21:35:46.533Z</time>
      </trkpt>
      <trkpt lat="50.48704" lon="1.6064">
        <ele>23.88264465332</ele>
        <time>2021-01-12T21:35:52.794Z</time>
      </trkpt>
      <trkpt lat="50.48675" lon="1.60618">
        <ele>24.015151977539</ele>
        <time>2021-01-12T21:35:59.062Z</time>
      </trkpt>
      <trkpt lat="50.48657" lon="1.60619">
        <ele>23.658716201782</ele>
        <time>2021-01-12T21:36:05.333Z</time>
      </trkpt>
      <trkpt lat="50.48652" lon="1.60617">
        <ele>23.78108215332</ele>
        <time>2021-01-12T21:36:11.605Z</time>
      </trkpt>
      <trkpt lat="50.48638" lon="1.60624">
        <ele>23.672168731689</ele>
        <time>2021-01-12T21:36:17.880Z</time>
      </trkpt>
      <trkpt lat="50.48632" lon="1.60633">
        <ele>24.075256347656</ele>
        <time>2021-01-12T21:36:24.157Z</time>
      </trkpt>
      <trkpt lat="50.48615" lon="1.60646">
        <ele>25.242244720459</ele>
        <time>2021-01-12T21:36:30.438Z</time>
      </trkpt>
      <trkpt lat="50.48612" lon="1.6065">
        <ele>25.53736114502</ele>
        <time>2021-01-12T21:36:36.720Z</time>
      </trkpt>
      <trkpt lat="50.48611" lon="1.60637">
        <ele>26.189647674561</ele>
        <time>2021-01-12T21:36:43.003Z</time>
      </trkpt>
      <trkpt lat="50.48602" lon="1.60611">
        <ele>27.427703857422</ele>
        <time>2021-01-12T21:36:49.290Z</time>
      </trkpt>
      <trkpt lat="50.48601" lon="1.60612">
        <ele>27.420505523682</ele>
        <time>2021-01-12T21:36:55.577Z</time>
      </trkpt>
      <trkpt lat="50.48587" lon="1.60629">
        <ele>27.729341506958</ele>
        <time>2021-01-12T21:37:01.868Z</time>
      </trkpt>
      <trkpt lat="50.48574" lon="1.60632">
        <ele>28</ele>
        <time>2021-01-12T21:37:08.162Z</time>
      </trkpt>
      <trkpt lat="50.48573" lon="1.60639">
        <ele>28.269769668579</ele>
        <time>2021-01-12T21:37:14.457Z</time>
      </trkpt>
      <trkpt lat="50.48576" lon="1.60658">
        <ele>28.26416015625</ele>
        <time>2021-01-12T21:37:20.754Z</time>
      </trkpt>
      <trkpt lat="50.48576" lon="1.60667">
        <ele>28.26056098938</ele>
        <time>2021-01-12T21:37:27.052Z</time>
      </trkpt>
      <trkpt lat="50.4857" lon="1.60678">
        <ele>28.200445175171</ele>
        <time>2021-01-12T21:37:33.352Z</time>
      </trkpt>
      <trkpt lat="50.48564" lon="1.6068">
        <ele>28.392080307007</ele>
        <time>2021-01-12T21:37:39.653Z</time>
      </trkpt>
      <trkpt lat="50.48546" lon="1.60686">
        <ele>29.340261459351</ele>
        <time>2021-01-12T21:37:45.958Z</time>
      </trkpt>
      <trkpt lat="50.4854" lon="1.60683">
        <ele>29.545404434204</ele>
        <time>2021-01-12T21:37:52.264Z</time>
      </trkpt>
      <trkpt lat="50.48534" lon="1.60678">
        <ele>29.754146575928</ele>
        <time>2021-01-12T21:37:58.571Z</time>
      </trkpt>
      <trkpt lat="50.48509" lon="1.60705">
        <ele>29.716222763062</ele>
        <time>2021-01-12T21:38:04.884Z</time>
      </trkpt>
      <trkpt lat="50.485" lon="1.60707">
        <ele>29.640644073486</ele>
        <time>2021-01-12T21:38:11.199Z</time>
      </trkpt>
      <trkpt lat="50.48493" lon="1.60704">
        <ele>29.504482269287</ele>
        <time>2021-01-12T21:38:17.516Z</time>
      </trkpt>
      <trkpt lat="50.48486" lon="1.60702">
        <ele>29.342527389526</ele>
        <time>2021-01-12T21:38:23.834Z</time>
      </trkpt>
      <trkpt lat="50.48475" lon="1.60706">
        <ele>28.78468132019</ele>
        <time>2021-01-12T21:38:30.155Z</time>
      </trkpt>
      <trkpt lat="50.48471" lon="1.60704">
        <ele>28.705581665039</ele>
        <time>2021-01-12T21:38:36.476Z</time>
      </trkpt>
      <trkpt lat="50.48467" lon="1.60697">
        <ele>28.647996902466</ele>
        <time>2021-01-12T21:38:42.799Z</time>
      </trkpt>
      <trkpt lat="50.48446" lon="1.60674">
        <ele>28.018173217773</ele>
        <time>2021-01-12T21:38:49.127Z</time>
      </trkpt>
      <trkpt lat="50.48443" lon="1.6067">
        <ele>27.881410598755</ele>
        <time>2021-01-12T21:38:55.456Z</time>
      </trkpt>
      <trkpt lat="50.4844" lon="1.60668">
        <ele>27.682399749756</ele>
        <time>2021-01-12T21:39:01.785Z</time>
      </trkpt>
      <trkpt lat="50.48435" lon="1.60663">
        <ele>27.365686416626</ele>
        <time>2021-01-12T21:39:08.115Z</time>
      </trkpt>
      <trkpt lat="50.48412" lon="1.60618">
        <ele>24.975328445435</ele>
        <time>2021-01-12T21:39:14.453Z</time>
      </trkpt>
      <trkpt lat="50.48399" lon="1.6058">
        <ele>23.767030715942</ele>
        <time>2021-01-12T21:39:20.796Z</time>
      </trkpt>
      <trkpt lat="50.48402" lon="1.60544">
        <ele>22.962965011597</ele>
        <time>2021-01-12T21:39:27.144Z</time>
      </trkpt>
      <trkpt lat="50.48407" lon="1.60524">
        <ele>22.430313110352</ele>
        <time>2021-01-12T21:39:33.495Z</time>
      </trkpt>
      <trkpt lat="50.4843" lon="1.60448">
        <ele>20.512046813965</ele>
        <time>2021-01-12T21:39:39.856Z</time>
      </trkpt>
      <trkpt lat="50.48427" lon="1.60387">
        <ele>19</ele>
        <time>2021-01-12T21:39:46.225Z</time>
      </trkpt>
      <trkpt lat="50.48424" lon="1.60383">
        <ele>19</ele>
        <time>2021-01-12T21:39:52.595Z</time>
      </trkpt>
      <trkpt lat="50.48424" lon="1.60378">
        <ele>19</ele>
        <time>2021-01-12T21:39:58.966Z</time>
      </trkpt>
      <trkpt lat="50.48424" lon="1.60372">
        <ele>18.976161956787</ele>
        <time>2021-01-12T21:40:05.337Z</time>
      </trkpt>
      <trkpt lat="50.48448" lon="1.60294">
        <ele>17.852886199951</ele>
        <time>2021-01-12T21:40:11.719Z</time>
      </trkpt>
      <trkpt lat="50.48447" lon="1.60276">
        <ele>18.256261825562</ele>
        <time>2021-01-12T21:40:18.104Z</time>
      </trkpt>
      <trkpt lat="50.48441" lon="1.60271">
        <ele>18.357479095459</ele>
        <time>2021-01-12T21:40:24.490Z</time>
      </trkpt>
      <trkpt lat="50.48424" lon="1.6028">
        <ele>18.716646194458</ele>
        <time>2021-01-12T21:40:30.880Z</time>
      </trkpt>
      <trkpt lat="50.48382" lon="1.60337">
        <ele>19</ele>
        <time>2021-01-12T21:40:37.281Z</time>
      </trkpt>
      <trkpt lat="50.48345" lon="1.60402">
        <ele>18</ele>
        <time>2021-01-12T21:40:43.693Z</time>
      </trkpt>
      <trkpt lat="50.48334" lon="1.6043">
        <ele>18</ele>
        <time>2021-01-12T21:40:50.109Z</time>
      </trkpt>
      <trkpt lat="50.48324" lon="1.60446">
        <ele>18.292407989502</ele>
        <time>2021-01-12T21:40:56.528Z</time>
      </trkpt>
      <trkpt lat="50.4831" lon="1.60458">
        <ele>19.213750839233</ele>
        <time>2021-01-12T21:41:02.950Z</time>
      </trkpt>
      <trkpt lat="50.48308" lon="1.60521">
        <ele>20.913080215454</ele>
        <time>2021-01-12T21:41:09.380Z</time>
      </trkpt>
      <trkpt lat="50.48308" lon="1.6056">
        <ele>20.898683547974</ele>
        <time>2021-01-12T21:41:15.815Z</time>
      </trkpt>
      <trkpt lat="50.48315" lon="1.60632">
        <ele>18.379083633423</ele>
        <time>2021-01-12T21:41:22.260Z</time>
      </trkpt>
      <trkpt lat="50.48323" lon="1.60723">
        <ele>12.745559692383</ele>
        <time>2021-01-12T21:41:28.716Z</time>
      </trkpt>
      <trkpt lat="50.48325" lon="1.60812">
        <ele>12</ele>
        <time>2021-01-12T21:41:35.184Z</time>
      </trkpt>
      <trkpt lat="50.48319" lon="1.6082">
        <ele>12</ele>
        <time>2021-01-12T21:41:41.653Z</time>
      </trkpt>
      <trkpt lat="50.48309" lon="1.60817">
        <ele>12.155756950378</ele>
        <time>2021-01-12T21:41:48.124Z</time>
      </trkpt>
      <trkpt lat="50.4826" lon="1.60794">
        <ele>13</ele>
        <time>2021-01-12T21:41:54.605Z</time>
      </trkpt>
      <trkpt lat="50.48203" lon="1.60773">
        <ele>10.920832633972</ele>
        <time>2021-01-12T21:42:01.098Z</time>
      </trkpt>
      <trkpt lat="50.48182" lon="1.60766">
        <ele>10.109003067017</ele>
        <time>2021-01-12T21:42:07.596Z</time>
      </trkpt>
      <trkpt lat="50.48162" lon="1.60768">
        <ele>10</ele>
        <time>2021-01-12T21:42:14.098Z</time>
      </trkpt>
      <trkpt lat="50.48111" lon="1.60803">
        <ele>11</ele>
        <time>2021-01-12T21:42:20.611Z</time>
      </trkpt>
      <trkpt lat="50.48061" lon="1.60843">
        <ele>10.527020454407</ele>
        <time>2021-01-12T21:42:27.135Z</time>
      </trkpt>
      <trkpt lat="50.48053" lon="1.60846">
        <ele>10.572696685791</ele>
        <time>2021-01-12T21:42:33.661Z</time>
      </trkpt>
      <trkpt lat="50.48011" lon="1.60852">
        <ele>10</ele>
        <time>2021-01-12T21:42:40.195Z</time>
      </trkpt>
      <trkpt lat="50.47969" lon="1.60861">
        <ele>11.243899345398</ele>
        <time>2021-01-12T21:42:46.737Z</time>
      </trkpt>
      <trkpt lat="50.47958" lon="1.60867">
        <ele>11.37742805481</ele>
        <time>2021-01-12T21:42:53.282Z</time>
      </trkpt>
      <trkpt lat="50.47951" lon="1.60873">
        <ele>11.501427650452</ele>
        <time>2021-01-12T21:42:59.828Z</time>
      </trkpt>
      <trkpt lat="50.47947" lon="1.60877">
        <ele>11.753356933594</ele>
        <time>2021-01-12T21:43:06.375Z</time>
      </trkpt>
      <trkpt lat="50.47922" lon="1.6092">
        <ele>11</ele>
        <time>2021-01-12T21:43:12.930Z</time>
      </trkpt>
      <trkpt lat="50.47893" lon="1.60995">
        <ele>12.533818244934</ele>
        <time>2021-01-12T21:43:19.496Z</time>
      </trkpt>
      <trkpt lat="50.47871" lon="1.61042">
        <ele>11.587592124939</ele>
        <time>2021-01-12T21:43:26.069Z</time>
      </trkpt>
      <trkpt lat="50.47859" lon="1.61062">
        <ele>10.742782592773</ele>
        <time>2021-01-12T21:43:32.646Z</time>
      </trkpt>
      <trkpt lat="50.47839" lon="1.61083">
        <ele>9.8756008148193</ele>
        <time>2021-01-12T21:43:39.228Z</time>
      </trkpt>
      <trkpt lat="50.47833" lon="1.61094">
        <ele>9.4610166549683</ele>
        <time>2021-01-12T21:43:45.812Z</time>
      </trkpt>
      <trkpt lat="50.4778" lon="1.61136">
        <ele>10.211874008179</ele>
        <time>2021-01-12T21:43:52.407Z</time>
      </trkpt>
      <trkpt lat="50.47752" lon="1.61152">
        <ele>10.791602134705</ele>
        <time>2021-01-12T21:43:59.008Z</time>
      </trkpt>
      <trkpt lat="50.47708" lon="1.61163">
        <ele>11.015872955322</ele>
        <time>2021-01-12T21:44:05.618Z</time>
      </trkpt>
      <trkpt lat="50.4766" lon="1.61183">
        <ele>11.48081111908</ele>
        <time>2021-01-12T21:44:12.238Z</time>
      </trkpt>
      <trkpt lat="50.47614" lon="1.61221">
        <ele>11.141316413879</ele>
        <time>2021-01-12T21:44:18.869Z</time>
      </trkpt>
      <trkpt lat="50.47619" lon="1.61307">
        <ele>6.7029933929443</ele>
        <time>2021-01-12T21:44:25.511Z</time>
      </trkpt>
      <trkpt lat="50.47634" lon="1.61393">
        <ele>7.0377006530762</ele>
        <time>2021-01-12T21:44:32.164Z</time>
      </trkpt>
      <trkpt lat="50.47639" lon="1.61413">
        <ele>7.7478923797607</ele>
        <time>2021-01-12T21:44:38.820Z</time>
      </trkpt>
      <trkpt lat="50.47671" lon="1.61506">
        <ele>7</ele>
        <time>2021-01-12T19:52:43.000Z</time>
      </trkpt>
      <trkpt lat="50.47671" lon="1.61506">
        <ele>7</ele>
        <time>2021-01-12T19:52:43.000Z</time>
      </trkpt>
      <trkpt lat="50.47672" lon="1.61511">
        <ele>7</ele>
        <time>2021-01-12T19:52:43.001Z</time>
      </trkpt>
      <trkpt lat="50.47676" lon="1.61536">
        <ele>7</ele>
        <time>2021-01-12T19:52:43.005Z</time>
      </trkpt>
      <trkpt lat="50.47679" lon="1.61551">
        <ele>7</ele>
        <time>2021-01-12T19:52:43.011Z</time>
      </trkpt>
      <trkpt lat="50.4768" lon="1.61556">
        <ele>7</ele>
        <time>2021-01-12T19:52:43.018Z</time>
      </trkpt>
      <trkpt lat="50.47682" lon="1.61562">
        <ele>7.1056151390076</ele>
        <time>2021-01-12T19:52:43.025Z</time>
      </trkpt>
      <trkpt lat="50.47683" lon="1.61568">
        <ele>7.3323521614075</ele>
        <time>2021-01-12T19:52:43.033Z</time>
      </trkpt>
      <trkpt lat="50.47686" lon="1.61581">
        <ele>7.6308469772339</ele>
        <time>2021-01-12T19:52:43.043Z</time>
      </trkpt>
      <trkpt lat="50.47687" lon="1.61588">
        <ele>7.4544959068298</ele>
        <time>2021-01-12T19:52:43.054Z</time>
      </trkpt>
      <trkpt lat="50.47689" lon="1.61607">
        <ele>6.9254426956177</ele>
        <time>2021-01-12T19:52:43.067Z</time>
      </trkpt>
      <trkpt lat="50.47689" lon="1.61641">
        <ele>6.7053818702698</ele>
        <time>2021-01-12T19:52:43.085Z</time>
      </trkpt>
      <trkpt lat="50.47689" lon="1.61655">
        <ele>6.1691308021545</ele>
        <time>2021-01-12T19:52:43.104Z</time>
      </trkpt>
      <trkpt lat="50.47688" lon="1.6167">
        <ele>5.5606331825256</ele>
        <time>2021-01-12T19:52:43.125Z</time>
      </trkpt>
      <trkpt lat="50.47686" lon="1.61682">
        <ele>5.4238710403442</ele>
        <time>2021-01-12T19:52:43.148Z</time>
      </trkpt>
      <trkpt lat="50.47686" lon="1.61688">
        <ele>5.4166731834412</ele>
        <time>2021-01-12T19:52:43.172Z</time>
      </trkpt>
      <trkpt lat="50.47686" lon="1.61709">
        <ele>6.1224770545959</ele>
        <time>2021-01-12T19:52:43.198Z</time>
      </trkpt>
      <trkpt lat="50.47684" lon="1.61721">
        <ele>6.4751791954041</ele>
        <time>2021-01-12T19:52:43.226Z</time>
      </trkpt>
      <trkpt lat="50.4768" lon="1.61725">
        <ele>6.4643821716309</ele>
        <time>2021-01-12T19:52:43.255Z</time>
      </trkpt>
      <trkpt lat="50.47677" lon="1.61726">
        <ele>6.3852043151855</ele>
        <time>2021-01-12T19:52:43.285Z</time>
      </trkpt>
      <trkpt lat="50.47641" lon="1.61719">
        <ele>3.9624104499817</ele>
        <time>2021-01-12T19:52:43.322Z</time>
      </trkpt>
      <trkpt lat="50.4762" lon="1.61711">
        <ele>4</ele>
        <time>2021-01-12T19:52:43.363Z</time>
      </trkpt>
      <trkpt lat="50.47603" lon="1.61708">
        <ele>4.2536406517029</ele>
        <time>2021-01-12T19:52:43.407Z</time>
      </trkpt>
      <trkpt lat="50.47595" lon="1.61706">
        <ele>4.5595555305481</ele>
        <time>2021-01-12T19:52:43.453Z</time>
      </trkpt>
      <trkpt lat="50.47552" lon="1.61695">
        <ele>5.1281309127808</ele>
        <time>2021-01-12T19:52:43.508Z</time>
      </trkpt>
      <trkpt lat="50.47521" lon="1.61692">
        <ele>6.9927353858948</ele>
        <time>2021-01-12T19:52:43.569Z</time>
      </trkpt>
      <trkpt lat="50.47478" lon="1.61683">
        <ele>8.2703800201416</ele>
        <time>2021-01-12T19:52:43.639Z</time>
      </trkpt>
      <trkpt lat="50.47457" lon="1.61682">
        <ele>8.4244155883789</ele>
        <time>2021-01-12T19:52:43.713Z</time>
      </trkpt>
      <trkpt lat="50.47447" lon="1.61679">
        <ele>8.3200445175171</ele>
        <time>2021-01-12T19:52:43.789Z</time>
      </trkpt>
      <trkpt lat="50.47409" lon="1.61665">
        <ele>8.2464981079102</ele>
        <time>2021-01-12T19:52:43.873Z</time>
      </trkpt>
      <trkpt lat="50.47405" lon="1.61664">
        <ele>8.4084529876709</ele>
        <time>2021-01-12T19:52:43.958Z</time>
      </trkpt>
      <trkpt lat="50.47356" lon="1.61648">
        <ele>8</ele>
        <time>2021-01-12T19:52:44.053Z</time>
      </trkpt>
      <trkpt lat="50.47309" lon="1.61602">
        <ele>8</ele>
        <time>2021-01-12T19:52:44.159Z</time>
      </trkpt>
      <trkpt lat="50.47299" lon="1.61589">
        <ele>8</ele>
        <time>2021-01-12T19:52:44.267Z</time>
      </trkpt>
      <trkpt lat="50.47265" lon="1.61539">
        <ele>8.4398555755615</ele>
        <time>2021-01-12T19:52:44.385Z</time>
      </trkpt>
      <trkpt lat="50.47247" lon="1.61504">
        <ele>10.135561943054</ele>
        <time>2021-01-12T19:52:44.508Z</time>
      </trkpt>
      <trkpt lat="50.47235" lon="1.61478">
        <ele>11.03911113739</ele>
        <time>2021-01-12T19:52:44.636Z</time>
      </trkpt>
      <trkpt lat="50.47212" lon="1.61419">
        <ele>12.329330444336</ele>
        <time>2021-01-12T19:52:44.772Z</time>
      </trkpt>
      <trkpt lat="50.47207" lon="1.61398">
        <ele>12.512879371643</ele>
        <time>2021-01-12T19:52:44.911Z</time>
      </trkpt>
      <trkpt lat="50.47211" lon="1.61389">
        <ele>12.372518539429</ele>
        <time>2021-01-12T19:52:45.052Z</time>
      </trkpt>
      <trkpt lat="50.47219" lon="1.61382">
        <ele>12.376184463501</ele>
        <time>2021-01-12T19:52:45.195Z</time>
      </trkpt>
      <trkpt lat="50.4727" lon="1.61354">
        <ele>11.717422485352</ele>
        <time>2021-01-12T19:52:45.348Z</time>
      </trkpt>
      <trkpt lat="50.47284" lon="1.61346">
        <ele>12.314856529236</ele>
        <time>2021-01-12T19:52:45.504Z</time>
      </trkpt>
      <trkpt lat="50.47289" lon="1.61339">
        <ele>12.481855392456</ele>
        <time>2021-01-12T19:52:45.662Z</time>
      </trkpt>
      <trkpt lat="50.47289" lon="1.61315">
        <ele>13.130597114563</ele>
        <time>2021-01-12T19:52:45.823Z</time>
      </trkpt>
      <trkpt lat="50.47292" lon="1.61286">
        <ele>12.907459259033</ele>
        <time>2021-01-12T19:52:45.987Z</time>
      </trkpt>
      <trkpt lat="50.47303" lon="1.61253">
        <ele>12.075834274292</ele>
        <time>2021-01-12T19:52:46.156Z</time>
      </trkpt>
      <trkpt lat="50.47313" lon="1.61238">
        <ele>11.694340705872</ele>
        <time>2021-01-12T19:52:46.328Z</time>
      </trkpt>
      <trkpt lat="50.4735" lon="1.61197">
        <ele>12</ele>
        <time>2021-01-12T19:52:46.509Z</time>
      </trkpt>
      <trkpt lat="50.4736" lon="1.61179">
        <ele>11.353046417236</ele>
        <time>2021-01-12T19:52:46.693Z</time>
      </trkpt>
      <trkpt lat="50.47367" lon="1.61159">
        <ele>11</ele>
        <time>2021-01-12T19:52:46.880Z</time>
      </trkpt>
      <trkpt lat="50.47371" lon="1.61145">
        <ele>11</ele>
        <time>2021-01-12T19:52:47.069Z</time>
      </trkpt>
      <trkpt lat="50.47375" lon="1.61101">
        <ele>11.473757743835</ele>
        <time>2021-01-12T19:52:47.264Z</time>
      </trkpt>
      <trkpt lat="50.47384" lon="1.61067">
        <ele>12.023527145386</ele>
        <time>2021-01-12T19:52:47.463Z</time>
      </trkpt>
      <trkpt lat="50.47389" lon="1.61056">
        <ele>12.187747955322</ele>
        <time>2021-01-12T19:52:47.664Z</time>
      </trkpt>
      <trkpt lat="50.47396" lon="1.61047">
        <ele>12.562044143677</ele>
        <time>2021-01-12T19:52:47.867Z</time>
      </trkpt>
      <trkpt lat="50.47401" lon="1.61048">
        <ele>12.317312240601</ele>
        <time>2021-01-12T19:52:48.071Z</time>
      </trkpt>
      <trkpt lat="50.47408" lon="1.61053">
        <ele>11.651496887207</ele>
        <time>2021-01-12T19:52:48.277Z</time>
      </trkpt>
      <trkpt lat="50.47431" lon="1.61063">
        <ele>10.856995582581</ele>
        <time>2021-01-12T19:52:48.487Z</time>
      </trkpt>
      <trkpt lat="50.4744" lon="1.61059">
        <ele>10.975762367249</ele>
        <time>2021-01-12T19:52:48.699Z</time>
      </trkpt>
      <trkpt lat="50.47486" lon="1.61085">
        <ele>12.582260131836</ele>
        <time>2021-01-12T19:52:48.921Z</time>
      </trkpt>
      <trkpt lat="50.47501" lon="1.61096">
        <ele>13.38143825531</ele>
        <time>2021-01-12T19:52:49.146Z</time>
      </trkpt>
      <trkpt lat="50.47534" lon="1.61137">
        <ele>13.449585914612</ele>
        <time>2021-01-12T19:52:49.380Z</time>
      </trkpt>
      <trkpt lat="50.47579" lon="1.61192">
        <ele>12.242788314819</ele>
        <time>2021-01-12T19:52:49.625Z</time>
      </trkpt>
      <trkpt lat="50.47586" lon="1.61198">
        <ele>12.109624862671</ele>
        <time>2021-01-12T19:52:49.872Z</time>
      </trkpt>
      <trkpt lat="50.47592" lon="1.61195">
        <ele>12.505515098572</ele>
        <time>2021-01-12T19:52:50.120Z</time>
      </trkpt>
      <trkpt lat="50.47601" lon="1.61148">
        <ele>14.769053459167</ele>
        <time>2021-01-12T19:52:50.374Z</time>
      </trkpt>
      <trkpt lat="50.47609" lon="1.61078">
        <ele>14.048497200012</ele>
        <time>2021-01-12T19:52:50.637Z</time>
      </trkpt>
      <trkpt lat="50.47617" lon="1.60992">
        <ele>14.602110862732</ele>
        <time>2021-01-12T19:52:50.911Z</time>
      </trkpt>
      <trkpt lat="50.47621" lon="1.60905">
        <ele>14</ele>
        <time>2021-01-12T19:52:51.197Z</time>
      </trkpt>
      <trkpt lat="50.47626" lon="1.60825">
        <ele>14.429470062256</ele>
        <time>2021-01-12T19:52:51.493Z</time>
      </trkpt>
      <trkpt lat="50.4763" lon="1.60792">
        <ele>14.289108276367</ele>
        <time>2021-01-12T19:52:51.793Z</time>
      </trkpt>
      <trkpt lat="50.47631" lon="1.60784">
        <ele>14.263916015625</ele>
        <time>2021-01-12T19:52:52.094Z</time>
      </trkpt>
      <trkpt lat="50.47632" lon="1.60768">
        <ele>14.427059173584</ele>
        <time>2021-01-12T19:52:52.397Z</time>
      </trkpt>
      <trkpt lat="50.47634" lon="1.6076">
        <ele>14.340682983398</ele>
        <time>2021-01-12T19:52:52.701Z</time>
      </trkpt>
      <trkpt lat="50.47637" lon="1.60736">
        <ele>14.074357032776</ele>
        <time>2021-01-12T19:52:53.008Z</time>
      </trkpt>
      <trkpt lat="50.47645" lon="1.60704">
        <ele>13.760055541992</ele>
        <time>2021-01-12T19:52:53.320Z</time>
      </trkpt>
      <trkpt lat="50.47677" lon="1.60634">
        <ele>15.2751121521</ele>
        <time>2021-01-12T19:52:53.643Z</time>
      </trkpt>
      <trkpt lat="50.47712" lon="1.60573">
        <ele>15.855217933655</ele>
        <time>2021-01-12T19:52:53.976Z</time>
      </trkpt>
      <trkpt lat="50.47725" lon="1.60548">
        <ele>15.783304214478</ele>
        <time>2021-01-12T19:52:54.313Z</time>
      </trkpt>
      <trkpt lat="50.47734" lon="1.6053">
        <ele>15.553346633911</ele>
        <time>2021-01-12T19:52:54.653Z</time>
      </trkpt>
      <trkpt lat="50.4775" lon="1.60481">
        <ele>15.777983665466</ele>
        <time>2021-01-12T19:52:55.000Z</time>
      </trkpt>
      <trkpt lat="50.47764" lon="1.60399">
        <ele>16.732763290405</ele>
        <time>2021-01-12T19:52:55.358Z</time>
      </trkpt>
      <trkpt lat="50.47778" lon="1.60311">
        <ele>17.973384857178</ele>
        <time>2021-01-12T19:52:55.728Z</time>
      </trkpt>
      <trkpt lat="50.47792" lon="1.60266">
        <ele>17</ele>
        <time>2021-01-12T19:52:56.104Z</time>
      </trkpt>
      <trkpt lat="50.47805" lon="1.60283">
        <ele>17.005254745483</ele>
        <time>2021-01-12T19:52:56.484Z</time>
      </trkpt>
      <trkpt lat="50.47816" lon="1.60314">
        <ele>16.813507080078</ele>
        <time>2021-01-12T19:52:56.868Z</time>
      </trkpt>
      <trkpt lat="50.47857" lon="1.60367">
        <ele>16.887819290161</ele>
        <time>2021-01-12T19:52:57.263Z</time>
      </trkpt>
      <trkpt lat="50.47905" lon="1.60414">
        <ele>19.846019744873</ele>
        <time>2021-01-12T19:52:57.669Z</time>
      </trkpt>
      <trkpt lat="50.47958" lon="1.6045">
        <ele>25.002431869507</ele>
        <time>2021-01-12T19:52:58.087Z</time>
      </trkpt>
      <trkpt lat="50.48011" lon="1.60474">
        <ele>28.349981307983</ele>
        <time>2021-01-12T19:52:58.516Z</time>
      </trkpt>
      <trkpt lat="50.48067" lon="1.60493">
        <ele>29.762454986572</ele>
        <time>2021-01-12T19:52:58.956Z</time>
      </trkpt>
      <trkpt lat="50.48121" lon="1.60506">
        <ele>26.336206436157</ele>
        <time>2021-01-12T19:52:59.407Z</time>
      </trkpt>
      <trkpt lat="50.48168" lon="1.60518">
        <ele>23.494529724121</ele>
        <time>2021-01-12T19:52:59.868Z</time>
      </trkpt>
      <trkpt lat="50.48223" lon="1.60531">
        <ele>23</ele>
        <time>2021-01-12T19:53:00.340Z</time>
      </trkpt>
      <trkpt lat="50.48228" lon="1.60531">
        <ele>22.999843597412</ele>
        <time>2021-01-12T19:53:00.813Z</time>
      </trkpt>
      <trkpt lat="50.48235" lon="1.60522">
        <ele>22.402410507202</ele>
        <time>2021-01-12T19:53:01.287Z</time>
      </trkpt>
      <trkpt lat="50.48275" lon="1.60466">
        <ele>20.57421875</ele>
        <time>2021-01-12T19:53:01.772Z</time>
      </trkpt>
      <trkpt lat="50.48277" lon="1.60459">
        <ele>20.412263870239</ele>
        <time>2021-01-12T19:53:02.258Z</time>
      </trkpt>
      <trkpt lat="50.48281" lon="1.60446">
        <ele>19.811185836792</ele>
        <time>2021-01-12T19:53:02.746Z</time>
      </trkpt>
      <trkpt lat="50.48282" lon="1.60383">
        <ele>18</ele>
        <time>2021-01-12T19:53:03.242Z</time>
      </trkpt>
      <trkpt lat="50.48279" lon="1.60351">
        <ele>17.086631774902</ele>
        <time>2021-01-12T19:53:03.742Z</time>
      </trkpt>
      <trkpt lat="50.48276" lon="1.60325">
        <ele>15.93883895874</ele>
        <time>2021-01-12T19:53:04.246Z</time>
      </trkpt>
      <trkpt lat="50.48271" lon="1.60302">
        <ele>15.78048324585</ele>
        <time>2021-01-12T19:53:04.753Z</time>
      </trkpt>
      <trkpt lat="50.48275" lon="1.60276">
        <ele>16.073179244995</ele>
        <time>2021-01-12T19:53:05.263Z</time>
      </trkpt>
      <trkpt lat="50.48281" lon="1.60266">
        <ele>16.796600341797</ele>
        <time>2021-01-12T19:53:05.775Z</time>
      </trkpt>
      <trkpt lat="50.48287" lon="1.60235">
        <ele>18.359922409058</ele>
        <time>2021-01-12T19:53:06.291Z</time>
      </trkpt>
      <trkpt lat="50.48274" lon="1.60154">
        <ele>17.449686050415</ele>
        <time>2021-01-12T19:53:06.818Z</time>
      </trkpt>
      <trkpt lat="50.48268" lon="1.6014">
        <ele>16.92423248291</ele>
        <time>2021-01-12T19:53:07.347Z</time>
      </trkpt>
      <trkpt lat="50.48259" lon="1.60075">
        <ele>14.595679283142</ele>
        <time>2021-01-12T19:53:07.884Z</time>
      </trkpt>
      <trkpt lat="50.48256" lon="1.60048">
        <ele>14</ele>
        <time>2021-01-12T19:53:08.425Z</time>
      </trkpt>
      <trkpt lat="50.48252" lon="1.60014">
        <ele>13.321610450745</ele>
        <time>2021-01-12T19:53:08.970Z</time>
      </trkpt>
      <trkpt lat="50.48245" lon="1.59947">
        <ele>13</ele>
        <time>2021-01-12T19:53:09.524Z</time>
      </trkpt>
      <trkpt lat="50.48237" lon="1.59876">
        <ele>12</ele>
        <time>2021-01-12T19:53:10.087Z</time>
      </trkpt>
      <trkpt lat="50.48231" lon="1.59829">
        <ele>12.348080635071</ele>
        <time>2021-01-12T19:53:10.656Z</time>
      </trkpt>
      <trkpt lat="50.4823" lon="1.598">
        <ele>12.617261886597</ele>
        <time>2021-01-12T19:53:11.229Z</time>
      </trkpt>
      <trkpt lat="50.48237" lon="1.59791">
        <ele>13</ele>
        <time>2021-01-12T19:53:11.804Z</time>
      </trkpt>
      <trkpt lat="50.48247" lon="1.59791">
        <ele>13</ele>
        <time>2021-01-12T19:53:12.381Z</time>
      </trkpt>
      <trkpt lat="50.48301" lon="1.59801">
        <ele>15.118567466736</ele>
        <time>2021-01-12T19:53:12.969Z</time>
      </trkpt>
      <trkpt lat="50.48359" lon="1.59808">
        <ele>14.006453514099</ele>
        <time>2021-01-12T19:53:13.568Z</time>
      </trkpt>
      <trkpt lat="50.48414" lon="1.59816">
        <ele>14.649186134338</ele>
        <time>2021-01-12T19:53:14.178Z</time>
      </trkpt>
      <trkpt lat="50.48467" lon="1.5982">
        <ele>16.830924987793</ele>
        <time>2021-01-12T19:53:14.799Z</time>
      </trkpt>
      <trkpt lat="50.48472" lon="1.59811">
        <ele>16.989280700684</ele>
        <time>2021-01-12T19:53:15.421Z</time>
      </trkpt>
      <trkpt lat="50.48475" lon="1.59796">
        <ele>17.194501876831</ele>
        <time>2021-01-12T19:53:16.045Z</time>
      </trkpt>
      <trkpt lat="50.48476" lon="1.59789">
        <ele>17.280878067017</ele>
        <time>2021-01-12T19:53:16.670Z</time>
      </trkpt>
      <trkpt lat="50.48477" lon="1.59781">
        <ele>17.183849334717</ele>
        <time>2021-01-12T19:53:17.296Z</time>
      </trkpt>
      <trkpt lat="50.48478" lon="1.59772">
        <ele>17.219615936279</ele>
        <time>2021-01-12T19:53:17.923Z</time>
      </trkpt>
      <trkpt lat="50.48479" lon="1.59764">
        <ele>17.262804031372</ele>
        <time>2021-01-12T19:53:18.552Z</time>
      </trkpt>
      <trkpt lat="50.48492" lon="1.59679">
        <ele>16.03832244873</ele>
        <time>2021-01-12T19:53:19.192Z</time>
      </trkpt>
      <trkpt lat="50.48499" lon="1.59618">
        <ele>15.972407341003</ele>
        <time>2021-01-12T19:53:19.840Z</time>
      </trkpt>
      <trkpt lat="50.48505" lon="1.59606">
        <ele>16.145849227905</ele>
        <time>2021-01-12T19:53:20.490Z</time>
      </trkpt>
      <trkpt lat="50.48522" lon="1.59604">
        <ele>17.441921234131</ele>
        <time>2021-01-12T19:53:21.143Z</time>
      </trkpt>
      <trkpt lat="50.4858" lon="1.59601">
        <ele>19.770975112915</ele>
        <time>2021-01-12T19:53:21.807Z</time>
      </trkpt>
      <trkpt lat="50.48638" lon="1.596">
        <ele>17.072757720947</ele>
        <time>2021-01-12T19:53:22.483Z</time>
      </trkpt>
      <trkpt lat="50.48685" lon="1.59599">
        <ele>14.802088737488</ele>
        <time>2021-01-12T19:53:23.169Z</time>
      </trkpt>
      <trkpt lat="50.48706" lon="1.59596">
        <ele>14.37086391449</ele>
        <time>2021-01-12T19:53:23.859Z</time>
      </trkpt>
      <trkpt lat="50.48762" lon="1.59596">
        <ele>17.343927383423</ele>
        <time>2021-01-12T19:53:24.560Z</time>
      </trkpt>
      <trkpt lat="50.48771" lon="1.59597">
        <ele>18.326454162598</ele>
        <time>2021-01-12T19:53:25.263Z</time>
      </trkpt>
      <trkpt lat="50.48782" lon="1.59589">
        <ele>19.160577774048</ele>
        <time>2021-01-12T19:53:25.968Z</time>
      </trkpt>
      <trkpt lat="50.48815" lon="1.59514">
        <ele>18.064237594604</ele>
        <time>2021-01-12T19:53:26.685Z</time>
      </trkpt>
      <trkpt lat="50.48847" lon="1.59443">
        <ele>14.492874145508</ele>
        <time>2021-01-12T19:53:27.413Z</time>
      </trkpt>
      <trkpt lat="50.4885" lon="1.59436">
        <ele>14.392102241516</ele>
        <time>2021-01-12T19:53:28.142Z</time>
      </trkpt>
      <trkpt lat="50.48878" lon="1.59367">
        <ele>13.888841629028</ele>
        <time>2021-01-12T19:53:28.882Z</time>
      </trkpt>
      <trkpt lat="50.48892" lon="1.59334">
        <ele>15.160222053528</ele>
        <time>2021-01-12T19:53:29.627Z</time>
      </trkpt>
      <trkpt lat="50.48905" lon="1.59303">
        <ele>16.622848510742</ele>
        <time>2021-01-12T19:53:30.376Z</time>
      </trkpt>
      <trkpt lat="50.48933" lon="1.59223">
        <ele>14.809864044189</ele>
        <time>2021-01-12T19:53:31.137Z</time>
      </trkpt>
      <trkpt lat="50.48939" lon="1.59201">
        <ele>14.341994285583</ele>
        <time>2021-01-12T19:53:31.901Z</time>
      </trkpt>
      <trkpt lat="50.48943" lon="1.59191">
        <ele>14.082865715027</ele>
        <time>2021-01-12T19:53:32.667Z</time>
      </trkpt>
      <trkpt lat="50.48946" lon="1.59182">
        <ele>13.852529525757</ele>
        <time>2021-01-12T19:53:33.434Z</time>
      </trkpt>
      <trkpt lat="50.48955" lon="1.59105">
        <ele>15.924176216125</ele>
        <time>2021-01-12T19:53:34.211Z</time>
      </trkpt>
      <trkpt lat="50.48942" lon="1.5908">
        <ele>17.295394897461</ele>
        <time>2021-01-12T19:53:34.992Z</time>
      </trkpt>
      <trkpt lat="50.4893" lon="1.59049">
        <ele>18.197233200073</ele>
        <time>2021-01-12T19:53:35.778Z</time>
      </trkpt>
      <trkpt lat="50.48932" lon="1.59052">
        <ele>18.208030700684</ele>
        <time>2021-01-12T19:53:36.564Z</time>
      </trkpt>
      <trkpt lat="50.48967" lon="1.59099">
        <ele>15.719033241272</ele>
        <time>2021-01-12T19:53:37.359Z</time>
      </trkpt>
      <trkpt lat="50.48968" lon="1.59097">
        <ele>15.755023956299</ele>
        <time>2021-01-12T19:53:38.155Z</time>
      </trkpt>
      <trkpt lat="50.48982" lon="1.59071">
        <ele>16.55267906189</ele>
        <time>2021-01-12T19:53:38.955Z</time>
      </trkpt>
      <trkpt lat="50.48991" lon="1.59047">
        <ele>16.402044296265</ele>
        <time>2021-01-12T19:53:39.759Z</time>
      </trkpt>
      <trkpt lat="50.48994" lon="1.59045">
        <ele>16.48122215271</ele>
        <time>2021-01-12T19:53:40.563Z</time>
      </trkpt>
      <trkpt lat="50.49001" lon="1.5904">
        <ele>16.707159042358</ele>
        <time>2021-01-12T19:53:41.369Z</time>
      </trkpt>
      <trkpt lat="50.49004" lon="1.59036">
        <ele>16.966287612915</ele>
        <time>2021-01-12T19:53:42.176Z</time>
      </trkpt>
      <trkpt lat="50.49007" lon="1.59031">
        <ele>17</ele>
        <time>2021-01-12T19:53:42.983Z</time>
      </trkpt>
      <trkpt lat="50.49013" lon="1.59019">
        <ele>17.39896774292</ele>
        <time>2021-01-12T19:53:43.792Z</time>
      </trkpt>
      <trkpt lat="50.49021" lon="1.59">
        <ele>17.252206802368</ele>
        <time>2021-01-12T19:53:44.604Z</time>
      </trkpt>
      <trkpt lat="50.49028" lon="1.58978">
        <ele>16.99667930603</ele>
        <time>2021-01-12T19:53:45.419Z</time>
      </trkpt>
      <trkpt lat="50.49033" lon="1.58963">
        <ele>16.798732757568</ele>
        <time>2021-01-12T19:53:46.237Z</time>
      </trkpt>
      <trkpt lat="50.49038" lon="1.58949">
        <ele>16.618783950806</ele>
        <time>2021-01-12T19:53:47.057Z</time>
      </trkpt>
      <trkpt lat="50.49043" lon="1.58926">
        <ele>15.681999206543</ele>
        <time>2021-01-12T19:53:47.880Z</time>
      </trkpt>
      <trkpt lat="50.4905" lon="1.58913">
        <ele>15</ele>
        <time>2021-01-12T19:53:48.705Z</time>
      </trkpt>
      <trkpt lat="50.49058" lon="1.58901">
        <ele>15</ele>
        <time>2021-01-12T19:53:49.532Z</time>
      </trkpt>
      <trkpt lat="50.49087" lon="1.58828">
        <ele>14</ele>
        <time>2021-01-12T19:53:50.370Z</time>
      </trkpt>
      <trkpt lat="50.49104" lon="1.58782">
        <ele>13.232646942139</ele>
        <time>2021-01-12T19:53:51.215Z</time>
      </trkpt>
      <trkpt lat="50.49107" lon="1.58774">
        <ele>13.209320068359</ele>
        <time>2021-01-12T19:53:52.061Z</time>
      </trkpt>
      <trkpt lat="50.49123" lon="1.58737">
        <ele>14.01010799408</ele>
        <time>2021-01-12T19:53:52.913Z</time>
      </trkpt>
      <trkpt lat="50.49127" lon="1.58729">
        <ele>14.40239906311</ele>
        <time>2021-01-12T19:53:53.766Z</time>
      </trkpt>
      <trkpt lat="50.49134" lon="1.58715">
        <ele>15</ele>
        <time>2021-01-12T19:53:54.621Z</time>
      </trkpt>
      <trkpt lat="50.49141" lon="1.587">
        <ele>15</ele>
        <time>2021-01-12T19:53:55.479Z</time>
      </trkpt>
      <trkpt lat="50.49145" lon="1.58693">
        <ele>15</ele>
        <time>2021-01-12T19:53:56.338Z</time>
      </trkpt>
      <trkpt lat="50.49149" lon="1.58686">
        <ele>15</ele>
        <time>2021-01-12T19:53:57.198Z</time>
      </trkpt>
      <trkpt lat="50.49157" lon="1.58672">
        <ele>15</ele>
        <time>2021-01-12T19:53:58.061Z</time>
      </trkpt>
      <trkpt lat="50.49161" lon="1.58665">
        <ele>15</ele>
        <time>2021-01-12T19:53:58.925Z</time>
      </trkpt>
      <trkpt lat="50.4917" lon="1.58651">
        <ele>15</ele>
        <time>2021-01-12T19:53:59.791Z</time>
      </trkpt>
      <trkpt lat="50.49174" lon="1.58645">
        <ele>15</ele>
        <time>2021-01-12T19:54:00.658Z</time>
      </trkpt>
      <trkpt lat="50.49178" lon="1.58639">
        <ele>14.906837463379</ele>
        <time>2021-01-12T19:54:01.527Z</time>
      </trkpt>
      <trkpt lat="50.49192" lon="1.58622">
        <ele>14.291407585144</ele>
        <time>2021-01-12T19:54:02.399Z</time>
      </trkpt>
      <trkpt lat="50.49196" lon="1.58616">
        <ele>14.086264610291</ele>
        <time>2021-01-12T19:54:03.272Z</time>
      </trkpt>
      <trkpt lat="50.49201" lon="1.5861">
        <ele>14.128708839417</ele>
        <time>2021-01-12T19:54:04.146Z</time>
      </trkpt>
      <trkpt lat="50.49249" lon="1.5856">
        <ele>14.088819503784</ele>
        <time>2021-01-12T19:54:05.032Z</time>
      </trkpt>
      <trkpt lat="50.49254" lon="1.58557">
        <ele>13.85574054718</ele>
        <time>2021-01-12T19:54:05.919Z</time>
      </trkpt>
      <trkpt lat="50.49258" lon="1.58553">
        <ele>13.693784713745</ele>
        <time>2021-01-12T19:54:06.807Z</time>
      </trkpt>
      <trkpt lat="50.49269" lon="1.58547">
        <ele>13.249131202698</ele>
        <time>2021-01-12T19:54:07.697Z</time>
      </trkpt>
      <trkpt lat="50.49274" lon="1.58544">
        <ele>12.766864776611</ele>
        <time>2021-01-12T19:54:08.588Z</time>
      </trkpt>
      <trkpt lat="50.49291" lon="1.58534">
        <ele>12.142282485962</ele>
        <time>2021-01-12T19:54:09.483Z</time>
      </trkpt>
      <trkpt lat="50.49298" lon="1.58531">
        <ele>12.04510974884</ele>
        <time>2021-01-12T19:54:10.379Z</time>
      </trkpt>
      <trkpt lat="50.49316" lon="1.58524">
        <ele>12.382838249207</ele>
        <time>2021-01-12T19:54:11.279Z</time>
      </trkpt>
      <trkpt lat="50.49341" lon="1.58514">
        <ele>13</ele>
        <time>2021-01-12T19:54:12.184Z</time>
      </trkpt>
      <trkpt lat="50.49348" lon="1.58513">
        <ele>13</ele>
        <time>2021-01-12T19:54:13.091Z</time>
      </trkpt>
      <trkpt lat="50.49393" lon="1.58502">
        <ele>12.012996673584</ele>
        <time>2021-01-12T19:54:14.007Z</time>
      </trkpt>
      <trkpt lat="50.494" lon="1.58502">
        <ele>12.012996673584</ele>
        <time>2021-01-12T19:54:14.924Z</time>
      </trkpt>
      <trkpt lat="50.4946" lon="1.58504">
        <ele>12.47762298584</ele>
        <time>2021-01-12T19:54:15.853Z</time>
      </trkpt>
      <trkpt lat="50.49517" lon="1.58511">
        <ele>12</ele>
        <time>2021-01-12T19:54:16.794Z</time>
      </trkpt>
      <trkpt lat="50.49556" lon="1.58514">
        <ele>12</ele>
        <time>2021-01-12T19:54:17.743Z</time>
      </trkpt>
      <trkpt lat="50.49614" lon="1.5852">
        <ele>12</ele>
        <time>2021-01-12T19:54:18.703Z</time>
      </trkpt>
      <trkpt lat="50.49674" lon="1.58526">
        <ele>11.725543022156</ele>
        <time>2021-01-12T19:54:19.675Z</time>
      </trkpt>
      <trkpt lat="50.4973" lon="1.58531">
        <ele>11.027114868164</ele>
        <time>2021-01-12T19:54:20.658Z</time>
      </trkpt>
      <trkpt lat="50.49736" lon="1.58532">
        <ele>11.055906295776</ele>
        <time>2021-01-12T19:54:21.643Z</time>
      </trkpt>
      <trkpt lat="50.49748" lon="1.58533">
        <ele>11.11349105835</ele>
        <time>2021-01-12T19:54:22.630Z</time>
      </trkpt>
      <trkpt lat="50.4976" lon="1.58535">
        <ele>11.535729408264</ele>
        <time>2021-01-12T19:54:23.619Z</time>
      </trkpt>
      <trkpt lat="50.49818" lon="1.58541">
        <ele>13.062805175781</ele>
        <time>2021-01-12T19:54:24.620Z</time>
      </trkpt>
      <trkpt lat="50.49874" lon="1.58552">
        <ele>14.405398368835</ele>
        <time>2021-01-12T19:54:25.632Z</time>
      </trkpt>
      <trkpt lat="50.49879" lon="1.58553">
        <ele>14.369408607483</ele>
        <time>2021-01-12T19:54:26.645Z</time>
      </trkpt>
      <trkpt lat="50.49935" lon="1.58552">
        <ele>12.581638336182</ele>
        <time>2021-01-12T19:54:27.670Z</time>
      </trkpt>
      <trkpt lat="50.49944" lon="1.58553">
        <ele>12.196545600891</ele>
        <time>2021-01-12T19:54:28.696Z</time>
      </trkpt>
      <trkpt lat="50.49952" lon="1.58554">
        <ele>12.152313232422</ele>
        <time>2021-01-12T19:54:29.724Z</time>
      </trkpt>
      <trkpt lat="50.49963" lon="1.58557">
        <ele>12.019149780273</ele>
        <time>2021-01-12T19:54:30.754Z</time>
      </trkpt>
      <trkpt lat="50.49968" lon="1.58557">
        <ele>12.04434299469</ele>
        <time>2021-01-12T19:54:31.785Z</time>
      </trkpt>
      <trkpt lat="50.49981" lon="1.58556">
        <ele>12</ele>
        <time>2021-01-12T19:54:32.819Z</time>
      </trkpt>
      <trkpt lat="50.49993" lon="1.58559">
        <ele>12</ele>
        <time>2021-01-12T19:54:33.855Z</time>
      </trkpt>
      <trkpt lat="50.50012" lon="1.58561">
        <ele>12</ele>
        <time>2021-01-12T19:54:34.895Z</time>
      </trkpt>
      <trkpt lat="50.50059" lon="1.58566">
        <ele>13</ele>
        <time>2021-01-12T19:54:35.945Z</time>
      </trkpt>
      <trkpt lat="50.50064" lon="1.58566">
        <ele>13</ele>
        <time>2021-01-12T19:54:36.996Z</time>
      </trkpt>
      <trkpt lat="50.50069" lon="1.58566">
        <ele>13</ele>
        <time>2021-01-12T19:54:38.048Z</time>
      </trkpt>
      <trkpt lat="50.50075" lon="1.58568">
        <ele>13</ele>
        <time>2021-01-12T19:54:39.101Z</time>
      </trkpt>
      <trkpt lat="50.50122" lon="1.58574">
        <ele>13</ele>
        <time>2021-01-12T19:54:40.163Z</time>
      </trkpt>
      <trkpt lat="50.50132" lon="1.58574">
        <ele>13</ele>
        <time>2021-01-12T19:54:41.227Z</time>
      </trkpt>
      <trkpt lat="50.50148" lon="1.58578">
        <ele>13</ele>
        <time>2021-01-12T19:54:42.295Z</time>
      </trkpt>
      <trkpt lat="50.5017" lon="1.58581">
        <ele>13.114701271057</ele>
        <time>2021-01-12T19:54:43.367Z</time>
      </trkpt>
      <trkpt lat="50.50187" lon="1.58581">
        <ele>13.740927696228</ele>
        <time>2021-01-12T19:54:44.442Z</time>
      </trkpt>
      <trkpt lat="50.50222" lon="1.58589">
        <ele>15.082721710205</ele>
        <time>2021-01-12T19:54:45.524Z</time>
      </trkpt>
      <trkpt lat="50.50272" lon="1.58594">
        <ele>14.217917442322</ele>
        <time>2021-01-12T19:54:46.616Z</time>
      </trkpt>
      <trkpt lat="50.50285" lon="1.58591">
        <ele>13.742849349976</ele>
        <time>2021-01-12T19:54:47.711Z</time>
      </trkpt>
      <trkpt lat="50.50291" lon="1.58592">
        <ele>13.530508041382</ele>
        <time>2021-01-12T19:54:48.807Z</time>
      </trkpt>
      <trkpt lat="50.50294" lon="1.58593">
        <ele>13.408142089844</ele>
        <time>2021-01-12T19:54:49.904Z</time>
      </trkpt>
      <trkpt lat="50.50341" lon="1.58617">
        <ele>14.397733688354</ele>
        <time>2021-01-12T19:54:51.011Z</time>
      </trkpt>
      <trkpt lat="50.50353" lon="1.58677">
        <ele>13.390424728394</ele>
        <time>2021-01-12T19:54:52.126Z</time>
      </trkpt>
      <trkpt lat="50.50354" lon="1.58691">
        <ele>13</ele>
        <time>2021-01-12T19:54:53.243Z</time>
      </trkpt>
      <trkpt lat="50.50355" lon="1.58731">
        <ele>12</ele>
        <time>2021-01-12T19:54:54.365Z</time>
      </trkpt>
      <trkpt lat="50.50396" lon="1.58773">
        <ele>13.259239196777</ele>
        <time>2021-01-12T19:54:55.496Z</time>
      </trkpt>
      <trkpt lat="50.50418" lon="1.588">
        <ele>14.043821334839</ele>
        <time>2021-01-12T19:54:56.633Z</time>
      </trkpt>
      <trkpt lat="50.50435" lon="1.58825">
        <ele>14.637656211853</ele>
        <time>2021-01-12T19:54:57.775Z</time>
      </trkpt>
      <trkpt lat="50.50463" lon="1.58827">
        <ele>15</ele>
        <time>2021-01-12T19:54:58.922Z</time>
      </trkpt>
      <trkpt lat="50.50476" lon="1.58834">
        <ele>14.942882537842</ele>
        <time>2021-01-12T19:55:00.072Z</time>
      </trkpt>
      <trkpt lat="50.50496" lon="1.58844">
        <ele>15.5911693573</ele>
        <time>2021-01-12T19:55:01.226Z</time>
      </trkpt>
      <trkpt lat="50.50508" lon="1.58846">
        <ele>15.147692680359</ele>
        <time>2021-01-12T19:55:02.383Z</time>
      </trkpt>
      <trkpt lat="50.50534" lon="1.58839">
        <ele>13.788536071777</ele>
        <time>2021-01-12T19:55:03.545Z</time>
      </trkpt>
      <trkpt lat="50.50544" lon="1.58844">
        <ele>13.435834884644</ele>
        <time>2021-01-12T19:55:04.709Z</time>
      </trkpt>
      <trkpt lat="50.50559" lon="1.58868">
        <ele>13.030136108398</ele>
        <time>2021-01-12T19:55:05.877Z</time>
      </trkpt>
      <trkpt lat="50.50565" lon="1.58891">
        <ele>13.674357414246</ele>
        <time>2021-01-12T19:55:07.049Z</time>
      </trkpt>
      <trkpt lat="50.50567" lon="1.58917">
        <ele>14.49133014679</ele>
        <time>2021-01-12T19:55:08.224Z</time>
      </trkpt>
      <trkpt lat="50.50568" lon="1.58934">
        <ele>15.074368476868</ele>
        <time>2021-01-12T19:55:09.401Z</time>
      </trkpt>
      <trkpt lat="50.50567" lon="1.58951">
        <ele>15.732985496521</ele>
        <time>2021-01-12T19:55:10.580Z</time>
      </trkpt>
      <trkpt lat="50.50563" lon="1.58966">
        <ele>16.441987991333</ele>
        <time>2021-01-12T19:55:11.761Z</time>
      </trkpt>
      <trkpt lat="50.50555" lon="1.58998">
        <ele>17.021949768066</ele>
        <time>2021-01-12T19:55:12.947Z</time>
      </trkpt>
      <trkpt lat="50.50552" lon="1.59033">
        <ele>15.902304649353</ele>
        <time>2021-01-12T19:55:14.137Z</time>
      </trkpt>
      <trkpt lat="50.50555" lon="1.59061">
        <ele>15</ele>
        <time>2021-01-12T19:55:15.331Z</time>
      </trkpt>
      <trkpt lat="50.50583" lon="1.59133">
        <ele>13.288908958435</ele>
        <time>2021-01-12T19:55:16.536Z</time>
      </trkpt>
      <trkpt lat="50.50593" lon="1.59165">
        <ele>13</ele>
        <time>2021-01-12T19:55:17.745Z</time>
      </trkpt>
      <trkpt lat="50.50591" lon="1.59181">
        <ele>13</ele>
        <time>2021-01-12T19:55:18.956Z</time>
      </trkpt>
      <trkpt lat="50.50585" lon="1.59191">
        <ele>13</ele>
        <time>2021-01-12T19:55:20.169Z</time>
      </trkpt>
      <trkpt lat="50.50554" lon="1.5921">
        <ele>13</ele>
        <time>2021-01-12T19:55:21.389Z</time>
      </trkpt>
      <trkpt lat="50.50549" lon="1.5921">
        <ele>13</ele>
        <time>2021-01-12T19:55:22.609Z</time>
      </trkpt>
      <trkpt lat="50.5053" lon="1.59213">
        <ele>13</ele>
        <time>2021-01-12T19:55:23.833Z</time>
      </trkpt>
      <trkpt lat="50.50504" lon="1.59214">
        <ele>13.868236541748</ele>
        <time>2021-01-12T19:55:25.063Z</time>
      </trkpt>
      <trkpt lat="50.50489" lon="1.59218">
        <ele>14</ele>
        <time>2021-01-12T19:55:26.296Z</time>
      </trkpt>
      <trkpt lat="50.50469" lon="1.59219">
        <ele>14.120688438416</ele>
        <time>2021-01-12T19:55:27.533Z</time>
      </trkpt>
      <trkpt lat="50.50434" lon="1.59225">
        <ele>14.376162528992</ele>
        <time>2021-01-12T19:55:28.777Z</time>
      </trkpt>
      <trkpt lat="50.50414" lon="1.59232">
        <ele>14.451796531677</ele>
        <time>2021-01-12T19:55:30.025Z</time>
      </trkpt>
      <trkpt lat="50.50405" lon="1.59235">
        <ele>14.235857009888</ele>
        <time>2021-01-12T19:55:31.275Z</time>
      </trkpt>
      <trkpt lat="50.50353" lon="1.59249">
        <ele>15</ele>
        <time>2021-01-12T19:55:32.535Z</time>
      </trkpt>
      <trkpt lat="50.50344" lon="1.59271">
        <ele>14.32948589325</ele>
        <time>2021-01-12T19:55:33.799Z</time>
      </trkpt>
      <trkpt lat="50.50343" lon="1.59289">
        <ele>14</ele>
        <time>2021-01-12T19:55:35.065Z</time>
      </trkpt>
      <trkpt lat="50.50349" lon="1.59332">
        <ele>14</ele>
        <time>2021-01-12T19:55:36.336Z</time>
      </trkpt>
      <trkpt lat="50.50375" lon="1.59411">
        <ele>15.172974586487</ele>
        <time>2021-01-12T19:55:37.619Z</time>
      </trkpt>
      <trkpt lat="50.50398" lon="1.59456">
        <ele>17.634691238403</ele>
        <time>2021-01-12T19:55:38.909Z</time>
      </trkpt>
      <trkpt lat="50.50405" lon="1.59466">
        <ele>18.377128601074</ele>
        <time>2021-01-12T19:55:40.201Z</time>
      </trkpt>
      <trkpt lat="50.50409" lon="1.59508">
        <ele>20.378694534302</ele>
        <time>2021-01-12T19:55:41.499Z</time>
      </trkpt>
      <trkpt lat="50.50408" lon="1.59525">
        <ele>21.616750717163</ele>
        <time>2021-01-12T19:55:42.799Z</time>
      </trkpt>
      <trkpt lat="50.50431" lon="1.59599">
        <ele>24.974340438843</ele>
        <time>2021-01-12T19:55:44.109Z</time>
      </trkpt>
      <trkpt lat="50.50441" lon="1.59616">
        <ele>25</ele>
        <time>2021-01-12T19:55:45.422Z</time>
      </trkpt>
      <trkpt lat="50.5045" lon="1.5962">
        <ele>25</ele>
        <time>2021-01-12T19:55:46.737Z</time>
      </trkpt>
      <trkpt lat="50.50467" lon="1.59579">
        <ele>23.908514022827</ele>
        <time>2021-01-12T19:55:48.058Z</time>
      </trkpt>
      <trkpt lat="50.5047" lon="1.59573">
        <ele>23.609796524048</ele>
        <time>2021-01-12T19:55:49.380Z</time>
      </trkpt>
      <trkpt lat="50.50478" lon="1.59567">
        <ele>23.127531051636</ele>
        <time>2021-01-12T19:55:50.704Z</time>
      </trkpt>
      <trkpt lat="50.50504" lon="1.59575">
        <ele>22.33355140686</ele>
        <time>2021-01-12T19:55:52.033Z</time>
      </trkpt>
      <trkpt lat="50.50518" lon="1.59587">
        <ele>21.743316650391</ele>
        <time>2021-01-12T19:55:53.366Z</time>
      </trkpt>
      <trkpt lat="50.5057" lon="1.59607">
        <ele>18.249042510986</ele>
        <time>2021-01-12T19:55:54.709Z</time>
      </trkpt>
      <trkpt lat="50.50583" lon="1.59612">
        <ele>16.957000732422</ele>
        <time>2021-01-12T19:55:56.055Z</time>
      </trkpt>
      <trkpt lat="50.50617" lon="1.59622">
        <ele>15.165554046631</ele>
        <time>2021-01-12T19:55:57.408Z</time>
      </trkpt>
      <trkpt lat="50.5063" lon="1.59628">
        <ele>14.816451072693</ele>
        <time>2021-01-12T19:55:58.764Z</time>
      </trkpt>
      <trkpt lat="50.50643" lon="1.5963">
        <ele>14.445754051208</ele>
        <time>2021-01-12T19:56:00.122Z</time>
      </trkpt>
      <trkpt lat="50.50668" lon="1.59646">
        <ele>14.155967712402</ele>
        <time>2021-01-12T19:56:01.485Z</time>
      </trkpt>
      <trkpt lat="50.5068" lon="1.59658">
        <ele>14.587847709656</ele>
        <time>2021-01-12T19:56:02.851Z</time>
      </trkpt>
      <trkpt lat="50.50685" lon="1.59662">
        <ele>14.73540687561</ele>
        <time>2021-01-12T19:56:04.218Z</time>
      </trkpt>
      <trkpt lat="50.50693" lon="1.59664">
        <ele>14.941071510315</ele>
        <time>2021-01-12T19:56:05.587Z</time>
      </trkpt>
      <trkpt lat="50.50696" lon="1.59663">
        <ele>15.059839248657</ele>
        <time>2021-01-12T19:56:06.957Z</time>
      </trkpt>
      <trkpt lat="50.507" lon="1.59661">
        <ele>15.185804367065</ele>
        <time>2021-01-12T19:56:08.328Z</time>
      </trkpt>
      <trkpt lat="50.5071" lon="1.59651">
        <ele>15.780683517456</ele>
        <time>2021-01-12T19:56:09.701Z</time>
      </trkpt>
      <trkpt lat="50.50727" lon="1.59641">
        <ele>17.15753364563</ele>
        <time>2021-01-12T19:56:11.077Z</time>
      </trkpt>
      <trkpt lat="50.50743" lon="1.59614">
        <ele>17.722576141357</ele>
        <time>2021-01-12T19:56:12.458Z</time>
      </trkpt>
      <trkpt lat="50.50745" lon="1.59608">
        <ele>18.006210327148</ele>
        <time>2021-01-12T19:56:13.840Z</time>
      </trkpt>
      <trkpt lat="50.50751" lon="1.59586">
        <ele>18.960878372192</ele>
        <time>2021-01-12T19:56:15.225Z</time>
      </trkpt>
      <trkpt lat="50.50753" lon="1.5958">
        <ele>18.91032409668</ele>
        <time>2021-01-12T19:56:16.611Z</time>
      </trkpt>
      <trkpt lat="50.50768" lon="1.59549">
        <ele>18.366876602173</ele>
        <time>2021-01-12T19:56:18.002Z</time>
      </trkpt>
      <trkpt lat="50.5077" lon="1.59541">
        <ele>18.273302078247</ele>
        <time>2021-01-12T19:56:19.394Z</time>
      </trkpt>
      <trkpt lat="50.50773" lon="1.59523">
        <ele>18.275579452515</ele>
        <time>2021-01-12T19:56:20.789Z</time>
      </trkpt>
      <trkpt lat="50.50776" lon="1.59485">
        <ele>17.136318206787</ele>
        <time>2021-01-12T19:56:22.188Z</time>
      </trkpt>
      <trkpt lat="50.50774" lon="1.59428">
        <ele>15.432291030884</ele>
        <time>2021-01-12T19:56:23.595Z</time>
      </trkpt>
      <trkpt lat="50.50777" lon="1.59356">
        <ele>14.70447063446</ele>
        <time>2021-01-12T19:56:25.011Z</time>
      </trkpt>
      <trkpt lat="50.50772" lon="1.59343">
        <ele>14.236600875854</ele>
        <time>2021-01-12T19:56:26.429Z</time>
      </trkpt>
      <trkpt lat="50.50747" lon="1.59309">
        <ele>14.129863739014</ele>
        <time>2021-01-12T19:56:27.853Z</time>
      </trkpt>
      <trkpt lat="50.5074" lon="1.59297">
        <ele>14</ele>
        <time>2021-01-12T19:56:29.280Z</time>
      </trkpt>
      <trkpt lat="50.50727" lon="1.59265">
        <ele>14</ele>
        <time>2021-01-12T19:56:30.711Z</time>
      </trkpt>
      <trkpt lat="50.5071" lon="1.59227">
        <ele>14</ele>
        <time>2021-01-12T19:56:32.148Z</time>
      </trkpt>
      <trkpt lat="50.50714" lon="1.59222">
        <ele>14.08579826355</ele>
        <time>2021-01-12T19:56:33.586Z</time>
      </trkpt>
      <trkpt lat="50.50743" lon="1.59208">
        <ele>14.248630523682</ele>
        <time>2021-01-12T19:56:35.030Z</time>
      </trkpt>
      <trkpt lat="50.50761" lon="1.59195">
        <ele>13.600811004639</ele>
        <time>2021-01-12T19:56:36.478Z</time>
      </trkpt>
      <trkpt lat="50.50772" lon="1.59183">
        <ele>13.204920768738</ele>
        <time>2021-01-12T19:56:37.929Z</time>
      </trkpt>
      <trkpt lat="50.50779" lon="1.59173">
        <ele>13</ele>
        <time>2021-01-12T19:56:39.382Z</time>
      </trkpt>
      <trkpt lat="50.50805" lon="1.59143">
        <ele>13</ele>
        <time>2021-01-12T19:56:40.841Z</time>
      </trkpt>
      <trkpt lat="50.50824" lon="1.59123">
        <ele>13.32592010498</ele>
        <time>2021-01-12T19:56:42.305Z</time>
      </trkpt>
      <trkpt lat="50.50862" lon="1.59083">
        <ele>14.016184806824</ele>
        <time>2021-01-12T19:56:43.778Z</time>
      </trkpt>
      <trkpt lat="50.50908" lon="1.59124">
        <ele>15</ele>
        <time>2021-01-12T19:56:45.262Z</time>
      </trkpt>
      <trkpt lat="50.50911" lon="1.5913">
        <ele>15</ele>
        <time>2021-01-12T19:56:46.747Z</time>
      </trkpt>
      <trkpt lat="50.50913" lon="1.59135">
        <ele>15</ele>
        <time>2021-01-12T19:56:48.233Z</time>
      </trkpt>
      <trkpt lat="50.50915" lon="1.5914">
        <ele>15.003376960754</ele>
        <time>2021-01-12T19:56:49.719Z</time>
      </trkpt>
      <trkpt lat="50.50915" lon="1.59151">
        <ele>15.424459457397</ele>
        <time>2021-01-12T19:56:51.207Z</time>
      </trkpt>
      <trkpt lat="50.50914" lon="1.59162">
        <ele>15.845542907715</ele>
        <time>2021-01-12T19:56:52.696Z</time>
      </trkpt>
      <trkpt lat="50.50913" lon="1.59168">
        <ele>16.108270645142</ele>
        <time>2021-01-12T19:56:54.186Z</time>
      </trkpt>
      <trkpt lat="50.50907" lon="1.59195">
        <ele>17.28514289856</ele>
        <time>2021-01-12T19:56:55.680Z</time>
      </trkpt>
      <trkpt lat="50.5091" lon="1.59207">
        <ele>17.616250991821</ele>
        <time>2021-01-12T19:56:57.175Z</time>
      </trkpt>
      <trkpt lat="50.50914" lon="1.59217">
        <ele>17.817794799805</ele>
        <time>2021-01-12T19:56:58.672Z</time>
      </trkpt>
      <trkpt lat="50.50929" lon="1.59245">
        <ele>16.866504669189</ele>
        <time>2021-01-12T19:57:00.173Z</time>
      </trkpt>
      <trkpt lat="50.50934" lon="1.5925">
        <ele>16.467014312744</ele>
        <time>2021-01-12T19:57:01.676Z</time>
      </trkpt>
      <trkpt lat="50.5096" lon="1.59279">
        <ele>14.480366706848</ele>
        <time>2021-01-12T19:57:03.185Z</time>
      </trkpt>
      <trkpt lat="50.50995" lon="1.59308">
        <ele>13.207942008972</ele>
        <time>2021-01-12T19:57:04.702Z</time>
      </trkpt>
      <trkpt lat="50.50999" lon="1.5931">
        <ele>13.112913131714</ele>
        <time>2021-01-12T19:57:06.220Z</time>
      </trkpt>
      <trkpt lat="50.51016" lon="1.59306">
        <ele>13</ele>
        <time>2021-01-12T19:57:07.741Z</time>
      </trkpt>
      <trkpt lat="50.5103" lon="1.59302">
        <ele>13</ele>
        <time>2021-01-12T19:57:09.265Z</time>
      </trkpt>
      <trkpt lat="50.5106" lon="1.59303">
        <ele>13.149402618408</ele>
        <time>2021-01-12T19:57:10.795Z</time>
      </trkpt>
      <trkpt lat="50.51069" lon="1.59296">
        <ele>13.473313331604</ele>
        <time>2021-01-12T19:57:12.327Z</time>
      </trkpt>
      <trkpt lat="50.5111" lon="1.59281">
        <ele>13.054696083069</ele>
        <time>2021-01-12T19:57:13.867Z</time>
      </trkpt>
      <trkpt lat="50.51129" lon="1.59262">
        <ele>13.378084182739</ele>
        <time>2021-01-12T19:57:15.412Z</time>
      </trkpt>
      <trkpt lat="50.51154" lon="1.59223">
        <ele>12.460338592529</ele>
        <time>2021-01-12T19:57:16.964Z</time>
      </trkpt>
      <trkpt lat="50.51158" lon="1.59212">
        <ele>12.341571807861</ele>
        <time>2021-01-12T19:57:18.518Z</time>
      </trkpt>
      <trkpt lat="50.51161" lon="1.59205">
        <ele>12.215606689453</ele>
        <time>2021-01-12T19:57:20.073Z</time>
      </trkpt>
      <trkpt lat="50.51165" lon="1.592">
        <ele>12.057250976562</ele>
        <time>2021-01-12T19:57:21.629Z</time>
      </trkpt>
      <trkpt lat="50.51175" lon="1.59193">
        <ele>12</ele>
        <time>2021-01-12T19:57:23.187Z</time>
      </trkpt>
      <trkpt lat="50.51187" lon="1.59185">
        <ele>12</ele>
        <time>2021-01-12T19:57:24.748Z</time>
      </trkpt>
      <trkpt lat="50.51194" lon="1.59179">
        <ele>12</ele>
        <time>2021-01-12T19:57:26.310Z</time>
      </trkpt>
      <trkpt lat="50.51222" lon="1.59155">
        <ele>11.494296073914</ele>
        <time>2021-01-12T19:57:27.879Z</time>
      </trkpt>
      <trkpt lat="50.51235" lon="1.59146">
        <ele>11</ele>
        <time>2021-01-12T19:57:29.450Z</time>
      </trkpt>
      <trkpt lat="50.5125" lon="1.59136">
        <ele>11</ele>
        <time>2021-01-12T19:57:31.025Z</time>
      </trkpt>
      <trkpt lat="50.51258" lon="1.59136">
        <ele>11</ele>
        <time>2021-01-12T19:57:32.601Z</time>
      </trkpt>
      <trkpt lat="50.5126" lon="1.59135">
        <ele>11</ele>
        <time>2021-01-12T19:57:34.178Z</time>
      </trkpt>
      <trkpt lat="50.51264" lon="1.59133">
        <ele>11</ele>
        <time>2021-01-12T19:57:35.756Z</time>
      </trkpt>
      <trkpt lat="50.51268" lon="1.59133">
        <ele>11</ele>
        <time>2021-01-12T19:57:37.334Z</time>
      </trkpt>
      <trkpt lat="50.51269" lon="1.59132">
        <ele>11</ele>
        <time>2021-01-12T19:57:38.912Z</time>
      </trkpt>
      <trkpt lat="50.5128" lon="1.59126">
        <ele>11</ele>
        <time>2021-01-12T19:57:40.493Z</time>
      </trkpt>
      <trkpt lat="50.5128" lon="1.59126">
        <ele>11</ele>
        <time>2021-01-12T19:57:42.074Z</time>
      </trkpt>
      <trkpt lat="50.51283" lon="1.59118">
        <ele>11.029125213623</ele>
        <time>2021-01-12T19:57:43.656Z</time>
      </trkpt>
      <trkpt lat="50.51284" lon="1.59112">
        <ele>11.28465461731</ele>
        <time>2021-01-12T19:57:45.239Z</time>
      </trkpt>
      <trkpt lat="50.51285" lon="1.59104">
        <ele>11.565376281738</ele>
        <time>2021-01-12T19:57:46.823Z</time>
      </trkpt>
      <trkpt lat="50.51285" lon="1.591">
        <ele>11.730930328369</ele>
        <time>2021-01-12T19:57:48.407Z</time>
      </trkpt>
      <trkpt lat="50.51285" lon="1.59096">
        <ele>11.910880088806</ele>
        <time>2021-01-12T19:57:49.992Z</time>
      </trkpt>
      <trkpt lat="50.51286" lon="1.59091">
        <ele>12.105226516724</ele>
        <time>2021-01-12T19:57:51.578Z</time>
      </trkpt>
      <trkpt lat="50.51286" lon="1.59086">
        <ele>12.286742210388</ele>
        <time>2021-01-12T19:57:53.164Z</time>
      </trkpt>
      <trkpt lat="50.51287" lon="1.5908">
        <ele>12.304738044739</ele>
        <time>2021-01-12T19:57:54.751Z</time>
      </trkpt>
      <trkpt lat="50.51287" lon="1.59059">
        <ele>12.326331138611</ele>
        <time>2021-01-12T19:57:56.341Z</time>
      </trkpt>
      <trkpt lat="50.51288" lon="1.59043">
        <ele>12.344326972961</ele>
        <time>2021-01-12T19:57:57.933Z</time>
      </trkpt>
      <trkpt lat="50.51288" lon="1.59034">
        <ele>12.365921020508</ele>
        <time>2021-01-12T19:57:59.526Z</time>
      </trkpt>
      <trkpt lat="50.51295" lon="1.58959">
        <ele>12</ele>
        <time>2021-01-12T19:58:01.129Z</time>
      </trkpt>
      <trkpt lat="50.51297" lon="1.58941">
        <ele>12</ele>
        <time>2021-01-12T19:58:02.734Z</time>
      </trkpt>
      <trkpt lat="50.51298" lon="1.58933">
        <ele>12.227126121521</ele>
        <time>2021-01-12T19:58:04.340Z</time>
      </trkpt>
      <trkpt lat="50.513" lon="1.58915">
        <ele>12.790602684021</ele>
        <time>2021-01-12T19:58:05.948Z</time>
      </trkpt>
      <trkpt lat="50.51301" lon="1.58906">
        <ele>12.830191612244</ele>
        <time>2021-01-12T19:58:07.557Z</time>
      </trkpt>
      <trkpt lat="50.51307" lon="1.58862">
        <ele>14.077533721924</ele>
        <time>2021-01-12T19:58:09.172Z</time>
      </trkpt>
      <trkpt lat="50.51308" lon="1.58854">
        <ele>14.430235862732</ele>
        <time>2021-01-12T19:58:10.788Z</time>
      </trkpt>
      <trkpt lat="50.51311" lon="1.58819">
        <ele>15</ele>
        <time>2021-01-12T19:58:12.409Z</time>
      </trkpt>
      <trkpt lat="50.51314" lon="1.58796">
        <ele>15</ele>
        <time>2021-01-12T19:58:14.033Z</time>
      </trkpt>
      <trkpt lat="50.51321" lon="1.58735">
        <ele>14.837079048157</ele>
        <time>2021-01-12T19:58:15.665Z</time>
      </trkpt>
      <trkpt lat="50.51331" lon="1.58709">
        <ele>14.671169281006</ele>
        <time>2021-01-12T19:58:17.300Z</time>
      </trkpt>
      <trkpt lat="50.51341" lon="1.58702">
        <ele>14.57759475708</ele>
        <time>2021-01-12T19:58:18.938Z</time>
      </trkpt>
      <trkpt lat="50.51348" lon="1.58698">
        <ele>14.451629638672</ele>
        <time>2021-01-12T19:58:20.577Z</time>
      </trkpt>
      <trkpt lat="50.51352" lon="1.58694">
        <ele>14.451629638672</ele>
        <time>2021-01-12T19:58:22.217Z</time>
      </trkpt>
      <trkpt lat="50.51355" lon="1.58689">
        <ele>14.505615234375</ele>
        <time>2021-01-12T19:58:23.858Z</time>
      </trkpt>
      <trkpt lat="50.51357" lon="1.58684">
        <ele>14.617183685303</ele>
        <time>2021-01-12T19:58:25.500Z</time>
      </trkpt>
      <trkpt lat="50.51361" lon="1.5867">
        <ele>14.969885826111</ele>
        <time>2021-01-12T19:58:27.144Z</time>
      </trkpt>
      <trkpt lat="50.51364" lon="1.58657">
        <ele>15.890686035156</ele>
        <time>2021-01-12T19:58:28.790Z</time>
      </trkpt>
      <trkpt lat="50.51369" lon="1.58636">
        <ele>16.930818557739</ele>
        <time>2021-01-12T19:58:30.438Z</time>
      </trkpt>
      <trkpt lat="50.51374" lon="1.58617">
        <ele>17.445476531982</ele>
        <time>2021-01-12T19:58:32.089Z</time>
      </trkpt>
      <trkpt lat="50.51382" lon="1.58599">
        <ele>18.2985496521</ele>
        <time>2021-01-12T19:58:33.743Z</time>
      </trkpt>
      <trkpt lat="50.51414" lon="1.58561">
        <ele>18.892908096313</ele>
        <time>2021-01-12T19:58:35.405Z</time>
      </trkpt>
      <trkpt lat="50.51467" lon="1.58542">
        <ele>17.320667266846</ele>
        <time>2021-01-12T19:58:37.078Z</time>
      </trkpt>
      <trkpt lat="50.51495" lon="1.58536">
        <ele>16.998678207397</ele>
        <time>2021-01-12T19:58:38.756Z</time>
      </trkpt>
      <trkpt lat="50.5155" lon="1.5851">
        <ele>15.402199745178</ele>
        <time>2021-01-12T19:58:40.446Z</time>
      </trkpt>
      <trkpt lat="50.51585" lon="1.58453">
        <ele>14</ele>
        <time>2021-01-12T19:58:42.146Z</time>
      </trkpt>
      <trkpt lat="50.51592" lon="1.58416">
        <ele>15.108136177063</ele>
        <time>2021-01-12T19:58:43.851Z</time>
      </trkpt>
      <trkpt lat="50.51595" lon="1.58365">
        <ele>15.950824737549</ele>
        <time>2021-01-12T19:58:45.562Z</time>
      </trkpt>
      <trkpt lat="50.5159" lon="1.58352">
        <ele>16.400699615479</ele>
        <time>2021-01-12T19:58:47.275Z</time>
      </trkpt>
      <trkpt lat="50.5157" lon="1.58339">
        <ele>16.387269973755</ele>
        <time>2021-01-12T19:58:48.993Z</time>
      </trkpt>
      <trkpt lat="50.51555" lon="1.58327">
        <ele>15.95050239563</ele>
        <time>2021-01-12T19:58:50.714Z</time>
      </trkpt>
      <trkpt lat="50.51545" lon="1.58324">
        <ele>15.173118591309</ele>
        <time>2021-01-12T19:58:52.437Z</time>
      </trkpt>
      <trkpt lat="50.51521" lon="1.58322">
        <ele>14.008386611938</ele>
        <time>2021-01-12T19:58:54.165Z</time>
      </trkpt>
      <trkpt lat="50.51471" lon="1.58298">
        <ele>12.051507949829</ele>
        <time>2021-01-12T19:58:55.903Z</time>
      </trkpt>
      <trkpt lat="50.51456" lon="1.5829">
        <ele>12.594957351685</ele>
        <time>2021-01-12T19:58:57.645Z</time>
      </trkpt>
      <trkpt lat="50.51452" lon="1.58254">
        <ele>12.192401885986</ele>
        <time>2021-01-12T19:58:59.391Z</time>
      </trkpt>
      <trkpt lat="50.51455" lon="1.58231">
        <ele>11.759699821472</ele>
        <time>2021-01-12T19:59:01.140Z</time>
      </trkpt>
      <trkpt lat="50.51468" lon="1.5815">
        <ele>11.818927764893</ele>
        <time>2021-01-12T19:59:02.900Z</time>
      </trkpt>
      <trkpt lat="50.51466" lon="1.58062">
        <ele>12.522687911987</ele>
        <time>2021-01-12T19:59:04.671Z</time>
      </trkpt>
      <trkpt lat="50.51465" lon="1.58036">
        <ele>13.509692192078</ele>
        <time>2021-01-12T19:59:06.445Z</time>
      </trkpt>
      <trkpt lat="50.51465" lon="1.5803">
        <ele>13.751379966736</ele>
        <time>2021-01-12T19:59:08.220Z</time>
      </trkpt>
      <trkpt lat="50.51435" lon="1.57979">
        <ele>17.737428665161</ele>
        <time>2021-01-12T19:59:10.004Z</time>
      </trkpt>
      <trkpt lat="50.51432" lon="1.57973">
        <ele>18.291673660278</ele>
        <time>2021-01-12T19:59:11.789Z</time>
      </trkpt>
      <trkpt lat="50.51431" lon="1.5796">
        <ele>19.508459091187</ele>
        <time>2021-01-12T19:59:13.576Z</time>
      </trkpt>
      <trkpt lat="50.51424" lon="1.57915">
        <ele>20.871669769287</ele>
        <time>2021-01-12T19:59:15.368Z</time>
      </trkpt>
      <trkpt lat="50.51426" lon="1.57901">
        <ele>20.357011795044</ele>
        <time>2021-01-12T19:59:17.162Z</time>
      </trkpt>
      <trkpt lat="50.51459" lon="1.5788">
        <ele>18.169219970703</ele>
        <time>2021-01-12T19:59:18.963Z</time>
      </trkpt>
      <trkpt lat="50.51466" lon="1.57884">
        <ele>17.973041534424</ele>
        <time>2021-01-12T19:59:20.766Z</time>
      </trkpt>
      <trkpt lat="50.51468" lon="1.57885">
        <ele>17.922655105591</ele>
        <time>2021-01-12T19:59:22.569Z</time>
      </trkpt>
      <trkpt lat="50.51472" lon="1.57882">
        <ele>17.688720703125</ele>
        <time>2021-01-12T19:59:24.373Z</time>
      </trkpt>
      <trkpt lat="50.51476" lon="1.5787">
        <ele>17.120077133179</ele>
        <time>2021-01-12T19:59:26.179Z</time>
      </trkpt>
      <trkpt lat="50.51514" lon="1.57872">
        <ele>16.447443008423</ele>
        <time>2021-01-12T19:59:27.992Z</time>
      </trkpt>
      <trkpt lat="50.51563" lon="1.57883">
        <ele>17.288831710815</ele>
        <time>2021-01-12T19:59:29.816Z</time>
      </trkpt>
      <trkpt lat="50.51613" lon="1.5789">
        <ele>12.839378356934</ele>
        <time>2021-01-12T19:59:31.650Z</time>
      </trkpt>
      <trkpt lat="50.51644" lon="1.57892">
        <ele>10.884954452515</ele>
        <time>2021-01-12T19:59:33.490Z</time>
      </trkpt>
      <trkpt lat="50.51703" lon="1.57906">
        <ele>11.066725730896</ele>
        <time>2021-01-12T19:59:35.342Z</time>
      </trkpt>
      <trkpt lat="50.51724" lon="1.57912">
        <ele>11.269502639771</ele>
        <time>2021-01-12T19:59:37.198Z</time>
      </trkpt>
      <trkpt lat="50.51762" lon="1.57917">
        <ele>11.430957794189</ele>
        <time>2021-01-12T19:59:39.062Z</time>
      </trkpt>
      <trkpt lat="50.51791" lon="1.57922">
        <ele>11.408020019531</ele>
        <time>2021-01-12T19:59:40.931Z</time>
      </trkpt>
      <trkpt lat="50.51835" lon="1.57927">
        <ele>14.122155189514</ele>
        <time>2021-01-12T19:59:42.809Z</time>
      </trkpt>
      <trkpt lat="50.51893" lon="1.57936">
        <ele>13.315979003906</ele>
        <time>2021-01-12T19:59:44.699Z</time>
      </trkpt>
      <trkpt lat="50.5193" lon="1.57942">
        <ele>13.301616668701</ele>
        <time>2021-01-12T19:59:46.596Z</time>
      </trkpt>
      <trkpt lat="50.51973" lon="1.57951">
        <ele>13.407276153564</ele>
        <time>2021-01-12T19:59:48.502Z</time>
      </trkpt>
      <trkpt lat="50.51981" lon="1.57952">
        <ele>13.213607788086</ele>
        <time>2021-01-12T19:59:50.410Z</time>
      </trkpt>
      <trkpt lat="50.51995" lon="1.57955">
        <ele>12.623371124268</ele>
        <time>2021-01-12T19:59:52.321Z</time>
      </trkpt>
      <trkpt lat="50.52033" lon="1.57964">
        <ele>11.523399353027</ele>
        <time>2021-01-12T19:59:54.239Z</time>
      </trkpt>
      <trkpt lat="50.52084" lon="1.57976">
        <ele>9.1093587875366</ele>
        <time>2021-01-12T19:59:56.167Z</time>
      </trkpt>
      <trkpt lat="50.52105" lon="1.57982">
        <ele>8.7566566467285</ele>
        <time>2021-01-12T19:59:58.100Z</time>
      </trkpt>
      <trkpt lat="50.52161" lon="1.57997">
        <ele>8.5881147384644</ele>
        <time>2021-01-12T20:00:00.044Z</time>
      </trkpt>
      <trkpt lat="50.52218" lon="1.58013">
        <ele>10.782982826233</ele>
        <time>2021-01-12T20:00:02.000Z</time>
      </trkpt>
      <trkpt lat="50.52274" lon="1.58031">
        <ele>8.5941352844238</ele>
        <time>2021-01-12T20:00:03.967Z</time>
      </trkpt>
      <trkpt lat="50.5233" lon="1.58052">
        <ele>8.7190999984741</ele>
        <time>2021-01-12T20:00:05.946Z</time>
      </trkpt>
      <trkpt lat="50.52387" lon="1.58072">
        <ele>6.8310914039612</ele>
        <time>2021-01-12T20:00:07.936Z</time>
      </trkpt>
      <trkpt lat="50.52441" lon="1.58094">
        <ele>7.4577617645264</ele>
        <time>2021-01-12T20:00:09.938Z</time>
      </trkpt>
      <trkpt lat="50.52447" lon="1.58097">
        <ele>7.836501121521</ele>
        <time>2021-01-12T20:00:11.941Z</time>
      </trkpt>
      <trkpt lat="50.5246" lon="1.58104">
        <ele>8.3187665939331</ele>
        <time>2021-01-12T20:00:13.947Z</time>
      </trkpt>
      <trkpt lat="50.52515" lon="1.58126">
        <ele>8</ele>
        <time>2021-01-12T20:00:15.964Z</time>
      </trkpt>
      <trkpt lat="50.52569" lon="1.5815">
        <ele>9.4511194229126</ele>
        <time>2021-01-12T20:00:17.992Z</time>
      </trkpt>
      <trkpt lat="50.5258" lon="1.58156">
        <ele>9.8506078720093</ele>
        <time>2021-01-12T20:00:20.023Z</time>
      </trkpt>
      <trkpt lat="50.52637" lon="1.58183">
        <ele>8.604154586792</ele>
        <time>2021-01-12T20:00:22.065Z</time>
      </trkpt>
      <trkpt lat="50.52688" lon="1.58212">
        <ele>7.2516746520996</ele>
        <time>2021-01-12T20:00:24.118Z</time>
      </trkpt>
      <trkpt lat="50.52738" lon="1.58247">
        <ele>8.5406274795532</ele>
        <time>2021-01-12T20:00:26.182Z</time>
      </trkpt>
      <trkpt lat="50.52743" lon="1.5825">
        <ele>8.7241764068604</ele>
        <time>2021-01-12T20:00:28.247Z</time>
      </trkpt>
      <trkpt lat="50.52752" lon="1.58246">
        <ele>9</ele>
        <time>2021-01-12T20:00:30.314Z</time>
      </trkpt>
      <trkpt lat="50.52761" lon="1.58223">
        <ele>8.5701971054077</ele>
        <time>2021-01-12T20:00:32.385Z</time>
      </trkpt>
      <trkpt lat="50.52775" lon="1.58201">
        <ele>8</ele>
        <time>2021-01-12T20:00:34.459Z</time>
      </trkpt>
      <trkpt lat="50.52781" lon="1.58183">
        <ele>8.0774011611938</ele>
        <time>2021-01-12T20:00:36.536Z</time>
      </trkpt>
      <trkpt lat="50.52784" lon="1.58164">
        <ele>8.1889696121216</ele>
        <time>2021-01-12T20:00:38.616Z</time>
      </trkpt>
      <trkpt lat="50.52789" lon="1.58148">
        <ele>8.3581228256226</ele>
        <time>2021-01-12T20:00:40.698Z</time>
      </trkpt>
      <trkpt lat="50.52795" lon="1.58134">
        <ele>8.3311414718628</ele>
        <time>2021-01-12T20:00:42.782Z</time>
      </trkpt>
      <trkpt lat="50.52804" lon="1.58127">
        <ele>8.406720161438</ele>
        <time>2021-01-12T20:00:44.868Z</time>
      </trkpt>
      <trkpt lat="50.52814" lon="1.58129">
        <ele>8.8421993255615</ele>
        <time>2021-01-12T20:00:46.956Z</time>
      </trkpt>
      <trkpt lat="50.52863" lon="1.58168">
        <ele>11.944959640503</ele>
        <time>2021-01-12T20:00:49.055Z</time>
      </trkpt>
      <trkpt lat="50.52912" lon="1.58212">
        <ele>13.546303749084</ele>
        <time>2021-01-12T20:00:51.165Z</time>
      </trkpt>
      <trkpt lat="50.52917" lon="1.58223">
        <ele>13.934995651245</ele>
        <time>2021-01-12T20:00:53.277Z</time>
      </trkpt>
      <trkpt lat="50.52917" lon="1.58235">
        <ele>13.997234344482</ele>
        <time>2021-01-12T20:00:55.391Z</time>
      </trkpt>
      <trkpt lat="50.52918" lon="1.58277">
        <ele>13.169997215271</ele>
        <time>2021-01-12T20:00:57.510Z</time>
      </trkpt>
      <trkpt lat="50.52923" lon="1.5829">
        <ele>13.368763923645</ele>
        <time>2021-01-12T20:00:59.631Z</time>
      </trkpt>
      <trkpt lat="50.52965" lon="1.58345">
        <ele>15.717555999756</ele>
        <time>2021-01-12T20:01:01.763Z</time>
      </trkpt>
      <trkpt lat="50.52976" lon="1.58354">
        <ele>15.91174697876</ele>
        <time>2021-01-12T20:01:03.897Z</time>
      </trkpt>
      <trkpt lat="50.52986" lon="1.58359">
        <ele>15.548247337341</ele>
        <time>2021-01-12T20:01:06.033Z</time>
      </trkpt>
      <trkpt lat="50.53021" lon="1.58371">
        <ele>13.998289108276</ele>
        <time>2021-01-12T20:01:08.177Z</time>
      </trkpt>
      <trkpt lat="50.53054" lon="1.58384">
        <ele>13.104526519775</ele>
        <time>2021-01-12T20:01:10.327Z</time>
      </trkpt>
      <trkpt lat="50.53063" lon="1.58392">
        <ele>13.028102874756</ele>
        <time>2021-01-12T20:01:12.480Z</time>
      </trkpt>
      <trkpt lat="50.53112" lon="1.58429">
        <ele>14</ele>
        <time>2021-01-12T20:01:14.643Z</time>
      </trkpt>
      <trkpt lat="50.5313" lon="1.58443">
        <ele>14</ele>
        <time>2021-01-12T20:01:16.811Z</time>
      </trkpt>
      <trkpt lat="50.53149" lon="1.58448">
        <ele>13.334962844849</ele>
        <time>2021-01-12T20:01:18.982Z</time>
      </trkpt>
      <trkpt lat="50.53164" lon="1.5844">
        <ele>12.390003204346</ele>
        <time>2021-01-12T20:01:21.156Z</time>
      </trkpt>
      <trkpt lat="50.53174" lon="1.58441">
        <ele>11.979716300964</ele>
        <time>2021-01-12T20:01:23.333Z</time>
      </trkpt>
      <trkpt lat="50.53201" lon="1.58454">
        <ele>11</ele>
        <time>2021-01-12T20:01:25.515Z</time>
      </trkpt>
      <trkpt lat="50.53212" lon="1.58455">
        <ele>11</ele>
        <time>2021-01-12T20:01:27.699Z</time>
      </trkpt>
      <trkpt lat="50.53232" lon="1.5845">
        <ele>11.305293083191</ele>
        <time>2021-01-12T20:01:29.887Z</time>
      </trkpt>
      <trkpt lat="50.53241" lon="1.58452">
        <ele>11.654396057129</ele>
        <time>2021-01-12T20:01:32.077Z</time>
      </trkpt>
      <trkpt lat="50.53256" lon="1.5846">
        <ele>12</ele>
        <time>2021-01-12T20:01:34.271Z</time>
      </trkpt>
      <trkpt lat="50.53264" lon="1.58468">
        <ele>12</ele>
        <time>2021-01-12T20:01:36.466Z</time>
      </trkpt>
      <trkpt lat="50.53279" lon="1.58498">
        <ele>11.988780975342</ele>
        <time>2021-01-12T20:01:38.666Z</time>
      </trkpt>
      <trkpt lat="50.53324" lon="1.58548">
        <ele>10</ele>
        <time>2021-01-12T20:01:40.877Z</time>
      </trkpt>
      <trkpt lat="50.5337" lon="1.58596">
        <ele>10.094551086426</ele>
        <time>2021-01-12T20:01:43.099Z</time>
      </trkpt>
      <trkpt lat="50.53396" lon="1.58619">
        <ele>9.7671537399292</ele>
        <time>2021-01-12T20:01:45.327Z</time>
      </trkpt>
      <trkpt lat="50.53404" lon="1.58626">
        <ele>9.4900302886963</ele>
        <time>2021-01-12T20:01:47.557Z</time>
      </trkpt>
      <trkpt lat="50.53444" lon="1.58665">
        <ele>9</ele>
        <time>2021-01-12T20:01:49.797Z</time>
      </trkpt>
      <trkpt lat="50.53478" lon="1.58705">
        <ele>8.9249210357666</ele>
        <time>2021-01-12T20:01:52.045Z</time>
      </trkpt>
      <trkpt lat="50.53482" lon="1.58711">
        <ele>8.8817329406738</ele>
        <time>2021-01-12T20:01:54.294Z</time>
      </trkpt>
      <trkpt lat="50.53496" lon="1.58753">
        <ele>9.3532018661499</ele>
        <time>2021-01-12T20:01:56.549Z</time>
      </trkpt>
      <trkpt lat="50.53496" lon="1.58753">
        <ele>9.4143848419189</ele>
        <time>2021-01-12T20:01:58.804Z</time>
      </trkpt>
      <trkpt lat="50.53494" lon="1.58756">
        <ele>9.6303253173828</ele>
        <time>2021-01-12T20:02:01.060Z</time>
      </trkpt>
      <trkpt lat="50.53493" lon="1.58757">
        <ele>9.7310972213745</ele>
        <time>2021-01-12T20:02:03.316Z</time>
      </trkpt>
      <trkpt lat="50.53492" lon="1.58761">
        <ele>9.9398393630981</ele>
        <time>2021-01-12T20:02:05.573Z</time>
      </trkpt>
      <trkpt lat="50.53485" lon="1.58782">
        <ele>11.246275901794</ele>
        <time>2021-01-12T20:02:07.833Z</time>
      </trkpt>
      <trkpt lat="50.53484" lon="1.5879">
        <ele>11.580983161926</ele>
        <time>2021-01-12T20:02:10.094Z</time>
      </trkpt>
      <trkpt lat="50.53484" lon="1.58795">
        <ele>11.610830307007</ele>
        <time>2021-01-12T20:02:12.355Z</time>
      </trkpt>
      <trkpt lat="50.53484" lon="1.588">
        <ele>11.621626853943</ele>
        <time>2021-01-12T20:02:14.617Z</time>
      </trkpt>
      <trkpt lat="50.53483" lon="1.58805">
        <ele>11.646820068359</ele>
        <time>2021-01-12T20:02:16.880Z</time>
      </trkpt>
      <trkpt lat="50.53482" lon="1.58808">
        <ele>11.693607330322</ele>
        <time>2021-01-12T20:02:19.143Z</time>
      </trkpt>
      <trkpt lat="50.53481" lon="1.58811">
        <ele>11.844709396362</ele>
        <time>2021-01-12T20:02:21.407Z</time>
      </trkpt>
      <trkpt lat="50.5348" lon="1.58826">
        <ele>12.388158798218</ele>
        <time>2021-01-12T20:02:23.672Z</time>
      </trkpt>
      <trkpt lat="50.53481" lon="1.58837">
        <ele>12.758855819702</ele>
        <time>2021-01-12T20:02:25.939Z</time>
      </trkpt>
      <trkpt lat="50.53481" lon="1.58843">
        <ele>12.978394508362</ele>
        <time>2021-01-12T20:02:28.207Z</time>
      </trkpt>
      <trkpt lat="50.53483" lon="1.58869">
        <ele>13</ele>
        <time>2021-01-12T20:02:30.478Z</time>
      </trkpt>
      <trkpt lat="50.53476" lon="1.58937">
        <ele>13.162043571472</ele>
        <time>2021-01-12T20:02:32.758Z</time>
      </trkpt>
      <trkpt lat="50.53478" lon="1.58959">
        <ele>12.395934104919</ele>
        <time>2021-01-12T20:02:35.041Z</time>
      </trkpt>
      <trkpt lat="50.53481" lon="1.58993">
        <ele>11.075100898743</ele>
        <time>2021-01-12T20:02:37.328Z</time>
      </trkpt>
      <trkpt lat="50.5348" lon="1.59009">
        <ele>10.765587806702</ele>
        <time>2021-01-12T20:02:39.617Z</time>
      </trkpt>
      <trkpt lat="50.53484" lon="1.59048">
        <ele>9.7588224411011</ele>
        <time>2021-01-12T20:02:41.911Z</time>
      </trkpt>
      <trkpt lat="50.53483" lon="1.59056">
        <ele>9.4421100616455</ele>
        <time>2021-01-12T20:02:44.206Z</time>
      </trkpt>
      <trkpt lat="50.53481" lon="1.59065">
        <ele>9.2883977890015</ele>
        <time>2021-01-12T20:02:46.502Z</time>
      </trkpt>
      <trkpt lat="50.53479" lon="1.59074">
        <ele>9.2200164794922</ele>
        <time>2021-01-12T20:02:48.799Z</time>
      </trkpt>
      <trkpt lat="50.53477" lon="1.59088">
        <ele>9.1336402893066</ele>
        <time>2021-01-12T20:02:51.098Z</time>
      </trkpt>
      <trkpt lat="50.53475" lon="1.59094">
        <ele>9.2966842651367</ele>
        <time>2021-01-12T20:02:53.398Z</time>
      </trkpt>
      <trkpt lat="50.53472" lon="1.591">
        <ele>9.5733299255371</ele>
        <time>2021-01-12T20:02:55.699Z</time>
      </trkpt>
      <trkpt lat="50.53468" lon="1.59106">
        <ele>9.9116353988647</ele>
        <time>2021-01-12T20:02:58.001Z</time>
      </trkpt>
      <trkpt lat="50.53448" lon="1.59132">
        <ele>10.64271068573</ele>
        <time>2021-01-12T20:03:00.308Z</time>
      </trkpt>
      <trkpt lat="50.53441" lon="1.5914">
        <ele>10.921766281128</ele>
        <time>2021-01-12T20:03:02.617Z</time>
      </trkpt>
      <trkpt lat="50.53435" lon="1.59147">
        <ele>10.640055656433</ele>
        <time>2021-01-12T20:03:04.928Z</time>
      </trkpt>
      <trkpt lat="50.53433" lon="1.59149">
        <ele>10.564476966858</ele>
        <time>2021-01-12T20:03:07.239Z</time>
      </trkpt>
      <trkpt lat="50.53432" lon="1.59151">
        <ele>10.506892204285</ele>
        <time>2021-01-12T20:03:09.551Z</time>
      </trkpt>
      <trkpt lat="50.53423" lon="1.59157">
        <ele>10.190180778503</ele>
        <time>2021-01-12T20:03:11.865Z</time>
      </trkpt>
      <trkpt lat="50.53408" lon="1.59158">
        <ele>10</ele>
        <time>2021-01-12T20:03:14.181Z</time>
      </trkpt>
      <trkpt lat="50.53377" lon="1.59168">
        <ele>8.6147518157959</ele>
        <time>2021-01-12T20:03:16.504Z</time>
      </trkpt>
      <trkpt lat="50.5333" lon="1.59208">
        <ele>7.5968565940857</ele>
        <time>2021-01-12T20:03:18.838Z</time>
      </trkpt>
      <trkpt lat="50.53311" lon="1.59219">
        <ele>7.8478980064392</ele>
        <time>2021-01-12T20:03:21.176Z</time>
      </trkpt>
      <trkpt lat="50.53301" lon="1.59224">
        <ele>7.7994003295898</ele>
        <time>2021-01-12T20:03:23.516Z</time>
      </trkpt>
      <trkpt lat="50.53249" lon="1.59264">
        <ele>5.0648818016052</ele>
        <time>2021-01-12T20:03:25.867Z</time>
      </trkpt>
      <trkpt lat="50.53241" lon="1.59271">
        <ele>5.3492031097412</ele>
        <time>2021-01-12T20:03:28.220Z</time>
      </trkpt>
      <trkpt lat="50.53232" lon="1.59279">
        <ele>5.687509059906</ele>
        <time>2021-01-12T20:03:30.575Z</time>
      </trkpt>
      <trkpt lat="50.53184" lon="1.59318">
        <ele>6.8084645271301</ele>
        <time>2021-01-12T20:03:32.941Z</time>
      </trkpt>
      <trkpt lat="50.53158" lon="1.59337">
        <ele>7.9757399559021</ele>
        <time>2021-01-12T20:03:35.313Z</time>
      </trkpt>
      <trkpt lat="50.53147" lon="1.59344">
        <ele>7.7394614219666</ele>
        <time>2021-01-12T20:03:37.687Z</time>
      </trkpt>
      <trkpt lat="50.53108" lon="1.59374">
        <ele>8.1574678421021</ele>
        <time>2021-01-12T20:03:40.070Z</time>
      </trkpt>
      <trkpt lat="50.53068" lon="1.59404">
        <ele>9.1653432846069</ele>
        <time>2021-01-12T20:03:42.462Z</time>
      </trkpt>
      <trkpt lat="50.53056" lon="1.59409">
        <ele>10.007353782654</ele>
        <time>2021-01-12T20:03:44.856Z</time>
      </trkpt>
      <trkpt lat="50.53009" lon="1.59411">
        <ele>11</ele>
        <time>2021-01-12T20:03:47.260Z</time>
      </trkpt>
      <trkpt lat="50.52983" lon="1.59404">
        <ele>11</ele>
        <time>2021-01-12T20:03:49.669Z</time>
      </trkpt>
      <trkpt lat="50.52954" lon="1.59378">
        <ele>11.671135902405</ele>
        <time>2021-01-12T20:03:52.085Z</time>
      </trkpt>
      <trkpt lat="50.52904" lon="1.59336">
        <ele>13.50302696228</ele>
        <time>2021-01-12T20:03:54.512Z</time>
      </trkpt>
      <trkpt lat="50.52899" lon="1.59334">
        <ele>13.709102630615</ele>
        <time>2021-01-12T20:03:56.940Z</time>
      </trkpt>
      <trkpt lat="50.52862" lon="1.59324">
        <ele>15</ele>
        <time>2021-01-12T20:03:59.376Z</time>
      </trkpt>
      <trkpt lat="50.52826" lon="1.59338">
        <ele>16</ele>
        <time>2021-01-12T20:04:01.819Z</time>
      </trkpt>
      <trkpt lat="50.52822" lon="1.59339">
        <ele>16</ele>
        <time>2021-01-12T20:04:04.263Z</time>
      </trkpt>
      <trkpt lat="50.52771" lon="1.59346">
        <ele>16</ele>
        <time>2021-01-12T20:04:06.717Z</time>
      </trkpt>
      <trkpt lat="50.52754" lon="1.59344">
        <ele>16</ele>
        <time>2021-01-12T20:04:09.174Z</time>
      </trkpt>
      <trkpt lat="50.52705" lon="1.59298">
        <ele>15.654240608215</ele>
        <time>2021-01-12T20:04:11.643Z</time>
      </trkpt>
      <trkpt lat="50.52673" lon="1.59281">
        <ele>15.183282852173</ele>
        <time>2021-01-12T20:04:14.119Z</time>
      </trkpt>
      <trkpt lat="50.52653" lon="1.59284">
        <ele>15.12038898468</ele>
        <time>2021-01-12T20:04:16.599Z</time>
      </trkpt>
      <trkpt lat="50.52651" lon="1.593">
        <ele>15.391502380371</ele>
        <time>2021-01-12T20:04:19.081Z</time>
      </trkpt>
      <trkpt lat="50.52644" lon="1.59356">
        <ele>15.146770477295</ele>
        <time>2021-01-12T20:04:21.570Z</time>
      </trkpt>
      <trkpt lat="50.52634" lon="1.59391">
        <ele>13.573740959167</ele>
        <time>2021-01-12T20:04:24.064Z</time>
      </trkpt>
      <trkpt lat="50.52625" lon="1.59405">
        <ele>12.447142601013</ele>
        <time>2021-01-12T20:04:26.561Z</time>
      </trkpt>
      <trkpt lat="50.52606" lon="1.59427">
        <ele>10.327331542969</ele>
        <time>2021-01-12T20:04:29.062Z</time>
      </trkpt>
      <trkpt lat="50.52557" lon="1.59474">
        <ele>10.964443206787</ele>
        <time>2021-01-12T20:04:31.575Z</time>
      </trkpt>
      <trkpt lat="50.52516" lon="1.5951">
        <ele>10.267925262451</ele>
        <time>2021-01-12T20:04:34.097Z</time>
      </trkpt>
      <trkpt lat="50.52464" lon="1.59556">
        <ele>9.931263923645</ele>
        <time>2021-01-12T20:04:36.631Z</time>
      </trkpt>
      <trkpt lat="50.52437" lon="1.59572">
        <ele>10.774273872375</ele>
        <time>2021-01-12T20:04:39.171Z</time>
      </trkpt>
      <trkpt lat="50.52412" lon="1.59581">
        <ele>12.177717208862</ele>
        <time>2021-01-12T20:04:41.716Z</time>
      </trkpt>
      <trkpt lat="50.52388" lon="1.5959">
        <ele>12.873867988586</ele>
        <time>2021-01-12T20:04:44.266Z</time>
      </trkpt>
      <trkpt lat="50.52373" lon="1.59599">
        <ele>12.602921485901</ele>
        <time>2021-01-12T20:04:46.819Z</time>
      </trkpt>
      <trkpt lat="50.5233" lon="1.59652">
        <ele>9.6316909790039</ele>
        <time>2021-01-12T20:04:49.383Z</time>
      </trkpt>
      <trkpt lat="50.52327" lon="1.5966">
        <ele>9.3509693145752</ele>
        <time>2021-01-12T20:04:51.948Z</time>
      </trkpt>
      <trkpt lat="50.52298" lon="1.59713">
        <ele>11.873068809509</ele>
        <time>2021-01-12T20:04:54.522Z</time>
      </trkpt>
      <trkpt lat="50.5229" lon="1.59727">
        <ele>12.067559242249</ele>
        <time>2021-01-12T20:04:57.099Z</time>
      </trkpt>
      <trkpt lat="50.52255" lon="1.59797">
        <ele>13</ele>
        <time>2021-01-12T20:04:59.687Z</time>
      </trkpt>
      <trkpt lat="50.52217" lon="1.59871">
        <ele>12.456317901611</ele>
        <time>2021-01-12T20:05:02.287Z</time>
      </trkpt>
      <trkpt lat="50.52181" lon="1.59948">
        <ele>15.506858825684</ele>
        <time>2021-01-12T20:05:04.899Z</time>
      </trkpt>
      <trkpt lat="50.52177" lon="1.59956">
        <ele>15.672412872314</ele>
        <time>2021-01-12T20:05:07.513Z</time>
      </trkpt>
      <trkpt lat="50.52259" lon="1.60055">
        <ele>12.5</ele>
      </trkpt>
    </trkseg>
  </trk>
</gpx>